<?xml version="1.0" encoding="UTF-8" standalone="no" ?><gpx xmlns="http://www.topografix.com/GPX/1/1" xmlns:gpxx="http://www.garmin.com/xmlschemas/GpxExtensions/v3" xmlns:wptx1="http://www.garmin.com/xmlschemas/WaypointExtension/v1" xmlns:gpxtpx="http://www.garmin.com/xmlschemas/TrackPointExtension/v1" creator="Astro 320" version="1.1" xmlns:xsi="http://www.w3.org/2001/XMLSchema-instance" xsi:schemaLocation="http://www.topografix.com/GPX/1/1 http://www.topografix.com/GPX/1/1/gpx.xsd http://www.garmin.com/xmlschemas/GpxExtensions/v3 http://www8.garmin.com/xmlschemas/GpxExtensionsv3.xsd http://www.garmin.com/xmlschemas/WaypointExtension/v1 http://www8.garmin.com/xmlschemas/WaypointExtensionv1.xsd http://www.garmin.com/xmlschemas/TrackPointExtension/v1 http://www.garmin.com/xmlschemas/TrackPointExtensionv1.xsd"><metadata><link href="http://www.garmin.com"><text>Garmin International</text></link><time>2026-04-25T13:35:51Z</time></metadata><trk><name>2026-04-25 16:35:49</name><extensions><gpxx:TrackExtension><gpxx:DisplayColor>Blue</gpxx:DisplayColor></gpxx:TrackExtension></extensions><trkseg><trkpt lat="59.2565387953" lon="30.3193075676"><ele>62.14</ele><time>2026-04-11T15:30:04Z</time></trkpt><trkpt lat="59.2565525416" lon="30.3192576114"><ele>62.14</ele><time>2026-04-11T15:30:07Z</time></trkpt><trkpt lat="59.2565502785" lon="30.3192198090"><ele>62.62</ele><time>2026-04-11T15:30:09Z</time></trkpt></trkseg><trkseg><trkpt lat="59.2565934453" lon="30.3190114349"><ele>62.62</ele><time>2026-04-11T15:30:24Z</time></trkpt><trkpt lat="59.2566477600" lon="30.3187765740"><ele>62.62</ele><time>2026-04-11T15:30:38Z</time></trkpt><trkpt lat="59.2566848919" lon="30.3185263742"><ele>62.62</ele><time>2026-04-11T15:30:53Z</time></trkpt><trkpt lat="59.2567099538" lon="30.3183463309"><ele>62.62</ele><time>2026-04-11T15:31:08Z</time></trkpt><trkpt lat="59.2567494325" lon="30.3182165790"><ele>62.62</ele><time>2026-04-11T15:31:14Z</time></trkpt><trkpt lat="59.2567726504" lon="30.3179999907"><ele>62.14</ele><time>2026-04-11T15:31:28Z</time></trkpt><trkpt lat="59.2567827087" lon="30.3178814705"><ele>62.14</ele><time>2026-04-11T15:31:39Z</time></trkpt><trkpt lat="59.2568054236" lon="30.3178136609"><ele>62.14</ele><time>2026-04-11T15:31:51Z</time></trkpt><trkpt lat="59.2568155658" lon="30.3177041933"><ele>62.14</ele><time>2026-04-11T15:32:07Z</time></trkpt><trkpt lat="59.2568583973" lon="30.3174928017"><ele>62.14</ele><time>2026-04-11T15:32:20Z</time></trkpt><trkpt lat="59.2568848841" lon="30.3174600285"><ele>62.14</ele><time>2026-04-11T15:32:30Z</time></trkpt><trkpt lat="59.2569179088" lon="30.3173823282"><ele>62.14</ele><time>2026-04-11T15:32:39Z</time></trkpt><trkpt lat="59.2569709662" lon="30.3173684143"><ele>62.14</ele><time>2026-04-11T15:32:48Z</time></trkpt><trkpt lat="59.2569861375" lon="30.3170846030"><ele>62.14</ele><time>2026-04-11T15:33:02Z</time></trkpt><trkpt lat="59.2570124567" lon="30.3165948484"><ele>62.14</ele><time>2026-04-11T15:33:15Z</time></trkpt><trkpt lat="59.2570595630" lon="30.3163398709"><ele>62.14</ele><time>2026-04-11T15:33:27Z</time></trkpt><trkpt lat="59.2571114469" lon="30.3161408845"><ele>62.14</ele><time>2026-04-11T15:33:42Z</time></trkpt><trkpt lat="59.2571226787" lon="30.3160377033"><ele>62.14</ele><time>2026-04-11T15:33:46Z</time></trkpt><trkpt lat="59.2571464833" lon="30.3158653714"><ele>63.58</ele><time>2026-04-11T15:33:54Z</time></trkpt><trkpt lat="59.2571774125" lon="30.3156816401"><ele>63.58</ele><time>2026-04-11T15:34:07Z</time></trkpt><trkpt lat="59.2572125327" lon="30.3153205477"><ele>64.07</ele><time>2026-04-11T15:34:18Z</time></trkpt><trkpt lat="59.2572603095" lon="30.3149881214"><ele>64.07</ele><time>2026-04-11T15:34:30Z</time></trkpt><trkpt lat="59.2573463917" lon="30.3147353232"><ele>64.07</ele><time>2026-04-11T15:34:43Z</time></trkpt><trkpt lat="59.2574050650" lon="30.3145054914"><ele>64.07</ele><time>2026-04-11T15:34:56Z</time></trkpt><trkpt lat="59.2574127764" lon="30.3141205106"><ele>64.07</ele><time>2026-04-11T15:35:09Z</time></trkpt><trkpt lat="59.2574583739" lon="30.3139798623"><ele>64.07</ele><time>2026-04-11T15:35:20Z</time></trkpt><trkpt lat="59.2574681807" lon="30.3139755875"><ele>64.07</ele><time>2026-04-11T15:35:22Z</time></trkpt><trkpt lat="59.2575294524" lon="30.3136862442"><ele>65.03</ele><time>2026-04-11T15:35:34Z</time></trkpt><trkpt lat="59.2575781513" lon="30.3134433366"><ele>65.03</ele><time>2026-04-11T15:35:46Z</time></trkpt><trkpt lat="59.2575960886" lon="30.3132932168"><ele>65.03</ele><time>2026-04-11T15:35:53Z</time></trkpt><trkpt lat="59.2576492298" lon="30.3129959106"><ele>65.03</ele><time>2026-04-11T15:36:07Z</time></trkpt><trkpt lat="59.2576794885" lon="30.3127455432"><ele>65.51</ele><time>2026-04-11T15:36:18Z</time></trkpt><trkpt lat="59.2576850206" lon="30.3127037175"><ele>65.51</ele><time>2026-04-11T15:36:20Z</time></trkpt><trkpt lat="59.2577554286" lon="30.3124308027"><ele>65.99</ele><time>2026-04-11T15:36:35Z</time></trkpt><trkpt lat="59.2578332126" lon="30.3122376837"><ele>65.99</ele><time>2026-04-11T15:36:48Z</time></trkpt><trkpt lat="59.2578632198" lon="30.3120029904"><ele>65.99</ele><time>2026-04-11T15:37:01Z</time></trkpt><trkpt lat="59.2578748707" lon="30.3118032496"><ele>65.99</ele><time>2026-04-11T15:37:16Z</time></trkpt><trkpt lat="59.2578956578" lon="30.3116076160"><ele>65.99</ele><time>2026-04-11T15:37:31Z</time></trkpt><trkpt lat="59.2579282634" lon="30.3114381339"><ele>65.99</ele><time>2026-04-11T15:37:47Z</time></trkpt><trkpt lat="59.2579871044" lon="30.3112109844"><ele>66.47</ele><time>2026-04-11T15:38:03Z</time></trkpt><trkpt lat="59.2580336239" lon="30.3110172786"><ele>66.47</ele><time>2026-04-11T15:38:15Z</time></trkpt><trkpt lat="59.2580963206" lon="30.3108436055"><ele>66.95</ele><time>2026-04-11T15:38:28Z</time></trkpt><trkpt lat="59.2581276689" lon="30.3106867801"><ele>66.95</ele><time>2026-04-11T15:38:40Z</time></trkpt><trkpt lat="59.2581394874" lon="30.3105550166"><ele>66.95</ele><time>2026-04-11T15:38:49Z</time></trkpt><trkpt lat="59.2581119947" lon="30.3104597982"><ele>67.91</ele><time>2026-04-11T15:39:05Z</time></trkpt><trkpt lat="59.2581114080" lon="30.3104470577"><ele>67.91</ele><time>2026-04-11T15:39:19Z</time></trkpt><trkpt lat="59.2579305265" lon="30.3103310522"><ele>68.39</ele><time>2026-04-11T15:39:33Z</time></trkpt><trkpt lat="59.2577671632" lon="30.3102736361"><ele>68.39</ele><time>2026-04-11T15:39:46Z</time></trkpt><trkpt lat="59.2576308735" lon="30.3102068324"><ele>68.39</ele><time>2026-04-11T15:39:58Z</time></trkpt><trkpt lat="59.2575678416" lon="30.3101944271"><ele>67.91</ele><time>2026-04-11T15:40:04Z</time></trkpt><trkpt lat="59.2573927436" lon="30.3101552837"><ele>67.91</ele><time>2026-04-11T15:40:18Z</time></trkpt><trkpt lat="59.2572494131" lon="30.3101535235"><ele>67.91</ele><time>2026-04-11T15:40:31Z</time></trkpt><trkpt lat="59.2572412826" lon="30.3101508413"><ele>67.91</ele><time>2026-04-11T15:40:32Z</time></trkpt><trkpt lat="59.2571215052" lon="30.3101128712"><ele>67.91</ele><time>2026-04-11T15:40:42Z</time></trkpt><trkpt lat="59.2569941841" lon="30.3100795951"><ele>67.91</ele><time>2026-04-11T15:40:53Z</time></trkpt><trkpt lat="59.2568265460" lon="30.3100676928"><ele>68.39</ele><time>2026-04-11T15:41:05Z</time></trkpt><trkpt lat="59.2567148153" lon="30.3100537788"><ele>68.39</ele><time>2026-04-11T15:41:18Z</time></trkpt><trkpt lat="59.2565501947" lon="30.3100582212"><ele>68.39</ele><time>2026-04-11T15:41:32Z</time></trkpt><trkpt lat="59.2563931178" lon="30.3100613225"><ele>68.39</ele><time>2026-04-11T15:41:44Z</time></trkpt><trkpt lat="59.2563489452" lon="30.3100463189"><ele>66.95</ele><time>2026-04-11T15:42:02Z</time></trkpt><trkpt lat="59.2563439161" lon="30.3100088518"><ele>66.95</ele><time>2026-04-11T15:42:23Z</time></trkpt><trkpt lat="59.2563427426" lon="30.3100106120"><ele>66.95</ele><time>2026-04-11T15:42:39Z</time></trkpt><trkpt lat="59.2563468497" lon="30.3100042418"><ele>66.95</ele><time>2026-04-11T15:42:54Z</time></trkpt><trkpt lat="59.2563346121" lon="30.3100135457"><ele>66.95</ele><time>2026-04-11T15:43:02Z</time></trkpt></trkseg><trkseg><trkpt lat="59.3371042237" lon="29.5099675097"><ele>53.97</ele><time>2026-04-17T09:41:07Z</time></trkpt><trkpt lat="59.3370851129" lon="29.5100953337"><ele>53.97</ele><time>2026-04-17T09:41:30Z</time></trkpt><trkpt lat="59.3368094321" lon="29.5098694414"><ele>53.97</ele><time>2026-04-17T09:41:57Z</time></trkpt><trkpt lat="59.3368274532" lon="29.5098220836"><ele>53.97</ele><time>2026-04-17T09:42:21Z</time></trkpt><trkpt lat="59.3368386850" lon="29.5098299626"><ele>58.78</ele><time>2026-04-17T09:42:23Z</time></trkpt><trkpt lat="59.3368436303" lon="29.5098240953"><ele>63.10</ele><time>2026-04-17T09:42:25Z</time></trkpt><trkpt lat="59.3368558679" lon="29.5098145399"><ele>66.95</ele><time>2026-04-17T09:42:27Z</time></trkpt><trkpt lat="59.3368520960" lon="29.5098548569"><ele>70.79</ele><time>2026-04-17T09:42:29Z</time></trkpt><trkpt lat="59.3368281238" lon="29.5098595507"><ele>73.68</ele><time>2026-04-17T09:42:31Z</time></trkpt><trkpt lat="59.3368238490" lon="29.5098481514"><ele>78.00</ele><time>2026-04-17T09:42:34Z</time></trkpt><trkpt lat="59.3368242681" lon="29.5098448824"><ele>81.85</ele><time>2026-04-17T09:42:37Z</time></trkpt><trkpt lat="59.3368250225" lon="29.5098414458"><ele>85.21</ele><time>2026-04-17T09:42:40Z</time></trkpt><trkpt lat="59.3368246034" lon="29.5098375063"><ele>88.58</ele><time>2026-04-17T09:42:43Z</time></trkpt><trkpt lat="59.3368261121" lon="29.5098324772"><ele>91.94</ele><time>2026-04-17T09:42:47Z</time></trkpt><trkpt lat="59.3368287105" lon="29.5098292921"><ele>95.31</ele><time>2026-04-17T09:42:51Z</time></trkpt><trkpt lat="59.3368292972" lon="29.5098283701"><ele>98.67</ele><time>2026-04-17T09:42:56Z</time></trkpt><trkpt lat="59.3368305545" lon="29.5098280348"><ele>102.04</ele><time>2026-04-17T09:43:02Z</time></trkpt><trkpt lat="59.3368314765" lon="29.5098202396"><ele>105.40</ele><time>2026-04-17T09:43:09Z</time></trkpt><trkpt lat="59.3368329015" lon="29.5098016318"><ele>108.77</ele><time>2026-04-17T09:43:18Z</time></trkpt><trkpt lat="59.3368318956" lon="29.5098573714"><ele>109.73</ele><time>2026-04-17T09:43:21Z</time></trkpt><trkpt lat="59.3368477374" lon="29.5099535119"><ele>110.69</ele><time>2026-04-17T09:43:24Z</time></trkpt><trkpt lat="59.3369062431" lon="29.5100537594"><ele>111.65</ele><time>2026-04-17T09:43:30Z</time></trkpt><trkpt lat="59.3369527627" lon="29.5100646559"><ele>112.61</ele><time>2026-04-17T09:43:45Z</time></trkpt><trkpt lat="59.3369740527" lon="29.5102118421"><ele>112.13</ele><time>2026-04-17T09:43:58Z</time></trkpt><trkpt lat="59.3369570374" lon="29.5104024466"><ele>112.13</ele><time>2026-04-17T09:44:11Z</time></trkpt><trkpt lat="59.3369597197" lon="29.5105551649"><ele>112.13</ele><time>2026-04-17T09:44:23Z</time></trkpt><trkpt lat="59.3369518407" lon="29.5107109845"><ele>112.13</ele><time>2026-04-17T09:44:35Z</time></trkpt><trkpt lat="59.3369960971" lon="29.5107844938"><ele>112.13</ele><time>2026-04-17T09:44:47Z</time></trkpt><trkpt lat="59.3370070774" lon="29.5109538920"><ele>112.13</ele><time>2026-04-17T09:44:58Z</time></trkpt><trkpt lat="59.3370163813" lon="29.5110548101"><ele>112.13</ele><time>2026-04-17T09:45:15Z</time></trkpt><trkpt lat="59.3370125256" lon="29.5110864937"><ele>112.13</ele><time>2026-04-17T09:45:44Z</time></trkpt><trkpt lat="59.3369983602" lon="29.5111221168"><ele>112.13</ele><time>2026-04-17T09:46:10Z</time></trkpt><trkpt lat="59.3370000366" lon="29.5110965520"><ele>112.13</ele><time>2026-04-17T09:46:39Z</time></trkpt><trkpt lat="59.3370079994" lon="29.5111041795"><ele>112.13</ele><time>2026-04-17T09:47:12Z</time></trkpt><trkpt lat="59.3370100111" lon="29.5111252181"><ele>112.13</ele><time>2026-04-17T09:47:37Z</time></trkpt><trkpt lat="59.3370064907" lon="29.5111190155"><ele>112.13</ele><time>2026-04-17T09:48:07Z</time></trkpt><trkpt lat="59.3369986955" lon="29.5111218654"><ele>112.13</ele><time>2026-04-17T09:48:45Z</time></trkpt><trkpt lat="59.3370040599" lon="29.5111184288"><ele>112.13</ele><time>2026-04-17T09:49:15Z</time></trkpt><trkpt lat="59.3370102625" lon="29.5111314207"><ele>112.13</ele><time>2026-04-17T09:49:51Z</time></trkpt><trkpt lat="59.3370070774" lon="29.5111336838"><ele>112.13</ele><time>2026-04-17T09:50:23Z</time></trkpt><trkpt lat="59.3370072450" lon="29.5111221168"><ele>112.13</ele><time>2026-04-17T09:50:49Z</time></trkpt><trkpt lat="59.3370105978" lon="29.5111279003"><ele>112.13</ele><time>2026-04-17T09:51:18Z</time></trkpt><trkpt lat="59.3370646611" lon="29.5111779403"><ele>112.13</ele><time>2026-04-17T09:51:32Z</time></trkpt><trkpt lat="59.3371548504" lon="29.5112339314"><ele>112.13</ele><time>2026-04-17T09:51:45Z</time></trkpt><trkpt lat="59.3372166250" lon="29.5112723205"><ele>112.13</ele><time>2026-04-17T09:51:57Z</time></trkpt><trkpt lat="59.3372576963" lon="29.5112905931"><ele>112.13</ele><time>2026-04-17T09:52:15Z</time></trkpt><trkpt lat="59.3372531701" lon="29.5113501046"><ele>112.13</ele><time>2026-04-17T09:52:37Z</time></trkpt><trkpt lat="59.3372467160" lon="29.5114120468"><ele>112.61</ele><time>2026-04-17T09:53:02Z</time></trkpt><trkpt lat="59.3372394238" lon="29.5114272181"><ele>112.61</ele><time>2026-04-17T09:53:12Z</time></trkpt><trkpt lat="59.3371975143" lon="29.5114864781"><ele>113.09</ele><time>2026-04-17T09:53:20Z</time></trkpt><trkpt lat="59.3371657468" lon="29.5115774218"><ele>113.09</ele><time>2026-04-17T09:53:31Z</time></trkpt><trkpt lat="59.3371486478" lon="29.5116831176"><ele>113.09</ele><time>2026-04-17T09:53:52Z</time></trkpt><trkpt lat="59.3371286988" lon="29.5117743965"><ele>113.09</ele><time>2026-04-17T09:54:04Z</time></trkpt><trkpt lat="59.3371104263" lon="29.5117534418"><ele>113.57</ele><time>2026-04-17T09:54:34Z</time></trkpt><trkpt lat="59.3370977696" lon="29.5117649250"><ele>113.57</ele><time>2026-04-17T09:54:47Z</time></trkpt><trkpt lat="59.3370391801" lon="29.5118748117"><ele>113.57</ele><time>2026-04-17T09:54:59Z</time></trkpt><trkpt lat="59.3370307982" lon="29.5119427051"><ele>113.57</ele><time>2026-04-17T09:55:05Z</time></trkpt><trkpt lat="59.3369967677" lon="29.5120760612"><ele>113.57</ele><time>2026-04-17T09:55:17Z</time></trkpt><trkpt lat="59.3369650003" lon="29.5121918153"><ele>113.57</ele><time>2026-04-17T09:55:30Z</time></trkpt><trkpt lat="59.3369501643" lon="29.5122179668"><ele>113.57</ele><time>2026-04-17T09:55:43Z</time></trkpt><trkpt lat="59.3369070813" lon="29.5123801567"><ele>113.57</ele><time>2026-04-17T09:55:55Z</time></trkpt><trkpt lat="59.3368504196" lon="29.5125374850"><ele>113.57</ele><time>2026-04-17T09:56:07Z</time></trkpt><trkpt lat="59.3368151318" lon="29.5127335377"><ele>113.57</ele><time>2026-04-17T09:56:22Z</time></trkpt><trkpt lat="59.3367775809" lon="29.5128890220"><ele>113.57</ele><time>2026-04-17T09:56:33Z</time></trkpt><trkpt lat="59.3367348332" lon="29.5130450092"><ele>113.57</ele><time>2026-04-17T09:56:43Z</time></trkpt><trkpt lat="59.3367073406" lon="29.5131252240"><ele>113.57</ele><time>2026-04-17T09:56:55Z</time></trkpt><trkpt lat="59.3366661016" lon="29.5132401399"><ele>113.57</ele><time>2026-04-17T09:57:06Z</time></trkpt><trkpt lat="59.3366132956" lon="29.5134169143"><ele>113.57</ele><time>2026-04-17T09:57:17Z</time></trkpt><trkpt lat="59.3365728110" lon="29.5135836303"><ele>113.09</ele><time>2026-04-17T09:57:29Z</time></trkpt><trkpt lat="59.3365372717" lon="29.5137711335"><ele>113.09</ele><time>2026-04-17T09:57:41Z</time></trkpt><trkpt lat="59.3365283031" lon="29.5138168987"><ele>113.09</ele><time>2026-04-17T09:57:52Z</time></trkpt><trkpt lat="59.3364988826" lon="29.5139692817"><ele>113.09</ele><time>2026-04-17T09:58:02Z</time></trkpt><trkpt lat="59.3364628404" lon="29.5141095947"><ele>113.09</ele><time>2026-04-17T09:58:13Z</time></trkpt><trkpt lat="59.3364055082" lon="29.5142969303"><ele>113.09</ele><time>2026-04-17T09:58:26Z</time></trkpt><trkpt lat="59.3363688793" lon="29.5143480599"><ele>113.09</ele><time>2026-04-17T09:58:38Z</time></trkpt><trkpt lat="59.3363360222" lon="29.5143735409"><ele>113.09</ele><time>2026-04-17T09:58:48Z</time></trkpt><trkpt lat="59.3362964597" lon="29.5144617185"><ele>113.09</ele><time>2026-04-17T09:59:02Z</time></trkpt><trkpt lat="59.3362460844" lon="29.5145328809"><ele>113.09</ele><time>2026-04-17T09:59:16Z</time></trkpt><trkpt lat="59.3361965474" lon="29.5145892911"><ele>113.09</ele><time>2026-04-17T09:59:30Z</time></trkpt><trkpt lat="59.3361582421" lon="29.5147007704"><ele>112.61</ele><time>2026-04-17T09:59:47Z</time></trkpt><trkpt lat="59.3360644486" lon="29.5149032772"><ele>112.61</ele><time>2026-04-17T10:00:01Z</time></trkpt><trkpt lat="59.3359939568" lon="29.5149821509"><ele>112.61</ele><time>2026-04-17T10:00:16Z</time></trkpt><trkpt lat="59.3359369598" lon="29.5150843263"><ele>112.61</ele><time>2026-04-17T10:00:30Z</time></trkpt><trkpt lat="59.3359004986" lon="29.5151300076"><ele>112.61</ele><time>2026-04-17T10:00:43Z</time></trkpt><trkpt lat="59.3358611874" lon="29.5151936263"><ele>112.61</ele><time>2026-04-17T10:00:58Z</time></trkpt><trkpt lat="59.3358450104" lon="29.5152249746"><ele>112.61</ele><time>2026-04-17T10:01:12Z</time></trkpt><trkpt lat="59.3357593473" lon="29.5153750945"><ele>112.13</ele><time>2026-04-17T10:01:25Z</time></trkpt><trkpt lat="59.3357217126" lon="29.5154367853"><ele>112.61</ele><time>2026-04-17T10:01:38Z</time></trkpt><trkpt lat="59.3356741033" lon="29.5154189318"><ele>112.13</ele><time>2026-04-17T10:01:48Z</time></trkpt><trkpt lat="59.3356146757" lon="29.5155183412"><ele>112.13</ele><time>2026-04-17T10:02:01Z</time></trkpt><trkpt lat="59.3355342094" lon="29.5155780204"><ele>112.13</ele><time>2026-04-17T10:02:14Z</time></trkpt><trkpt lat="59.3354860134" lon="29.5156057645"><ele>112.13</ele><time>2026-04-17T10:02:24Z</time></trkpt><trkpt lat="59.3354557548" lon="29.5156154875"><ele>111.65</ele><time>2026-04-17T10:02:46Z</time></trkpt><trkpt lat="59.3354386557" lon="29.5156337600"><ele>111.65</ele><time>2026-04-17T10:03:05Z</time></trkpt><trkpt lat="59.3354197964" lon="29.5156854764"><ele>112.13</ele><time>2026-04-17T10:03:29Z</time></trkpt><trkpt lat="59.3354007695" lon="29.5157107897"><ele>112.13</ele><time>2026-04-17T10:03:51Z</time></trkpt><trkpt lat="59.3353580218" lon="29.5157234464"><ele>112.13</ele><time>2026-04-17T10:04:03Z</time></trkpt><trkpt lat="59.3353322893" lon="29.5157373603"><ele>112.13</ele><time>2026-04-17T10:04:09Z</time></trkpt><trkpt lat="59.3352903798" lon="29.5157306548"><ele>112.13</ele><time>2026-04-17T10:04:15Z</time></trkpt><trkpt lat="59.3352374062" lon="29.5157107897"><ele>112.13</ele><time>2026-04-17T10:04:27Z</time></trkpt><trkpt lat="59.3351956643" lon="29.5156816207"><ele>112.13</ele><time>2026-04-17T10:04:42Z</time></trkpt><trkpt lat="59.3351239990" lon="29.5157558005"><ele>112.13</ele><time>2026-04-17T10:04:54Z</time></trkpt><trkpt lat="59.3350430299" lon="29.5158014819"><ele>112.13</ele><time>2026-04-17T10:05:07Z</time></trkpt><trkpt lat="59.3350129388" lon="29.5157982968"><ele>111.65</ele><time>2026-04-17T10:05:18Z</time></trkpt><trkpt lat="59.3349631503" lon="29.5157898311"><ele>111.65</ele><time>2026-04-17T10:05:30Z</time></trkpt><trkpt lat="59.3349291198" lon="29.5157687087"><ele>111.65</ele><time>2026-04-17T10:05:44Z</time></trkpt><trkpt lat="59.3348464742" lon="29.5157391205"><ele>111.65</ele><time>2026-04-17T10:05:54Z</time></trkpt><trkpt lat="59.3347739708" lon="29.5156798605"><ele>111.65</ele><time>2026-04-17T10:06:05Z</time></trkpt><trkpt lat="59.3346920796" lon="29.5155335125"><ele>111.65</ele><time>2026-04-17T10:06:18Z</time></trkpt><trkpt lat="59.3346746452" lon="29.5155005716"><ele>111.65</ele><time>2026-04-17T10:06:31Z</time></trkpt><trkpt lat="59.3346231803" lon="29.5154482685"><ele>111.65</ele><time>2026-04-17T10:06:44Z</time></trkpt><trkpt lat="59.3346145470" lon="29.5154200215"><ele>111.65</ele><time>2026-04-17T10:06:53Z</time></trkpt><trkpt lat="59.3345041573" lon="29.5152463485"><ele>111.65</ele><time>2026-04-17T10:07:02Z</time></trkpt><trkpt lat="59.3343912531" lon="29.5152038522"><ele>111.65</ele><time>2026-04-17T10:07:13Z</time></trkpt><trkpt lat="59.3342903350" lon="29.5151257329"><ele>111.65</ele><time>2026-04-17T10:07:25Z</time></trkpt><trkpt lat="59.3342878204" lon="29.5151265711"><ele>111.65</ele><time>2026-04-17T10:07:26Z</time></trkpt><trkpt lat="59.3342001457" lon="29.5150852483"><ele>111.65</ele><time>2026-04-17T10:07:39Z</time></trkpt><trkpt lat="59.3341928534" lon="29.5150829013"><ele>111.65</ele><time>2026-04-17T10:07:58Z</time></trkpt><trkpt lat="59.3342002295" lon="29.5151016768"><ele>111.65</ele><time>2026-04-17T10:08:15Z</time></trkpt><trkpt lat="59.3342081085" lon="29.5151064545"><ele>111.65</ele><time>2026-04-17T10:08:44Z</time></trkpt><trkpt lat="59.3342216033" lon="29.5151093882"><ele>111.17</ele><time>2026-04-17T10:09:14Z</time></trkpt><trkpt lat="59.3342241179" lon="29.5151174348"><ele>111.17</ele><time>2026-04-17T10:09:41Z</time></trkpt><trkpt lat="59.3342237826" lon="29.5151152555"><ele>111.17</ele><time>2026-04-17T10:10:11Z</time></trkpt><trkpt lat="59.3342255428" lon="29.5151212066"><ele>111.17</ele><time>2026-04-17T10:10:33Z</time></trkpt><trkpt lat="59.3342702184" lon="29.5151566621"><ele>111.17</ele><time>2026-04-17T10:10:52Z</time></trkpt><trkpt lat="59.3343076017" lon="29.5152353682"><ele>111.17</ele><time>2026-04-17T10:11:06Z</time></trkpt><trkpt lat="59.3343164865" lon="29.5152579155"><ele>111.17</ele><time>2026-04-17T10:11:21Z</time></trkpt><trkpt lat="59.3343272153" lon="29.5152927842"><ele>111.17</ele><time>2026-04-17T10:11:38Z</time></trkpt><trkpt lat="59.3343164865" lon="29.5153015852"><ele>111.17</ele><time>2026-04-17T10:11:53Z</time></trkpt><trkpt lat="59.3342925142" lon="29.5153016690"><ele>111.17</ele><time>2026-04-17T10:12:04Z</time></trkpt><trkpt lat="59.3342417199" lon="29.5153257251"><ele>111.17</ele><time>2026-04-17T10:12:13Z</time></trkpt><trkpt lat="59.3341916800" lon="29.5154438261"><ele>111.17</ele><time>2026-04-17T10:12:24Z</time></trkpt><trkpt lat="59.3341628462" lon="29.5155351888"><ele>111.17</ele><time>2026-04-17T10:12:36Z</time></trkpt><trkpt lat="59.3341546319" lon="29.5155910961"><ele>111.17</ele><time>2026-04-17T10:12:39Z</time></trkpt><trkpt lat="59.3340910971" lon="29.5157737378"><ele>111.17</ele><time>2026-04-17T10:12:50Z</time></trkpt><trkpt lat="59.3340111338" lon="29.5159925893"><ele>111.17</ele><time>2026-04-17T10:13:03Z</time></trkpt><trkpt lat="59.3339813780" lon="29.5160987880"><ele>111.17</ele><time>2026-04-17T10:13:16Z</time></trkpt><trkpt lat="59.3339464255" lon="29.5161830261"><ele>110.69</ele><time>2026-04-17T10:13:28Z</time></trkpt><trkpt lat="59.3338989839" lon="29.5163950045"><ele>110.69</ele><time>2026-04-17T10:13:40Z</time></trkpt><trkpt lat="59.3338851538" lon="29.5164388418"><ele>110.69</ele><time>2026-04-17T10:13:42Z</time></trkpt><trkpt lat="59.3338539731" lon="29.5166033786"><ele>110.69</ele><time>2026-04-17T10:13:54Z</time></trkpt><trkpt lat="59.3338258937" lon="29.5168050472"><ele>110.69</ele><time>2026-04-17T10:14:06Z</time></trkpt><trkpt lat="59.3338314258" lon="29.5168553386"><ele>110.69</ele><time>2026-04-17T10:14:09Z</time></trkpt><trkpt lat="59.3337585032" lon="29.5170556661"><ele>110.69</ele><time>2026-04-17T10:14:20Z</time></trkpt><trkpt lat="59.3337614369" lon="29.5170838293"><ele>110.69</ele><time>2026-04-17T10:14:24Z</time></trkpt><trkpt lat="59.3336968962" lon="29.5171861723"><ele>110.69</ele><time>2026-04-17T10:14:34Z</time></trkpt><trkpt lat="59.3336533941" lon="29.5172780380"><ele>110.69</ele><time>2026-04-17T10:14:46Z</time></trkpt><trkpt lat="59.3336199503" lon="29.5174551476"><ele>110.69</ele><time>2026-04-17T10:14:56Z</time></trkpt><trkpt lat="59.3335870095" lon="29.5175027568"><ele>110.69</ele><time>2026-04-17T10:15:05Z</time></trkpt><trkpt lat="59.3335641269" lon="29.5175727457"><ele>110.69</ele><time>2026-04-17T10:15:18Z</time></trkpt><trkpt lat="59.3335637078" lon="29.5176161639"><ele>110.69</ele><time>2026-04-17T10:15:29Z</time></trkpt><trkpt lat="59.3335624505" lon="29.5176749211"><ele>110.69</ele><time>2026-04-17T10:15:43Z</time></trkpt><trkpt lat="59.3335714191" lon="29.5177197643"><ele>110.69</ele><time>2026-04-17T10:15:55Z</time></trkpt><trkpt lat="59.3336002529" lon="29.5177118015"><ele>110.69</ele><time>2026-04-17T10:16:05Z</time></trkpt><trkpt lat="59.3336291704" lon="29.5177767612"><ele>110.69</ele><time>2026-04-17T10:16:15Z</time></trkpt><trkpt lat="59.3336192798" lon="29.5178329200"><ele>110.69</ele><time>2026-04-17T10:16:23Z</time></trkpt><trkpt lat="59.3336189445" lon="29.5178573951"><ele>110.21</ele><time>2026-04-17T10:16:38Z</time></trkpt><trkpt lat="59.3336364627" lon="29.5178813674"><ele>110.21</ele><time>2026-04-17T10:16:41Z</time></trkpt><trkpt lat="59.3336974829" lon="29.5179916732"><ele>110.21</ele><time>2026-04-17T10:16:51Z</time></trkpt><trkpt lat="59.3337341119" lon="29.5180893224"><ele>110.21</ele><time>2026-04-17T10:17:02Z</time></trkpt><trkpt lat="59.3338067830" lon="29.5181925874"><ele>110.21</ele><time>2026-04-17T10:17:15Z</time></trkpt><trkpt lat="59.3338199425" lon="29.5182592236"><ele>110.21</ele><time>2026-04-17T10:17:28Z</time></trkpt><trkpt lat="59.3339055218" lon="29.5183538552"><ele>110.21</ele><time>2026-04-17T10:17:41Z</time></trkpt><trkpt lat="59.3339122273" lon="29.5183589682"><ele>110.69</ele><time>2026-04-17T10:17:46Z</time></trkpt><trkpt lat="59.3339429051" lon="29.5184131153"><ele>111.17</ele><time>2026-04-17T10:17:54Z</time></trkpt><trkpt lat="59.3339495268" lon="29.5186641533"><ele>111.17</ele><time>2026-04-17T10:18:07Z</time></trkpt><trkpt lat="59.3339473475" lon="29.5188301150"><ele>111.17</ele><time>2026-04-17T10:18:16Z</time></trkpt><trkpt lat="59.3339595851" lon="29.5189309493"><ele>110.21</ele><time>2026-04-17T10:18:26Z</time></trkpt><trkpt lat="59.3339714874" lon="29.5189659018"><ele>110.21</ele><time>2026-04-17T10:18:40Z</time></trkpt><trkpt lat="59.3340105470" lon="29.5190352201"><ele>110.21</ele><time>2026-04-17T10:18:53Z</time></trkpt><trkpt lat="59.3340620119" lon="29.5191848371"><ele>109.73</ele><time>2026-04-17T10:19:05Z</time></trkpt><trkpt lat="59.3341243733" lon="29.5193341188"><ele>109.73</ele><time>2026-04-17T10:19:17Z</time></trkpt><trkpt lat="59.3341550510" lon="29.5194245595"><ele>109.73</ele><time>2026-04-17T10:19:22Z</time></trkpt><trkpt lat="59.3342380319" lon="29.5196458418"><ele>109.73</ele><time>2026-04-17T10:19:36Z</time></trkpt><trkpt lat="59.3343129661" lon="29.5197951235"><ele>109.73</ele><time>2026-04-17T10:19:49Z</time></trkpt><trkpt lat="59.3343133014" lon="29.5199220255"><ele>109.73</ele><time>2026-04-17T10:20:01Z</time></trkpt><trkpt lat="59.3343728129" lon="29.5200236980"><ele>109.73</ele><time>2026-04-17T10:20:15Z</time></trkpt><trkpt lat="59.3343843799" lon="29.5200936869"><ele>109.73</ele><time>2026-04-17T10:20:20Z</time></trkpt><trkpt lat="59.3344174046" lon="29.5202800166"><ele>109.73</ele><time>2026-04-17T10:20:32Z</time></trkpt><trkpt lat="59.3344046641" lon="29.5203869697"><ele>109.73</ele><time>2026-04-17T10:20:44Z</time></trkpt><trkpt lat="59.3343832064" lon="29.5204803441"><ele>109.73</ele><time>2026-04-17T10:20:57Z</time></trkpt><trkpt lat="59.3343747407" lon="29.5206000376"><ele>109.73</ele><time>2026-04-17T10:21:05Z</time></trkpt><trkpt lat="59.3343636766" lon="29.5206322242"><ele>109.73</ele><time>2026-04-17T10:21:07Z</time></trkpt><trkpt lat="59.3343199231" lon="29.5207129419"><ele>109.73</ele><time>2026-04-17T10:21:15Z</time></trkpt><trkpt lat="59.3342930172" lon="29.5208759699"><ele>109.73</ele><time>2026-04-17T10:21:26Z</time></trkpt><trkpt lat="59.3342768401" lon="29.5210099127"><ele>109.73</ele><time>2026-04-17T10:21:40Z</time></trkpt><trkpt lat="59.3342851382" lon="29.5210561808"><ele>109.73</ele><time>2026-04-17T10:21:44Z</time></trkpt><trkpt lat="59.3343434762" lon="29.5212181192"><ele>109.73</ele><time>2026-04-17T10:21:56Z</time></trkpt><trkpt lat="59.3343943544" lon="29.5214245655"><ele>109.73</ele><time>2026-04-17T10:22:08Z</time></trkpt><trkpt lat="59.3344451487" lon="29.5215704944"><ele>109.73</ele><time>2026-04-17T10:22:21Z</time></trkpt><trkpt lat="59.3344289716" lon="29.5216472726"><ele>109.25</ele><time>2026-04-17T10:22:35Z</time></trkpt><trkpt lat="59.3344393652" lon="29.5217088796"><ele>109.25</ele><time>2026-04-17T10:22:47Z</time></trkpt><trkpt lat="59.3344254512" lon="29.5217313431"><ele>109.25</ele><time>2026-04-17T10:23:03Z</time></trkpt><trkpt lat="59.3344031554" lon="29.5217491966"><ele>109.25</ele><time>2026-04-17T10:23:15Z</time></trkpt><trkpt lat="59.3344047479" lon="29.5217737556"><ele>109.25</ele><time>2026-04-17T10:23:19Z</time></trkpt><trkpt lat="59.3344031554" lon="29.5218147431"><ele>109.25</ele><time>2026-04-17T10:23:21Z</time></trkpt><trkpt lat="59.3343572225" lon="29.5219488535"><ele>109.25</ele><time>2026-04-17T10:23:31Z</time></trkpt><trkpt lat="59.3343472481" lon="29.5219953731"><ele>109.25</ele><time>2026-04-17T10:23:34Z</time></trkpt><trkpt lat="59.3343221024" lon="29.5221518632"><ele>109.25</ele><time>2026-04-17T10:23:45Z</time></trkpt><trkpt lat="59.3343083560" lon="29.5221899170"><ele>109.25</ele><time>2026-04-17T10:23:47Z</time></trkpt><trkpt lat="59.3342710566" lon="29.5223869756"><ele>109.25</ele><time>2026-04-17T10:23:58Z</time></trkpt><trkpt lat="59.3342867307" lon="29.5224687830"><ele>110.21</ele><time>2026-04-17T10:24:13Z</time></trkpt><trkpt lat="59.3343192525" lon="29.5224923361"><ele>110.69</ele><time>2026-04-17T10:24:27Z</time></trkpt><trkpt lat="59.3343024887" lon="29.5224739797"><ele>110.69</ele><time>2026-04-17T10:24:40Z</time></trkpt><trkpt lat="59.3342866469" lon="29.5224738959"><ele>110.21</ele><time>2026-04-17T10:24:51Z</time></trkpt><trkpt lat="59.3342754990" lon="29.5224600658"><ele>110.21</ele><time>2026-04-17T10:25:10Z</time></trkpt><trkpt lat="59.3342719786" lon="29.5224448945"><ele>110.21</ele><time>2026-04-17T10:25:14Z</time></trkpt><trkpt lat="59.3342393730" lon="29.5224743150"><ele>110.21</ele><time>2026-04-17T10:25:24Z</time></trkpt><trkpt lat="59.3342133053" lon="29.5225680247"><ele>110.21</ele><time>2026-04-17T10:25:37Z</time></trkpt><trkpt lat="59.3342141435" lon="29.5225702040"><ele>110.21</ele><time>2026-04-17T10:25:43Z</time></trkpt><trkpt lat="59.3341810349" lon="29.5226939209"><ele>110.21</ele><time>2026-04-17T10:25:53Z</time></trkpt><trkpt lat="59.3341481779" lon="29.5227878820"><ele>110.21</ele><time>2026-04-17T10:26:01Z</time></trkpt><trkpt lat="59.3341143150" lon="29.5229801629"><ele>110.21</ele><time>2026-04-17T10:26:15Z</time></trkpt><trkpt lat="59.3340756744" lon="29.5231374912"><ele>110.21</ele><time>2026-04-17T10:26:25Z</time></trkpt><trkpt lat="59.3340387940" lon="29.5232977532"><ele>110.21</ele><time>2026-04-17T10:26:35Z</time></trkpt><trkpt lat="59.3339812942" lon="29.5234568417"><ele>110.21</ele><time>2026-04-17T10:26:46Z</time></trkpt><trkpt lat="59.3339729961" lon="29.5234646369"><ele>110.21</ele><time>2026-04-17T10:27:10Z</time></trkpt><trkpt lat="59.3339650333" lon="29.5235202927"><ele>110.21</ele><time>2026-04-17T10:27:15Z</time></trkpt><trkpt lat="59.3339651171" lon="29.5235725958"><ele>110.21</ele><time>2026-04-17T10:27:17Z</time></trkpt><trkpt lat="59.3339125626" lon="29.5237872563"><ele>110.21</ele><time>2026-04-17T10:27:29Z</time></trkpt><trkpt lat="59.3339042645" lon="29.5238326862"><ele>110.21</ele><time>2026-04-17T10:27:31Z</time></trkpt><trkpt lat="59.3338144105" lon="29.5239776932"><ele>110.21</ele><time>2026-04-17T10:27:43Z</time></trkpt><trkpt lat="59.3338062800" lon="29.5240634400"><ele>110.21</ele><time>2026-04-17T10:27:49Z</time></trkpt><trkpt lat="59.3337662984" lon="29.5242700540"><ele>110.21</ele><time>2026-04-17T10:28:01Z</time></trkpt><trkpt lat="59.3337513786" lon="29.5243111253"><ele>110.21</ele><time>2026-04-17T10:28:03Z</time></trkpt><trkpt lat="59.3337178510" lon="29.5243856404"><ele>110.21</ele><time>2026-04-17T10:28:09Z</time></trkpt><trkpt lat="59.3336868379" lon="29.5245365147"><ele>110.21</ele><time>2026-04-17T10:28:21Z</time></trkpt><trkpt lat="59.3336606864" lon="29.5246019773"><ele>110.21</ele><time>2026-04-17T10:28:31Z</time></trkpt><trkpt lat="59.3336466886" lon="29.5245954394"><ele>109.25</ele><time>2026-04-17T10:28:47Z</time></trkpt><trkpt lat="59.3335902784" lon="29.5245505124"><ele>109.25</ele><time>2026-04-17T10:28:59Z</time></trkpt><trkpt lat="59.3335319404" lon="29.5244433917"><ele>109.25</ele><time>2026-04-17T10:29:12Z</time></trkpt><trkpt lat="59.3334788829" lon="29.5243924297"><ele>109.25</ele><time>2026-04-17T10:29:20Z</time></trkpt><trkpt lat="59.3333675712" lon="29.5242882427"><ele>109.25</ele><time>2026-04-17T10:29:31Z</time></trkpt><trkpt lat="59.3333135918" lon="29.5242398791"><ele>109.25</ele><time>2026-04-17T10:29:44Z</time></trkpt><trkpt lat="59.3332619593" lon="29.5242115483"><ele>109.25</ele><time>2026-04-17T10:29:55Z</time></trkpt><trkpt lat="59.3332140986" lon="29.5241321716"><ele>109.25</ele><time>2026-04-17T10:30:04Z</time></trkpt><trkpt lat="59.3331823312" lon="29.5240496099"><ele>109.25</ele><time>2026-04-17T10:30:15Z</time></trkpt><trkpt lat="59.3331441097" lon="29.5239820518"><ele>109.25</ele><time>2026-04-17T10:30:25Z</time></trkpt><trkpt lat="59.3331058882" lon="29.5238787867"><ele>109.25</ele><time>2026-04-17T10:30:36Z</time></trkpt><trkpt lat="59.3330179621" lon="29.5237900224"><ele>109.25</ele><time>2026-04-17T10:30:49Z</time></trkpt><trkpt lat="59.3329567742" lon="29.5237538964"><ele>109.25</ele><time>2026-04-17T10:30:58Z</time></trkpt><trkpt lat="59.3329281081" lon="29.5237340312"><ele>109.25</ele><time>2026-04-17T10:31:11Z</time></trkpt><trkpt lat="59.3329275213" lon="29.5237208717"><ele>109.25</ele><time>2026-04-17T10:31:29Z</time></trkpt><trkpt lat="59.3329356518" lon="29.5236769505"><ele>109.25</ele><time>2026-04-17T10:31:44Z</time></trkpt><trkpt lat="59.3329354003" lon="29.5236608572"><ele>109.25</ele><time>2026-04-17T10:31:55Z</time></trkpt><trkpt lat="59.3329390883" lon="29.5235451870"><ele>109.25</ele><time>2026-04-17T10:32:03Z</time></trkpt><trkpt lat="59.3328875396" lon="29.5234362222"><ele>109.25</ele><time>2026-04-17T10:32:15Z</time></trkpt><trkpt lat="59.3328867014" lon="29.5234444365"><ele>109.25</ele><time>2026-04-17T10:32:17Z</time></trkpt><trkpt lat="59.3328722008" lon="29.5233886130"><ele>109.25</ele><time>2026-04-17T10:32:29Z</time></trkpt><trkpt lat="59.3328673393" lon="29.5233418420"><ele>109.25</ele><time>2026-04-17T10:32:40Z</time></trkpt><trkpt lat="59.3328277767" lon="29.5233817399"><ele>109.25</ele><time>2026-04-17T10:32:50Z</time></trkpt><trkpt lat="59.3327699415" lon="29.5233767945"><ele>109.25</ele><time>2026-04-17T10:33:02Z</time></trkpt><trkpt lat="59.3327490706" lon="29.5233524032"><ele>109.25</ele><time>2026-04-17T10:33:06Z</time></trkpt><trkpt lat="59.3327505793" lon="29.5232490543"><ele>109.25</ele><time>2026-04-17T10:33:17Z</time></trkpt><trkpt lat="59.3327415269" lon="29.5232488867"><ele>109.25</ele><time>2026-04-17T10:33:31Z</time></trkpt><trkpt lat="59.3327328097" lon="29.5232275128"><ele>109.25</ele><time>2026-04-17T10:33:46Z</time></trkpt><trkpt lat="59.3327509984" lon="29.5231863577"><ele>109.25</ele><time>2026-04-17T10:33:57Z</time></trkpt><trkpt lat="59.3327705283" lon="29.5231485553"><ele>109.25</ele><time>2026-04-17T10:34:08Z</time></trkpt><trkpt lat="59.3327817600" lon="29.5231042989"><ele>109.25</ele><time>2026-04-17T10:34:21Z</time></trkpt><trkpt lat="59.3328053132" lon="29.5230903011"><ele>109.25</ele><time>2026-04-17T10:34:26Z</time></trkpt><trkpt lat="59.3328308780" lon="29.5230946597"><ele>109.25</ele><time>2026-04-17T10:34:40Z</time></trkpt><trkpt lat="59.3328654952" lon="29.5230735373"><ele>109.25</ele><time>2026-04-17T10:35:00Z</time></trkpt><trkpt lat="59.3328682613" lon="29.5230580308"><ele>109.25</ele><time>2026-04-17T10:35:09Z</time></trkpt><trkpt lat="59.3328825105" lon="29.5231524948"><ele>109.25</ele><time>2026-04-17T10:35:18Z</time></trkpt><trkpt lat="59.3328882102" lon="29.5231916383"><ele>109.25</ele><time>2026-04-17T10:35:28Z</time></trkpt><trkpt lat="59.3329154514" lon="29.5232844260"><ele>109.25</ele><time>2026-04-17T10:35:38Z</time></trkpt><trkpt lat="59.3329409324" lon="29.5232869405"><ele>109.25</ele><time>2026-04-17T10:35:48Z</time></trkpt><trkpt lat="59.3329504877" lon="29.5232768822"><ele>109.25</ele><time>2026-04-17T10:35:49Z</time></trkpt><trkpt lat="59.3330043834" lon="29.5232480485"><ele>109.25</ele><time>2026-04-17T10:36:01Z</time></trkpt><trkpt lat="59.3330403417" lon="29.5232208911"><ele>109.25</ele><time>2026-04-17T10:36:15Z</time></trkpt><trkpt lat="59.3330714386" lon="29.5232609566"><ele>109.25</ele><time>2026-04-17T10:36:33Z</time></trkpt><trkpt lat="59.3331141863" lon="29.5234214701"><ele>109.25</ele><time>2026-04-17T10:36:47Z</time></trkpt><trkpt lat="59.3331818283" lon="29.5235449355"><ele>109.25</ele><time>2026-04-17T10:36:58Z</time></trkpt><trkpt lat="59.3332715984" lon="29.5235560834"><ele>109.25</ele><time>2026-04-17T10:37:14Z</time></trkpt><trkpt lat="59.3333145976" lon="29.5235500485"><ele>109.25</ele><time>2026-04-17T10:37:31Z</time></trkpt><trkpt lat="59.3334086426" lon="29.5235337038"><ele>109.25</ele><time>2026-04-17T10:37:44Z</time></trkpt><trkpt lat="59.3334914558" lon="29.5236604381"><ele>109.25</ele><time>2026-04-17T10:37:58Z</time></trkpt><trkpt lat="59.3335621152" lon="29.5237288345"><ele>109.25</ele><time>2026-04-17T10:38:12Z</time></trkpt><trkpt lat="59.3336029351" lon="29.5237733424"><ele>109.25</ele><time>2026-04-17T10:38:26Z</time></trkpt><trkpt lat="59.3336263206" lon="29.5237057842"><ele>109.25</ele><time>2026-04-17T10:38:43Z</time></trkpt><trkpt lat="59.3336496223" lon="29.5236627851"><ele>109.25</ele><time>2026-04-17T10:38:47Z</time></trkpt><trkpt lat="59.3337129056" lon="29.5235675666"><ele>109.25</ele><time>2026-04-17T10:38:56Z</time></trkpt><trkpt lat="59.3337870855" lon="29.5233477093"><ele>109.25</ele><time>2026-04-17T10:39:09Z</time></trkpt><trkpt lat="59.3338087108" lon="29.5231442805"><ele>109.25</ele><time>2026-04-17T10:39:22Z</time></trkpt><trkpt lat="59.3337886781" lon="29.5230198093"><ele>110.21</ele><time>2026-04-17T10:39:34Z</time></trkpt><trkpt lat="59.3337785359" lon="29.5230382495"><ele>110.69</ele><time>2026-04-17T10:39:41Z</time></trkpt><trkpt lat="59.3337552343" lon="29.5230607130"><ele>110.69</ele><time>2026-04-17T10:39:44Z</time></trkpt><trkpt lat="59.3337370455" lon="29.5230850205"><ele>110.69</ele><time>2026-04-17T10:39:58Z</time></trkpt><trkpt lat="59.3337379675" lon="29.5230829250"><ele>109.73</ele><time>2026-04-17T10:40:16Z</time></trkpt><trkpt lat="59.3337252270" lon="29.5230695140"><ele>109.73</ele><time>2026-04-17T10:40:42Z</time></trkpt><trkpt lat="59.3336766958" lon="29.5230559353"><ele>109.73</ele><time>2026-04-17T10:40:50Z</time></trkpt><trkpt lat="59.3336251471" lon="29.5230374113"><ele>109.73</ele><time>2026-04-17T10:40:55Z</time></trkpt><trkpt lat="59.3335159309" lon="29.5229542628"><ele>109.73</ele><time>2026-04-17T10:41:10Z</time></trkpt><trkpt lat="59.3334628735" lon="29.5229074080"><ele>109.73</ele><time>2026-04-17T10:41:20Z</time></trkpt><trkpt lat="59.3333565909" lon="29.5228445437"><ele>109.73</ele><time>2026-04-17T10:41:32Z</time></trkpt><trkpt lat="59.3333086465" lon="29.5228248462"><ele>109.25</ele><time>2026-04-17T10:41:43Z</time></trkpt><trkpt lat="59.3332534935" lon="29.5228064060"><ele>109.25</ele><time>2026-04-17T10:41:56Z</time></trkpt><trkpt lat="59.3332391605" lon="29.5227428712"><ele>109.25</ele><time>2026-04-17T10:42:08Z</time></trkpt><trkpt lat="59.3332368974" lon="29.5227067452"><ele>109.25</ele><time>2026-04-17T10:42:24Z</time></trkpt><trkpt lat="59.3332687486" lon="29.5225973614"><ele>109.25</ele><time>2026-04-17T10:42:42Z</time></trkpt><trkpt lat="59.3332968280" lon="29.5225408673"><ele>109.25</ele><time>2026-04-17T10:42:47Z</time></trkpt><trkpt lat="59.3333664816" lon="29.5224396978"><ele>109.25</ele><time>2026-04-17T10:43:01Z</time></trkpt><trkpt lat="59.3334247358" lon="29.5222989656"><ele>109.25</ele><time>2026-04-17T10:43:14Z</time></trkpt><trkpt lat="59.3334608618" lon="29.5222252049"><ele>109.25</ele><time>2026-04-17T10:43:32Z</time></trkpt><trkpt lat="59.3334793858" lon="29.5222065132"><ele>109.25</ele><time>2026-04-17T10:43:42Z</time></trkpt><trkpt lat="59.3335248157" lon="29.5222598221"><ele>109.25</ele><time>2026-04-17T10:43:59Z</time></trkpt><trkpt lat="59.3336304277" lon="29.5223292243"><ele>109.25</ele><time>2026-04-17T10:44:11Z</time></trkpt><trkpt lat="59.3337098043" lon="29.5223651826"><ele>109.25</ele><time>2026-04-17T10:44:21Z</time></trkpt><trkpt lat="59.3337901868" lon="29.5222961158"><ele>109.25</ele><time>2026-04-17T10:44:31Z</time></trkpt><trkpt lat="59.3338084593" lon="29.5222916733"><ele>109.25</ele><time>2026-04-17T10:44:33Z</time></trkpt><trkpt lat="59.3338554818" lon="29.5223216806"><ele>109.25</ele><time>2026-04-17T10:44:38Z</time></trkpt><trkpt lat="59.3339585792" lon="29.5223557111"><ele>109.25</ele><time>2026-04-17T10:44:55Z</time></trkpt><trkpt lat="59.3339742534" lon="29.5223080181"><ele>109.25</ele><time>2026-04-17T10:45:20Z</time></trkpt><trkpt lat="59.3339686375" lon="29.5222201757"><ele>109.25</ele><time>2026-04-17T10:45:30Z</time></trkpt><trkpt lat="59.3339728285" lon="29.5221901685"><ele>108.77</ele><time>2026-04-17T10:45:43Z</time></trkpt><trkpt lat="59.3339828867" lon="29.5220333431"><ele>108.77</ele><time>2026-04-17T10:45:54Z</time></trkpt><trkpt lat="59.3340655323" lon="29.5217793714"><ele>108.77</ele><time>2026-04-17T10:46:10Z</time></trkpt><trkpt lat="59.3340717349" lon="29.5217629429"><ele>108.77</ele><time>2026-04-17T10:46:25Z</time></trkpt><trkpt lat="59.3340781890" lon="29.5217307564"><ele>108.77</ele><time>2026-04-17T10:46:48Z</time></trkpt><trkpt lat="59.3340392131" lon="29.5216781180"><ele>108.77</ele><time>2026-04-17T10:47:09Z</time></trkpt><trkpt lat="59.3340390455" lon="29.5216769446"><ele>108.77</ele><time>2026-04-17T10:47:10Z</time></trkpt><trkpt lat="59.3339673802" lon="29.5216595940"><ele>109.25</ele><time>2026-04-17T10:47:23Z</time></trkpt><trkpt lat="59.3338498659" lon="29.5216171816"><ele>109.25</ele><time>2026-04-17T10:47:38Z</time></trkpt><trkpt lat="59.3337572459" lon="29.5215463545"><ele>109.25</ele><time>2026-04-17T10:47:49Z</time></trkpt><trkpt lat="59.3337484449" lon="29.5215080492"><ele>109.25</ele><time>2026-04-17T10:48:03Z</time></trkpt><trkpt lat="59.3337595090" lon="29.5215005893"><ele>109.25</ele><time>2026-04-17T10:48:19Z</time></trkpt><trkpt lat="59.3338445015" lon="29.5213445183"><ele>109.25</ele><time>2026-04-17T10:48:33Z</time></trkpt><trkpt lat="59.3338738382" lon="29.5211775508"><ele>109.25</ele><time>2026-04-17T10:48:48Z</time></trkpt><trkpt lat="59.3339154962" lon="29.5211183745"><ele>108.77</ele><time>2026-04-17T10:49:00Z</time></trkpt><trkpt lat="59.3339301646" lon="29.5211063046"><ele>108.29</ele><time>2026-04-17T10:49:18Z</time></trkpt><trkpt lat="59.3339399714" lon="29.5210983418"><ele>108.29</ele><time>2026-04-17T10:49:47Z</time></trkpt><trkpt lat="59.3339414801" lon="29.5211025327"><ele>108.29</ele><time>2026-04-17T10:50:08Z</time></trkpt><trkpt lat="59.3339311704" lon="29.5211006049"><ele>108.29</ele><time>2026-04-17T10:50:35Z</time></trkpt><trkpt lat="59.3339450005" lon="29.5211185422"><ele>109.25</ele><time>2026-04-17T10:51:12Z</time></trkpt><trkpt lat="59.3339440785" lon="29.5211171173"><ele>109.25</ele><time>2026-04-17T10:51:40Z</time></trkpt><trkpt lat="59.3339429889" lon="29.5211164467"><ele>109.25</ele><time>2026-04-17T10:52:01Z</time></trkpt><trkpt lat="59.3339413125" lon="29.5211122558"><ele>109.25</ele><time>2026-04-17T10:52:25Z</time></trkpt><trkpt lat="59.3339333497" lon="29.5211159438"><ele>109.25</ele><time>2026-04-17T10:52:49Z</time></trkpt><trkpt lat="59.3339501973" lon="29.5210555941"><ele>109.25</ele><time>2026-04-17T10:53:10Z</time></trkpt><trkpt lat="59.3339931127" lon="29.5208887942"><ele>109.25</ele><time>2026-04-17T10:53:22Z</time></trkpt><trkpt lat="59.3340084516" lon="29.5208590385"><ele>109.25</ele><time>2026-04-17T10:53:38Z</time></trkpt><trkpt lat="59.3340092897" lon="29.5208585355"><ele>107.81</ele><time>2026-04-17T10:53:47Z</time></trkpt><trkpt lat="59.3340402190" lon="29.5208045561"><ele>107.32</ele><time>2026-04-17T10:54:06Z</time></trkpt><trkpt lat="59.3339289911" lon="29.5208645705"><ele>107.32</ele><time>2026-04-17T10:54:26Z</time></trkpt><trkpt lat="59.3338892609" lon="29.5209808275"><ele>107.32</ele><time>2026-04-17T10:54:49Z</time></trkpt><trkpt lat="59.3339066114" lon="29.5209990162"><ele>107.32</ele><time>2026-04-17T10:55:09Z</time></trkpt><trkpt lat="59.3339212798" lon="29.5208278578"><ele>107.32</ele><time>2026-04-17T10:55:39Z</time></trkpt><trkpt lat="59.3339237943" lon="29.5208045561"><ele>107.32</ele><time>2026-04-17T10:56:01Z</time></trkpt><trkpt lat="59.3339051865" lon="29.5207870379"><ele>107.32</ele><time>2026-04-17T10:56:20Z</time></trkpt><trkpt lat="59.3339496106" lon="29.5209044684"><ele>107.32</ele><time>2026-04-17T10:56:37Z</time></trkpt><trkpt lat="59.3340425659" lon="29.5208583679"><ele>107.32</ele><time>2026-04-17T10:56:55Z</time></trkpt><trkpt lat="59.3340534624" lon="29.5208896324"><ele>107.32</ele><time>2026-04-17T10:57:10Z</time></trkpt><trkpt lat="59.3340609223" lon="29.5208747126"><ele>107.32</ele><time>2026-04-17T10:57:29Z</time></trkpt><trkpt lat="59.3340834696" lon="29.5208666660"><ele>107.81</ele><time>2026-04-17T10:57:51Z</time></trkpt><trkpt lat="59.3341138959" lon="29.5207681786"><ele>107.81</ele><time>2026-04-17T10:58:05Z</time></trkpt><trkpt lat="59.3341569789" lon="29.5206660032"><ele>107.81</ele><time>2026-04-17T10:58:18Z</time></trkpt><trkpt lat="59.3341462500" lon="29.5205954276"><ele>107.81</ele><time>2026-04-17T10:58:27Z</time></trkpt><trkpt lat="59.3341472559" lon="29.5205902308"><ele>107.81</ele><time>2026-04-17T10:58:28Z</time></trkpt><trkpt lat="59.3341001496" lon="29.5205401070"><ele>107.81</ele><time>2026-04-17T10:58:40Z</time></trkpt><trkpt lat="59.3340696394" lon="29.5205550268"><ele>107.81</ele><time>2026-04-17T10:58:52Z</time></trkpt><trkpt lat="59.3340536300" lon="29.5206840243"><ele>107.81</ele><time>2026-04-17T10:59:04Z</time></trkpt><trkpt lat="59.3339903466" lon="29.5208488125"><ele>107.81</ele><time>2026-04-17T10:59:17Z</time></trkpt><trkpt lat="59.3339866586" lon="29.5208436996"><ele>107.81</ele><time>2026-04-17T10:59:32Z</time></trkpt><trkpt lat="59.3339683861" lon="29.5208607148"><ele>107.81</ele><time>2026-04-17T10:59:43Z</time></trkpt><trkpt lat="59.3339451682" lon="29.5208914764"><ele>107.81</ele><time>2026-04-17T10:59:53Z</time></trkpt><trkpt lat="59.3339355290" lon="29.5209263451"><ele>107.81</ele><time>2026-04-17T10:59:58Z</time></trkpt><trkpt lat="59.3338753469" lon="29.5210472122"><ele>107.81</ele><time>2026-04-17T11:00:07Z</time></trkpt><trkpt lat="59.3338168412" lon="29.5210745372"><ele>107.81</ele><time>2026-04-17T11:00:18Z</time></trkpt><trkpt lat="59.3337970600" lon="29.5211020298"><ele>107.81</ele><time>2026-04-17T11:00:28Z</time></trkpt><trkpt lat="59.3337486126" lon="29.5210973360"><ele>108.29</ele><time>2026-04-17T11:00:53Z</time></trkpt><trkpt lat="59.3337416556" lon="29.5211128425"><ele>108.29</ele><time>2026-04-17T11:01:03Z</time></trkpt><trkpt lat="59.3337356206" lon="29.5211020298"><ele>108.29</ele><time>2026-04-17T11:01:17Z</time></trkpt><trkpt lat="59.3337202817" lon="29.5210706815"><ele>108.29</ele><time>2026-04-17T11:01:31Z</time></trkpt><trkpt lat="59.3337010033" lon="29.5210418478"><ele>108.29</ele><time>2026-04-17T11:01:47Z</time></trkpt><trkpt lat="59.3336441740" lon="29.5210645627"><ele>108.29</ele><time>2026-04-17T11:01:54Z</time></trkpt><trkpt lat="59.3335463572" lon="29.5210810751"><ele>108.29</ele><time>2026-04-17T11:02:05Z</time></trkpt><trkpt lat="59.3334523961" lon="29.5210662391"><ele>108.29</ele><time>2026-04-17T11:02:17Z</time></trkpt><trkpt lat="59.3332952354" lon="29.5210934803"><ele>108.29</ele><time>2026-04-17T11:02:31Z</time></trkpt><trkpt lat="59.3332597800" lon="29.5212387387"><ele>108.29</ele><time>2026-04-17T11:02:45Z</time></trkpt><trkpt lat="59.3332708441" lon="29.5213738550"><ele>108.29</ele><time>2026-04-17T11:02:56Z</time></trkpt><trkpt lat="59.3332888652" lon="29.5214842446"><ele>108.29</ele><time>2026-04-17T11:03:09Z</time></trkpt><trkpt lat="59.3332087342" lon="29.5215718355"><ele>108.29</ele><time>2026-04-17T11:03:22Z</time></trkpt><trkpt lat="59.3331993464" lon="29.5215758588"><ele>108.77</ele><time>2026-04-17T11:03:23Z</time></trkpt><trkpt lat="59.3330886215" lon="29.5216772798"><ele>109.25</ele><time>2026-04-17T11:03:36Z</time></trkpt><trkpt lat="59.3330727797" lon="29.5216660481"><ele>109.25</ele><time>2026-04-17T11:03:50Z</time></trkpt><trkpt lat="59.3330562674" lon="29.5216580015"><ele>109.25</ele><time>2026-04-17T11:03:55Z</time></trkpt><trkpt lat="59.3329191394" lon="29.5216575824"><ele>109.25</ele><time>2026-04-17T11:04:06Z</time></trkpt><trkpt lat="59.3328320514" lon="29.5217321813"><ele>109.25</ele><time>2026-04-17T11:04:18Z</time></trkpt><trkpt lat="59.3328226637" lon="29.5216833148"><ele>109.25</ele><time>2026-04-17T11:04:30Z</time></trkpt><trkpt lat="59.3327735458" lon="29.5215315185"><ele>109.25</ele><time>2026-04-17T11:04:43Z</time></trkpt><trkpt lat="59.3327380903" lon="29.5215585921"><ele>109.25</ele><time>2026-04-17T11:04:48Z</time></trkpt><trkpt lat="59.3326987792" lon="29.5215741824"><ele>109.25</ele><time>2026-04-17T11:05:00Z</time></trkpt><trkpt lat="59.3326493260" lon="29.5215375535"><ele>108.77</ele><time>2026-04-17T11:05:05Z</time></trkpt><trkpt lat="59.3326139543" lon="29.5214039460"><ele>108.77</ele><time>2026-04-17T11:05:18Z</time></trkpt><trkpt lat="59.3326272815" lon="29.5213484578"><ele>108.77</ele><time>2026-04-17T11:05:31Z</time></trkpt><trkpt lat="59.3326595519" lon="29.5211877767"><ele>108.77</ele><time>2026-04-17T11:05:43Z</time></trkpt><trkpt lat="59.3326595519" lon="29.5211560093"><ele>108.77</ele><time>2026-04-17T11:05:56Z</time></trkpt><trkpt lat="59.3326957617" lon="29.5210907143"><ele>108.77</ele><time>2026-04-17T11:06:09Z</time></trkpt><trkpt lat="59.3327295408" lon="29.5208952483"><ele>108.77</ele><time>2026-04-17T11:06:22Z</time></trkpt><trkpt lat="59.3327777367" lon="29.5206542686"><ele>108.77</ele><time>2026-04-17T11:06:36Z</time></trkpt><trkpt lat="59.3328200653" lon="29.5204738900"><ele>108.77</ele><time>2026-04-17T11:06:49Z</time></trkpt><trkpt lat="59.3328602146" lon="29.5203032345"><ele>108.77</ele><time>2026-04-17T11:07:02Z</time></trkpt><trkpt lat="59.3329256773" lon="29.5200448204"><ele>108.77</ele><time>2026-04-17T11:07:17Z</time></trkpt><trkpt lat="59.3329499010" lon="29.5199200977"><ele>108.77</ele><time>2026-04-17T11:07:29Z</time></trkpt><trkpt lat="59.3329645693" lon="29.5198279805"><ele>108.77</ele><time>2026-04-17T11:07:42Z</time></trkpt><trkpt lat="59.3329721130" lon="29.5197495259"><ele>108.77</ele><time>2026-04-17T11:08:10Z</time></trkpt><trkpt lat="59.3330202252" lon="29.5196159184"><ele>108.77</ele><time>2026-04-17T11:08:22Z</time></trkpt><trkpt lat="59.3330596201" lon="29.5194569975"><ele>108.77</ele><time>2026-04-17T11:08:33Z</time></trkpt><trkpt lat="59.3331108335" lon="29.5193192828"><ele>108.29</ele><time>2026-04-17T11:08:45Z</time></trkpt><trkpt lat="59.3331296928" lon="29.5191999245"><ele>108.29</ele><time>2026-04-17T11:08:55Z</time></trkpt><trkpt lat="59.3331379071" lon="29.5190701727"><ele>108.29</ele><time>2026-04-17T11:09:05Z</time></trkpt><trkpt lat="59.3331473786" lon="29.5190327894"><ele>108.29</ele><time>2026-04-17T11:09:19Z</time></trkpt><trkpt lat="59.3331728596" lon="29.5190745313"><ele>108.29</ele><time>2026-04-17T11:09:32Z</time></trkpt><trkpt lat="59.3332311139" lon="29.5191611163"><ele>108.29</ele><time>2026-04-17T11:09:48Z</time></trkpt><trkpt lat="59.3332467880" lon="29.5192041993"><ele>108.29</ele><time>2026-04-17T11:10:06Z</time></trkpt><trkpt lat="59.3332485482" lon="29.5192051213"><ele>108.29</ele><time>2026-04-17T11:10:08Z</time></trkpt><trkpt lat="59.3332447764" lon="29.5192423370"><ele>108.29</ele><time>2026-04-17T11:10:19Z</time></trkpt><trkpt lat="59.3332710117" lon="29.5193109009"><ele>108.29</ele><time>2026-04-17T11:10:28Z</time></trkpt><trkpt lat="59.3333021086" lon="29.5193996653"><ele>108.29</ele><time>2026-04-17T11:10:40Z</time></trkpt><trkpt lat="59.3333777133" lon="29.5194753539"><ele>108.29</ele><time>2026-04-17T11:10:53Z</time></trkpt><trkpt lat="59.3334720097" lon="29.5196352806"><ele>108.29</ele><time>2026-04-17T11:11:10Z</time></trkpt><trkpt lat="59.3334826548" lon="29.5196382981"><ele>108.29</ele><time>2026-04-17T11:11:22Z</time></trkpt><trkpt lat="59.3334795535" lon="29.5196459256"><ele>108.29</ele><time>2026-04-17T11:11:35Z</time></trkpt><trkpt lat="59.3334269151" lon="29.5196973067"><ele>108.29</ele><time>2026-04-17T11:11:48Z</time></trkpt><trkpt lat="59.3333722651" lon="29.5197595842"><ele>108.29</ele><time>2026-04-17T11:11:59Z</time></trkpt><trkpt lat="59.3332563434" lon="29.5198590774"><ele>108.29</ele><time>2026-04-17T11:12:10Z</time></trkpt><trkpt lat="59.3332124222" lon="29.5199346822"><ele>108.29</ele><time>2026-04-17T11:12:24Z</time></trkpt><trkpt lat="59.3331993464" lon="29.5199723169"><ele>108.29</ele><time>2026-04-17T11:12:41Z</time></trkpt><trkpt lat="59.3331757095" lon="29.5200361870"><ele>108.29</ele><time>2026-04-17T11:12:55Z</time></trkpt><trkpt lat="59.3331641424" lon="29.5201568026"><ele>108.29</ele><time>2026-04-17T11:13:10Z</time></trkpt><trkpt lat="59.3331750389" lon="29.5202992111"><ele>106.84</ele><time>2026-04-17T11:13:22Z</time></trkpt><trkpt lat="59.3332182895" lon="29.5203568786"><ele>106.84</ele><time>2026-04-17T11:13:34Z</time></trkpt><trkpt lat="59.3332698382" lon="29.5203741454"><ele>106.84</ele><time>2026-04-17T11:13:51Z</time></trkpt><trkpt lat="59.3332812376" lon="29.5203667693"><ele>106.84</ele><time>2026-04-17T11:14:04Z</time></trkpt><trkpt lat="59.3333959021" lon="29.5202956069"><ele>106.84</ele><time>2026-04-17T11:14:16Z</time></trkpt><trkpt lat="59.3335155118" lon="29.5201492589"><ele>106.84</ele><time>2026-04-17T11:14:29Z</time></trkpt><trkpt lat="59.3336010911" lon="29.5200834610"><ele>106.84</ele><time>2026-04-17T11:14:40Z</time></trkpt><trkpt lat="59.3336338643" lon="29.5200729836"><ele>106.84</ele><time>2026-04-17T11:14:55Z</time></trkpt><trkpt lat="59.3336713314" lon="29.5200112928"><ele>106.36</ele><time>2026-04-17T11:15:06Z</time></trkpt><trkpt lat="59.3336968124" lon="29.5199880749"><ele>106.36</ele><time>2026-04-17T11:15:21Z</time></trkpt><trkpt lat="59.3337346986" lon="29.5199739933"><ele>106.36</ele><time>2026-04-17T11:15:34Z</time></trkpt><trkpt lat="59.3337496184" lon="29.5199557208"><ele>106.36</ele><time>2026-04-17T11:15:50Z</time></trkpt><trkpt lat="59.3337808829" lon="29.5198998973"><ele>106.36</ele><time>2026-04-17T11:16:05Z</time></trkpt><trkpt lat="59.3338027596" lon="29.5198381227"><ele>106.36</ele><time>2026-04-17T11:16:20Z</time></trkpt><trkpt lat="59.3338190205" lon="29.5198029187"><ele>106.36</ele><time>2026-04-17T11:16:35Z</time></trkpt><trkpt lat="59.3338357005" lon="29.5197694749"><ele>106.36</ele><time>2026-04-17T11:16:48Z</time></trkpt><trkpt lat="59.3338623550" lon="29.5197339356"><ele>106.36</ele><time>2026-04-17T11:17:04Z</time></trkpt><trkpt lat="59.3338786159" lon="29.5196992345"><ele>106.36</ele><time>2026-04-17T11:17:16Z</time></trkpt><trkpt lat="59.3338928651" lon="29.5197005756"><ele>106.84</ele><time>2026-04-17T11:17:27Z</time></trkpt><trkpt lat="59.3339131493" lon="29.5196859073"><ele>106.84</ele><time>2026-04-17T11:17:43Z</time></trkpt><trkpt lat="59.3339190166" lon="29.5196835604"><ele>106.84</ele><time>2026-04-17T11:17:55Z</time></trkpt><trkpt lat="59.3339295778" lon="29.5196740050"><ele>106.84</ele><time>2026-04-17T11:18:07Z</time></trkpt><trkpt lat="59.3339431565" lon="29.5196678862"><ele>106.84</ele><time>2026-04-17T11:18:22Z</time></trkpt><trkpt lat="59.3339638598" lon="29.5196557324"><ele>106.84</ele><time>2026-04-17T11:18:38Z</time></trkpt><trkpt lat="59.3339662906" lon="29.5196329337"><ele>106.84</ele><time>2026-04-17T11:18:56Z</time></trkpt><trkpt lat="59.3339688890" lon="29.5196066983"><ele>106.84</ele><time>2026-04-17T11:19:12Z</time></trkpt><trkpt lat="59.3339663744" lon="29.5196142420"><ele>106.84</ele><time>2026-04-17T11:19:38Z</time></trkpt><trkpt lat="59.3339641951" lon="29.5196108893"><ele>107.32</ele><time>2026-04-17T11:20:09Z</time></trkpt><trkpt lat="59.3339606747" lon="29.5195952989"><ele>107.32</ele><time>2026-04-17T11:20:26Z</time></trkpt><trkpt lat="59.3339897599" lon="29.5195434149"><ele>107.32</ele><time>2026-04-17T11:20:36Z</time></trkpt><trkpt lat="59.3340326753" lon="29.5194585901"><ele>107.32</ele><time>2026-04-17T11:20:47Z</time></trkpt><trkpt lat="59.3340739980" lon="29.5194370486"><ele>106.36</ele><time>2026-04-17T11:20:56Z</time></trkpt><trkpt lat="59.3341046758" lon="29.5194638707"><ele>106.84</ele><time>2026-04-17T11:21:09Z</time></trkpt><trkpt lat="59.3341133930" lon="29.5194908604"><ele>106.84</ele><time>2026-04-17T11:21:23Z</time></trkpt><trkpt lat="59.3341231998" lon="29.5195502881"><ele>106.84</ele><time>2026-04-17T11:21:37Z</time></trkpt><trkpt lat="59.3341230322" lon="29.5195710752"><ele>106.84</ele><time>2026-04-17T11:21:38Z</time></trkpt><trkpt lat="59.3341863994" lon="29.5197177585"><ele>106.84</ele><time>2026-04-17T11:21:49Z</time></trkpt><trkpt lat="59.3342192564" lon="29.5196788665"><ele>106.84</ele><time>2026-04-17T11:22:03Z</time></trkpt><trkpt lat="59.3342656922" lon="29.5197087061"><ele>106.84</ele><time>2026-04-17T11:22:17Z</time></trkpt><trkpt lat="59.3343360163" lon="29.5197923575"><ele>106.84</ele><time>2026-04-17T11:22:28Z</time></trkpt><trkpt lat="59.3343494274" lon="29.5197810419"><ele>106.84</ele><time>2026-04-17T11:22:32Z</time></trkpt><trkpt lat="59.3343838770" lon="29.5198456664"><ele>106.84</ele><time>2026-04-17T11:22:44Z</time></trkpt><trkpt lat="59.3343974557" lon="29.5198801160"><ele>106.84</ele><time>2026-04-17T11:22:47Z</time></trkpt><trkpt lat="59.3344377726" lon="29.5199760050"><ele>106.84</ele><time>2026-04-17T11:22:57Z</time></trkpt><trkpt lat="59.3344417959" lon="29.5200842991"><ele>106.84</ele><time>2026-04-17T11:23:04Z</time></trkpt><trkpt lat="59.3344823644" lon="29.5202497579"><ele>106.84</ele><time>2026-04-17T11:23:16Z</time></trkpt><trkpt lat="59.3344658520" lon="29.5204598084"><ele>106.84</ele><time>2026-04-17T11:23:27Z</time></trkpt><trkpt lat="59.3344501778" lon="29.5205850340"><ele>106.84</ele><time>2026-04-17T11:23:39Z</time></trkpt><trkpt lat="59.3344176561" lon="29.5207483973"><ele>106.84</ele><time>2026-04-17T11:23:50Z</time></trkpt><trkpt lat="59.3344000541" lon="29.5208811667"><ele>106.84</ele><time>2026-04-17T11:24:01Z</time></trkpt><trkpt lat="59.3343865592" lon="29.5210104994"><ele>106.84</ele><time>2026-04-17T11:24:13Z</time></trkpt><trkpt lat="59.3343855534" lon="29.5210656524"><ele>107.32</ele><time>2026-04-17T11:24:42Z</time></trkpt><trkpt lat="59.3343786802" lon="29.5211431012"><ele>107.32</ele><time>2026-04-17T11:24:55Z</time></trkpt><trkpt lat="59.3343909178" lon="29.5211777184"><ele>107.32</ele><time>2026-04-17T11:25:01Z</time></trkpt><trkpt lat="59.3344232719" lon="29.5213580132"><ele>107.32</ele><time>2026-04-17T11:25:13Z</time></trkpt><trkpt lat="59.3344561290" lon="29.5214594342"><ele>107.32</ele><time>2026-04-17T11:25:23Z</time></trkpt><trkpt lat="59.3345252797" lon="29.5213763695"><ele>107.32</ele><time>2026-04-17T11:25:34Z</time></trkpt><trkpt lat="59.3345362600" lon="29.5213415008"><ele>107.32</ele><time>2026-04-17T11:25:39Z</time></trkpt><trkpt lat="59.3345560413" lon="29.5211905427"><ele>107.32</ele><time>2026-04-17T11:25:51Z</time></trkpt><trkpt lat="59.3345751520" lon="29.5210978389"><ele>107.32</ele><time>2026-04-17T11:26:03Z</time></trkpt><trkpt lat="59.3346004654" lon="29.5210078172"><ele>107.32</ele><time>2026-04-17T11:26:14Z</time></trkpt><trkpt lat="59.3346646708" lon="29.5207958389"><ele>107.32</ele><time>2026-04-17T11:26:26Z</time></trkpt><trkpt lat="59.3347316422" lon="29.5206251834"><ele>107.32</ele><time>2026-04-17T11:26:39Z</time></trkpt><trkpt lat="59.3347485736" lon="29.5205836091"><ele>107.32</ele><time>2026-04-17T11:26:51Z</time></trkpt><trkpt lat="59.3347530160" lon="29.5205562003"><ele>107.32</ele><time>2026-04-17T11:27:13Z</time></trkpt><trkpt lat="59.3347638287" lon="29.5205223374"><ele>107.32</ele><time>2026-04-17T11:27:34Z</time></trkpt><trkpt lat="59.3347933330" lon="29.5204294659"><ele>107.32</ele><time>2026-04-17T11:27:49Z</time></trkpt><trkpt lat="59.3348545209" lon="29.5202535298"><ele>107.32</ele><time>2026-04-17T11:28:01Z</time></trkpt><trkpt lat="59.3348525930" lon="29.5202521887"><ele>108.77</ele><time>2026-04-17T11:28:29Z</time></trkpt><trkpt lat="59.3348614778" lon="29.5202465728"><ele>108.77</ele><time>2026-04-17T11:29:00Z</time></trkpt><trkpt lat="59.3348897249" lon="29.5201059245"><ele>108.77</ele><time>2026-04-17T11:29:13Z</time></trkpt><trkpt lat="59.3349045608" lon="29.5199564751"><ele>108.77</ele><time>2026-04-17T11:29:24Z</time></trkpt><trkpt lat="59.3349345680" lon="29.5197085384"><ele>107.32</ele><time>2026-04-17T11:29:36Z</time></trkpt><trkpt lat="59.3349783216" lon="29.5195019245"><ele>107.32</ele><time>2026-04-17T11:29:49Z</time></trkpt><trkpt lat="59.3350113463" lon="29.5194393117"><ele>107.32</ele><time>2026-04-17T11:29:57Z</time></trkpt><trkpt lat="59.3350850232" lon="29.5192870125"><ele>107.32</ele><time>2026-04-17T11:30:09Z</time></trkpt><trkpt lat="59.3351260107" lon="29.5191980805"><ele>107.32</ele><time>2026-04-17T11:30:20Z</time></trkpt><trkpt lat="59.3351382483" lon="29.5191074722"><ele>107.32</ele><time>2026-04-17T11:30:31Z</time></trkpt><trkpt lat="59.3351886235" lon="29.5189293567"><ele>107.32</ele><time>2026-04-17T11:30:43Z</time></trkpt><trkpt lat="59.3352198042" lon="29.5187661611"><ele>107.32</ele><time>2026-04-17T11:30:57Z</time></trkpt><trkpt lat="59.3352642283" lon="29.5186371636"><ele>107.32</ele><time>2026-04-17T11:31:12Z</time></trkpt><trkpt lat="59.3352437764" lon="29.5185089204"><ele>107.32</ele><time>2026-04-17T11:31:23Z</time></trkpt><trkpt lat="59.3352638930" lon="29.5183734689"><ele>107.32</ele><time>2026-04-17T11:31:35Z</time></trkpt><trkpt lat="59.3352756277" lon="29.5182919130"><ele>107.32</ele><time>2026-04-17T11:31:46Z</time></trkpt><trkpt lat="59.3353322055" lon="29.5181088522"><ele>108.29</ele><time>2026-04-17T11:31:59Z</time></trkpt><trkpt lat="59.3353890348" lon="29.5179777592"><ele>108.29</ele><time>2026-04-17T11:32:14Z</time></trkpt><trkpt lat="59.3353992607" lon="29.5179594867"><ele>108.29</ele><time>2026-04-17T11:32:20Z</time></trkpt><trkpt lat="59.3354582693" lon="29.5177521184"><ele>108.29</ele><time>2026-04-17T11:32:31Z</time></trkpt><trkpt lat="59.3354951497" lon="29.5175040141"><ele>108.29</ele><time>2026-04-17T11:32:45Z</time></trkpt><trkpt lat="59.3355228938" lon="29.5173882600"><ele>108.29</ele><time>2026-04-17T11:32:55Z</time></trkpt><trkpt lat="59.3355470337" lon="29.5172887668"><ele>108.29</ele><time>2026-04-17T11:33:12Z</time></trkpt><trkpt lat="59.3355512246" lon="29.5172615256"><ele>108.29</ele><time>2026-04-17T11:33:14Z</time></trkpt><trkpt lat="59.3355875183" lon="29.5171673968"><ele>108.29</ele><time>2026-04-17T11:33:25Z</time></trkpt><trkpt lat="59.3356538191" lon="29.5169368945"><ele>108.29</ele><time>2026-04-17T11:33:39Z</time></trkpt><trkpt lat="59.3356623687" lon="29.5169232320"><ele>108.29</ele><time>2026-04-17T11:33:40Z</time></trkpt><trkpt lat="59.3357198685" lon="29.5166983455"><ele>108.29</ele><time>2026-04-17T11:33:54Z</time></trkpt><trkpt lat="59.3357607722" lon="29.5165954158"><ele>108.29</ele><time>2026-04-17T11:34:06Z</time></trkpt><trkpt lat="59.3357632030" lon="29.5165331382"><ele>107.32</ele><time>2026-04-17T11:34:21Z</time></trkpt><trkpt lat="59.3357642926" lon="29.5165267680"><ele>107.32</ele><time>2026-04-17T11:34:22Z</time></trkpt><trkpt lat="59.3357937969" lon="29.5163498260"><ele>107.32</ele><time>2026-04-17T11:34:35Z</time></trkpt><trkpt lat="59.3358099740" lon="29.5163218305"><ele>107.32</ele><time>2026-04-17T11:34:52Z</time></trkpt><trkpt lat="59.3358595110" lon="29.5161991194"><ele>107.32</ele><time>2026-04-17T11:35:06Z</time></trkpt><trkpt lat="59.3358890153" lon="29.5161883067"><ele>107.32</ele><time>2026-04-17T11:35:24Z</time></trkpt><trkpt lat="59.3359263148" lon="29.5161021408"><ele>107.32</ele><time>2026-04-17T11:35:39Z</time></trkpt><trkpt lat="59.3359716609" lon="29.5159786753"><ele>107.32</ele><time>2026-04-17T11:35:50Z</time></trkpt><trkpt lat="59.3359955493" lon="29.5158987958"><ele>107.32</ele><time>2026-04-17T11:36:03Z</time></trkpt><trkpt lat="59.3360027578" lon="29.5157081913"><ele>107.32</ele><time>2026-04-17T11:36:18Z</time></trkpt><trkpt lat="59.3359879218" lon="29.5156423096"><ele>107.32</ele><time>2026-04-17T11:36:36Z</time></trkpt><trkpt lat="59.3359709904" lon="29.5156441536"><ele>107.32</ele><time>2026-04-17T11:37:00Z</time></trkpt><trkpt lat="59.3359470181" lon="29.5155703090"><ele>107.32</ele><time>2026-04-17T11:37:12Z</time></trkpt><trkpt lat="59.3359108921" lon="29.5155403856"><ele>107.32</ele><time>2026-04-17T11:37:25Z</time></trkpt><trkpt lat="59.3358418252" lon="29.5155078638"><ele>107.32</ele><time>2026-04-17T11:37:38Z</time></trkpt><trkpt lat="59.3358185235" lon="29.5155092049"><ele>107.32</ele><time>2026-04-17T11:37:55Z</time></trkpt><trkpt lat="59.3357691541" lon="29.5155983046"><ele>107.32</ele><time>2026-04-17T11:38:05Z</time></trkpt><trkpt lat="59.3357352074" lon="29.5156381186"><ele>107.32</ele><time>2026-04-17T11:38:10Z</time></trkpt><trkpt lat="59.3356733490" lon="29.5156578161"><ele>107.32</ele><time>2026-04-17T11:38:22Z</time></trkpt><trkpt lat="59.3356175255" lon="29.5157654397"><ele>107.32</ele><time>2026-04-17T11:38:34Z</time></trkpt><trkpt lat="59.3355633784" lon="29.5158691239"><ele>107.32</ele><time>2026-04-17T11:38:54Z</time></trkpt><trkpt lat="59.3355477042" lon="29.5159872249"><ele>107.32</ele><time>2026-04-17T11:39:07Z</time></trkpt><trkpt lat="59.3354873545" lon="29.5162080042"><ele>107.32</ele><time>2026-04-17T11:39:18Z</time></trkpt><trkpt lat="59.3354150187" lon="29.5162773225"><ele>107.32</ele><time>2026-04-17T11:39:28Z</time></trkpt><trkpt lat="59.3354008533" lon="29.5162830222"><ele>107.32</ele><time>2026-04-17T11:39:30Z</time></trkpt><trkpt lat="59.3353526574" lon="29.5162194874"><ele>107.32</ele><time>2026-04-17T11:39:38Z</time></trkpt><trkpt lat="59.3353635538" lon="29.5160432160"><ele>107.32</ele><time>2026-04-17T11:39:49Z</time></trkpt><trkpt lat="59.3353551719" lon="29.5159915835"><ele>107.32</ele><time>2026-04-17T11:39:59Z</time></trkpt><trkpt lat="59.3353429344" lon="29.5160262845"><ele>107.32</ele><time>2026-04-17T11:40:18Z</time></trkpt><trkpt lat="59.3353072274" lon="29.5161482412"><ele>107.32</ele><time>2026-04-17T11:40:32Z</time></trkpt><trkpt lat="59.3352819979" lon="29.5163033064"><ele>107.32</ele><time>2026-04-17T11:40:45Z</time></trkpt><trkpt lat="59.3352535833" lon="29.5164918154"><ele>107.32</ele><time>2026-04-17T11:40:54Z</time></trkpt><trkpt lat="59.3352570198" lon="29.5165763050"><ele>107.32</ele><time>2026-04-17T11:41:00Z</time></trkpt><trkpt lat="59.3352215644" lon="29.5166538376"><ele>107.32</ele><time>2026-04-17T11:41:04Z</time></trkpt><trkpt lat="59.3352020346" lon="29.5167764649"><ele>107.32</ele><time>2026-04-17T11:41:12Z</time></trkpt><trkpt lat="59.3351715244" lon="29.5170221385"><ele>107.32</ele><time>2026-04-17T11:41:25Z</time></trkpt><trkpt lat="59.3351631425" lon="29.5171466097"><ele>107.32</ele><time>2026-04-17T11:41:35Z</time></trkpt><trkpt lat="59.3351324648" lon="29.5173388906"><ele>106.36</ele><time>2026-04-17T11:41:47Z</time></trkpt><trkpt lat="59.3350953329" lon="29.5174524654"><ele>105.88</ele><time>2026-04-17T11:41:52Z</time></trkpt><trkpt lat="59.3350319657" lon="29.5175735839"><ele>106.36</ele><time>2026-04-17T11:42:04Z</time></trkpt><trkpt lat="59.3350189738" lon="29.5176014956"><ele>106.36</ele><time>2026-04-17T11:42:16Z</time></trkpt><trkpt lat="59.3349763099" lon="29.5176938642"><ele>106.36</ele><time>2026-04-17T11:42:28Z</time></trkpt><trkpt lat="59.3349043094" lon="29.5178378653"><ele>106.36</ele><time>2026-04-17T11:42:39Z</time></trkpt><trkpt lat="59.3348363321" lon="29.5179779269"><ele>106.36</ele><time>2026-04-17T11:42:51Z</time></trkpt><trkpt lat="59.3348140363" lon="29.5180095267"><ele>106.36</ele><time>2026-04-17T11:42:57Z</time></trkpt><trkpt lat="59.3348040618" lon="29.5181624964"><ele>106.36</ele><time>2026-04-17T11:43:07Z</time></trkpt><trkpt lat="59.3347639125" lon="29.5184468105"><ele>106.36</ele><time>2026-04-17T11:43:19Z</time></trkpt><trkpt lat="59.3347617332" lon="29.5185136143"><ele>106.36</ele><time>2026-04-17T11:43:32Z</time></trkpt><trkpt lat="59.3347528484" lon="29.5185078308"><ele>106.36</ele><time>2026-04-17T11:43:49Z</time></trkpt><trkpt lat="59.3347444665" lon="29.5185028017"><ele>106.36</ele><time>2026-04-17T11:44:02Z</time></trkpt><trkpt lat="59.3347417004" lon="29.5185381733"><ele>106.36</ele><time>2026-04-17T11:44:33Z</time></trkpt><trkpt lat="59.3347685225" lon="29.5185265224"><ele>106.36</ele><time>2026-04-17T11:45:10Z</time></trkpt><trkpt lat="59.3347685225" lon="29.5185328089"><ele>106.36</ele><time>2026-04-17T11:45:15Z</time></trkpt><trkpt lat="59.3347696960" lon="29.5185375866"><ele>106.36</ele><time>2026-04-17T11:45:25Z</time></trkpt><trkpt lat="59.3347730488" lon="29.5185341500"><ele>106.36</ele><time>2026-04-17T11:45:35Z</time></trkpt><trkpt lat="59.3347753957" lon="29.5185445435"><ele>106.36</ele><time>2026-04-17T11:45:58Z</time></trkpt><trkpt lat="59.3347754795" lon="29.5185432862"><ele>106.36</ele><time>2026-04-17T11:46:22Z</time></trkpt><trkpt lat="59.3347749766" lon="29.5185395982"><ele>106.36</ele><time>2026-04-17T11:46:43Z</time></trkpt><trkpt lat="59.3347745575" lon="29.5185461361"><ele>106.36</ele><time>2026-04-17T11:47:06Z</time></trkpt><trkpt lat="59.3347733840" lon="29.5185427833"><ele>106.84</ele><time>2026-04-17T11:47:30Z</time></trkpt><trkpt lat="59.3347657565" lon="29.5185557753"><ele>106.84</ele><time>2026-04-17T11:48:00Z</time></trkpt><trkpt lat="59.3347725458" lon="29.5185533445"><ele>106.84</ele><time>2026-04-17T11:48:31Z</time></trkpt><trkpt lat="59.3347687740" lon="29.5185590442"><ele>106.84</ele><time>2026-04-17T11:49:04Z</time></trkpt><trkpt lat="59.3347667623" lon="29.5185644925"><ele>107.32</ele><time>2026-04-17T11:49:32Z</time></trkpt><trkpt lat="59.3347684387" lon="29.5185660012"><ele>107.32</ele><time>2026-04-17T11:50:02Z</time></trkpt><trkpt lat="59.3347614817" lon="29.5185685996"><ele>107.32</ele><time>2026-04-17T11:50:36Z</time></trkpt><trkpt lat="59.3347593863" lon="29.5185697731"><ele>107.81</ele><time>2026-04-17T11:51:06Z</time></trkpt><trkpt lat="59.3347613141" lon="29.5185691863"><ele>107.81</ele><time>2026-04-17T11:51:33Z</time></trkpt><trkpt lat="59.3347556982" lon="29.5185960084"><ele>108.77</ele><time>2026-04-17T11:51:48Z</time></trkpt><trkpt lat="59.3347455561" lon="29.5186026301"><ele>109.25</ele><time>2026-04-17T11:52:00Z</time></trkpt><trkpt lat="59.3347007968" lon="29.5187017880"><ele>109.25</ele><time>2026-04-17T11:52:12Z</time></trkpt><trkpt lat="59.3346691132" lon="29.5187740400"><ele>109.25</ele><time>2026-04-17T11:52:17Z</time></trkpt><trkpt lat="59.3345864676" lon="29.5189585257"><ele>109.25</ele><time>2026-04-17T11:52:31Z</time></trkpt><trkpt lat="59.3345523532" lon="29.5190638024"><ele>109.25</ele><time>2026-04-17T11:52:39Z</time></trkpt><trkpt lat="59.3345172331" lon="29.5191875193"><ele>109.25</ele><time>2026-04-17T11:52:49Z</time></trkpt><trkpt lat="59.3345087674" lon="29.5192463603"><ele>109.25</ele><time>2026-04-17T11:53:02Z</time></trkpt><trkpt lat="59.3344981223" lon="29.5192367211"><ele>109.25</ele><time>2026-04-17T11:53:21Z</time></trkpt><trkpt lat="59.3344552070" lon="29.5191244874"><ele>109.25</ele><time>2026-04-17T11:53:32Z</time></trkpt><trkpt lat="59.3344202545" lon="29.5190156065"><ele>109.25</ele><time>2026-04-17T11:53:42Z</time></trkpt><trkpt lat="59.3343979586" lon="29.5189530775"><ele>109.25</ele><time>2026-04-17T11:53:45Z</time></trkpt><trkpt lat="59.3343581446" lon="29.5187430270"><ele>109.25</ele><time>2026-04-17T11:53:56Z</time></trkpt><trkpt lat="59.3343453202" lon="29.5187196415"><ele>109.25</ele><time>2026-04-17T11:53:58Z</time></trkpt><trkpt lat="59.3343194202" lon="29.5185828488"><ele>109.25</ele><time>2026-04-17T11:54:08Z</time></trkpt><trkpt lat="59.3342589866" lon="29.5185423642"><ele>109.25</ele><time>2026-04-17T11:54:19Z</time></trkpt><trkpt lat="59.3341953680" lon="29.5184701961"><ele>109.25</ele><time>2026-04-17T11:54:30Z</time></trkpt><trkpt lat="59.3341843877" lon="29.5184446312"><ele>109.25</ele><time>2026-04-17T11:54:48Z</time></trkpt><trkpt lat="59.3341897521" lon="29.5184351597"><ele>109.25</ele><time>2026-04-17T11:54:50Z</time></trkpt><trkpt lat="59.3342306558" lon="29.5183304697"><ele>109.25</ele><time>2026-04-17T11:55:03Z</time></trkpt><trkpt lat="59.3342703022" lon="29.5182554517"><ele>109.25</ele><time>2026-04-17T11:55:10Z</time></trkpt><trkpt lat="59.3343951926" lon="29.5181693695"><ele>109.25</ele><time>2026-04-17T11:55:21Z</time></trkpt><trkpt lat="59.3344461545" lon="29.5180773363"><ele>109.25</ele><time>2026-04-17T11:55:29Z</time></trkpt><trkpt lat="59.3344892375" lon="29.5179677010"><ele>109.25</ele><time>2026-04-17T11:55:35Z</time></trkpt><trkpt lat="59.3345666863" lon="29.5177476760"><ele>109.25</ele><time>2026-04-17T11:55:48Z</time></trkpt><trkpt lat="59.3345881440" lon="29.5174718276"><ele>109.25</ele><time>2026-04-17T11:56:02Z</time></trkpt><trkpt lat="59.3346237671" lon="29.5172705781"><ele>109.25</ele><time>2026-04-17T11:56:15Z</time></trkpt><trkpt lat="59.3346204981" lon="29.5172336977"><ele>109.25</ele><time>2026-04-17T11:56:17Z</time></trkpt><trkpt lat="59.3346317299" lon="29.5169690810"><ele>109.25</ele><time>2026-04-17T11:56:31Z</time></trkpt><trkpt lat="59.3346934207" lon="29.5167447813"><ele>109.25</ele><time>2026-04-17T11:56:45Z</time></trkpt><trkpt lat="59.3346997909" lon="29.5167141035"><ele>109.25</ele><time>2026-04-17T11:56:47Z</time></trkpt><trkpt lat="59.3347378448" lon="29.5165048074"><ele>109.25</ele><time>2026-04-17T11:57:02Z</time></trkpt><trkpt lat="59.3347862922" lon="29.5163467247"><ele>109.25</ele><time>2026-04-17T11:57:15Z</time></trkpt><trkpt lat="59.3348415289" lon="29.5162258577"><ele>109.25</ele><time>2026-04-17T11:57:29Z</time></trkpt><trkpt lat="59.3348357454" lon="29.5162202418"><ele>109.25</ele><time>2026-04-17T11:57:33Z</time></trkpt><trkpt lat="59.3347130343" lon="29.5160851255"><ele>109.25</ele><time>2026-04-17T11:57:47Z</time></trkpt><trkpt lat="59.3346238509" lon="29.5160298049"><ele>109.25</ele><time>2026-04-17T11:57:58Z</time></trkpt><trkpt lat="59.3346039858" lon="29.5160387736"><ele>109.25</ele><time>2026-04-17T11:58:00Z</time></trkpt><trkpt lat="59.3345322367" lon="29.5159916673"><ele>108.29</ele><time>2026-04-17T11:58:15Z</time></trkpt><trkpt lat="59.3345217593" lon="29.5160156395"><ele>107.81</ele><time>2026-04-17T11:58:35Z</time></trkpt><trkpt lat="59.3345074262" lon="29.5160671882"><ele>107.81</ele><time>2026-04-17T11:58:41Z</time></trkpt><trkpt lat="59.3344643433" lon="29.5161971077"><ele>107.81</ele><time>2026-04-17T11:58:53Z</time></trkpt><trkpt lat="59.3344464898" lon="29.5163106825"><ele>107.81</ele><time>2026-04-17T11:59:03Z</time></trkpt><trkpt lat="59.3343954440" lon="29.5164853614"><ele>107.81</ele><time>2026-04-17T11:59:14Z</time></trkpt><trkpt lat="59.3343694601" lon="29.5166448690"><ele>107.81</ele><time>2026-04-17T11:59:25Z</time></trkpt><trkpt lat="59.3343292270" lon="29.5168505609"><ele>109.25</ele><time>2026-04-17T11:59:33Z</time></trkpt><trkpt lat="59.3343271315" lon="29.5170171093"><ele>108.77</ele><time>2026-04-17T11:59:42Z</time></trkpt><trkpt lat="59.3343141396" lon="29.5171077177"><ele>108.77</ele><time>2026-04-17T11:59:47Z</time></trkpt><trkpt lat="59.3342854735" lon="29.5173040219"><ele>108.77</ele><time>2026-04-17T11:59:57Z</time></trkpt><trkpt lat="59.3342756666" lon="29.5173479430"><ele>108.77</ele><time>2026-04-17T11:59:59Z</time></trkpt><trkpt lat="59.3342397921" lon="29.5174992364"><ele>108.77</ele><time>2026-04-17T12:00:11Z</time></trkpt><trkpt lat="59.3341928534" lon="29.5176169183"><ele>108.77</ele><time>2026-04-17T12:00:21Z</time></trkpt><trkpt lat="59.3341167457" lon="29.5177981351"><ele>108.77</ele><time>2026-04-17T12:00:33Z</time></trkpt><trkpt lat="59.3341059331" lon="29.5178013202"><ele>108.77</ele><time>2026-04-17T12:00:34Z</time></trkpt><trkpt lat="59.3340594135" lon="29.5179264620"><ele>108.77</ele><time>2026-04-17T12:00:44Z</time></trkpt><trkpt lat="59.3340218626" lon="29.5178879052"><ele>108.77</ele><time>2026-04-17T12:00:59Z</time></trkpt><trkpt lat="59.3340176716" lon="29.5178675372"><ele>108.77</ele><time>2026-04-17T12:01:21Z</time></trkpt><trkpt lat="59.3339518737" lon="29.5177122205"><ele>108.77</ele><time>2026-04-17T12:01:35Z</time></trkpt><trkpt lat="59.3338693958" lon="29.5175532997"><ele>108.77</ele><time>2026-04-17T12:01:47Z</time></trkpt><trkpt lat="59.3338633608" lon="29.5175495278"><ele>108.77</ele><time>2026-04-17T12:01:56Z</time></trkpt><trkpt lat="59.3338750955" lon="29.5174801257"><ele>108.77</ele><time>2026-04-17T12:02:08Z</time></trkpt><trkpt lat="59.3338754307" lon="29.5174694806"><ele>108.77</ele><time>2026-04-17T12:02:22Z</time></trkpt><trkpt lat="59.3338937033" lon="29.5174491126"><ele>108.77</ele><time>2026-04-17T12:02:34Z</time></trkpt><trkpt lat="59.3339183461" lon="29.5173597615"><ele>108.77</ele><time>2026-04-17T12:02:57Z</time></trkpt><trkpt lat="59.3339614291" lon="29.5171044488"><ele>108.77</ele><time>2026-04-17T12:03:11Z</time></trkpt><trkpt lat="59.3339750916" lon="29.5169826597"><ele>108.77</ele><time>2026-04-17T12:03:14Z</time></trkpt><trkpt lat="59.3340151571" lon="29.5166432764"><ele>108.77</ele><time>2026-04-17T12:03:27Z</time></trkpt><trkpt lat="59.3340473436" lon="29.5164442901"><ele>108.77</ele><time>2026-04-17T12:03:40Z</time></trkpt><trkpt lat="59.3340792786" lon="29.5163223334"><ele>108.77</ele><time>2026-04-17T12:03:53Z</time></trkpt><trkpt lat="59.3340929411" lon="29.5162569545"><ele>108.77</ele><time>2026-04-17T12:03:55Z</time></trkpt><trkpt lat="59.3341394607" lon="29.5159588102"><ele>108.77</ele><time>2026-04-17T12:04:06Z</time></trkpt><trkpt lat="59.3342153169" lon="29.5158664417"><ele>108.77</ele><time>2026-04-17T12:04:22Z</time></trkpt><trkpt lat="59.3342820369" lon="29.5157182496"><ele>108.77</ele><time>2026-04-17T12:04:34Z</time></trkpt><trkpt lat="59.3343111221" lon="29.5157200936"><ele>108.29</ele><time>2026-04-17T12:04:47Z</time></trkpt><trkpt lat="59.3343259580" lon="29.5156925172"><ele>108.29</ele><time>2026-04-17T12:05:04Z</time></trkpt><trkpt lat="59.3343672808" lon="29.5156218577"><ele>108.29</ele><time>2026-04-17T12:05:17Z</time></trkpt><trkpt lat="59.3343624193" lon="29.5155301597"><ele>108.29</ele><time>2026-04-17T12:05:29Z</time></trkpt><trkpt lat="59.3343548756" lon="29.5154475980"><ele>108.29</ele><time>2026-04-17T12:05:44Z</time></trkpt><trkpt lat="59.3343541212" lon="29.5153579116"><ele>108.29</ele><time>2026-04-17T12:05:57Z</time></trkpt><trkpt lat="59.3343459070" lon="29.5153056923"><ele>108.29</ele><time>2026-04-17T12:06:10Z</time></trkpt><trkpt lat="59.3343423866" lon="29.5152813848"><ele>108.29</ele><time>2026-04-17T12:06:24Z</time></trkpt><trkpt lat="59.3343123794" lon="29.5151633676"><ele>108.29</ele><time>2026-04-17T12:06:35Z</time></trkpt><trkpt lat="59.3343082722" lon="29.5151652955"><ele>108.29</ele><time>2026-04-17T12:06:36Z</time></trkpt><trkpt lat="59.3343045842" lon="29.5151606016"><ele>108.29</ele><time>2026-04-17T12:06:46Z</time></trkpt><trkpt lat="59.3343392015" lon="29.5149901975"><ele>108.29</ele><time>2026-04-17T12:06:56Z</time></trkpt><trkpt lat="59.3343679514" lon="29.5148053765"><ele>108.29</ele><time>2026-04-17T12:07:11Z</time></trkpt><trkpt lat="59.3343995512" lon="29.5147270057"><ele>108.29</ele><time>2026-04-17T12:07:16Z</time></trkpt><trkpt lat="59.3344283849" lon="29.5145473816"><ele>108.29</ele><time>2026-04-17T12:07:29Z</time></trkpt><trkpt lat="59.3344343361" lon="29.5145726111"><ele>108.29</ele><time>2026-04-17T12:07:51Z</time></trkpt><trkpt lat="59.3344369344" lon="29.5146018639"><ele>108.29</ele><time>2026-04-17T12:08:05Z</time></trkpt><trkpt lat="59.3344434723" lon="29.5146151911"><ele>108.77</ele><time>2026-04-17T12:08:32Z</time></trkpt><trkpt lat="59.3344551232" lon="29.5146014448"><ele>108.77</ele><time>2026-04-17T12:09:07Z</time></trkpt><trkpt lat="59.3344596494" lon="29.5146066416"><ele>108.77</ele><time>2026-04-17T12:09:37Z</time></trkpt><trkpt lat="59.3344598170" lon="29.5146210585"><ele>109.25</ele><time>2026-04-17T12:10:09Z</time></trkpt><trkpt lat="59.3344944343" lon="29.5146545861"><ele>109.25</ele><time>2026-04-17T12:10:28Z</time></trkpt><trkpt lat="59.3345582206" lon="29.5146912150"><ele>109.25</ele><time>2026-04-17T12:10:39Z</time></trkpt><trkpt lat="59.3346220069" lon="29.5147146005"><ele>109.25</ele><time>2026-04-17T12:10:51Z</time></trkpt><trkpt lat="59.3347065803" lon="29.5146878622"><ele>109.25</ele><time>2026-04-17T12:11:03Z</time></trkpt><trkpt lat="59.3347404432" lon="29.5146978367"><ele>109.25</ele><time>2026-04-17T12:11:13Z</time></trkpt><trkpt lat="59.3347996194" lon="29.5146457013"><ele>109.25</ele><time>2026-04-17T12:11:20Z</time></trkpt><trkpt lat="59.3348737154" lon="29.5145635586"><ele>108.77</ele><time>2026-04-17T12:11:26Z</time></trkpt><trkpt lat="59.3349188939" lon="29.5145660732"><ele>108.77</ele><time>2026-04-17T12:11:38Z</time></trkpt><trkpt lat="59.3349688500" lon="29.5145716053"><ele>108.77</ele><time>2026-04-17T12:11:55Z</time></trkpt><trkpt lat="59.3349777348" lon="29.5145576913"><ele>108.77</ele><time>2026-04-17T12:12:06Z</time></trkpt><trkpt lat="59.3350355700" lon="29.5144954976"><ele>108.77</ele><time>2026-04-17T12:12:22Z</time></trkpt><trkpt lat="59.3351144437" lon="29.5145660732"><ele>108.77</ele><time>2026-04-17T12:12:33Z</time></trkpt><trkpt lat="59.3351158686" lon="29.5146970823"><ele>108.77</ele><time>2026-04-17T12:12:48Z</time></trkpt><trkpt lat="59.3351167906" lon="29.5146970823"><ele>108.77</ele><time>2026-04-17T12:12:49Z</time></trkpt><trkpt lat="59.3350967579" lon="29.5147366449"><ele>108.77</ele><time>2026-04-17T12:12:52Z</time></trkpt><trkpt lat="59.3350843526" lon="29.5149080548"><ele>108.77</ele><time>2026-04-17T12:13:04Z</time></trkpt><trkpt lat="59.3350760546" lon="29.5149913710"><ele>108.77</ele><time>2026-04-17T12:13:15Z</time></trkpt><trkpt lat="59.3350334745" lon="29.5150981564"><ele>108.77</ele><time>2026-04-17T12:13:28Z</time></trkpt><trkpt lat="59.3350345641" lon="29.5151306782"><ele>108.77</ele><time>2026-04-17T12:13:31Z</time></trkpt><trkpt lat="59.3350570276" lon="29.5152614359"><ele>108.77</ele><time>2026-04-17T12:13:43Z</time></trkpt><trkpt lat="59.3350572791" lon="29.5152639505"><ele>108.77</ele><time>2026-04-17T12:13:45Z</time></trkpt><trkpt lat="59.3351229932" lon="29.5154009946"><ele>108.77</ele><time>2026-04-17T12:13:57Z</time></trkpt><trkpt lat="59.3351329677" lon="29.5154062752"><ele>108.77</ele><time>2026-04-17T12:13:58Z</time></trkpt><trkpt lat="59.3351690099" lon="29.5153988991"><ele>108.77</ele><time>2026-04-17T12:14:11Z</time></trkpt><trkpt lat="59.3352210615" lon="29.5153710712"><ele>108.77</ele><time>2026-04-17T12:14:21Z</time></trkpt><trkpt lat="59.3352736160" lon="29.5153286587"><ele>108.77</ele><time>2026-04-17T12:14:36Z</time></trkpt><trkpt lat="59.3353104126" lon="29.5153175108"><ele>108.77</ele><time>2026-04-17T12:14:50Z</time></trkpt><trkpt lat="59.3354108278" lon="29.5152799599"><ele>107.81</ele><time>2026-04-17T12:15:02Z</time></trkpt><trkpt lat="59.3354907911" lon="29.5151931234"><ele>107.81</ele><time>2026-04-17T12:15:12Z</time></trkpt><trkpt lat="59.3355305213" lon="29.5150576718"><ele>107.81</ele><time>2026-04-17T12:15:25Z</time></trkpt><trkpt lat="59.3355669826" lon="29.5150039438"><ele>107.81</ele><time>2026-04-17T12:15:41Z</time></trkpt><trkpt lat="59.3356264941" lon="29.5148283429"><ele>107.81</ele><time>2026-04-17T12:15:53Z</time></trkpt><trkpt lat="59.3357020989" lon="29.5148050413"><ele>107.81</ele><time>2026-04-17T12:16:05Z</time></trkpt><trkpt lat="59.3357473612" lon="29.5147736091"><ele>107.32</ele><time>2026-04-17T12:16:18Z</time></trkpt><trkpt lat="59.3357836548" lon="29.5147089846"><ele>107.32</ele><time>2026-04-17T12:16:34Z</time></trkpt><trkpt lat="59.3358393945" lon="29.5145064779"><ele>107.32</ele><time>2026-04-17T12:16:46Z</time></trkpt><trkpt lat="59.3358598463" lon="29.5144143607"><ele>107.32</ele><time>2026-04-17T12:16:51Z</time></trkpt><trkpt lat="59.3358880095" lon="29.5142869558"><ele>107.32</ele><time>2026-04-17T12:16:55Z</time></trkpt><trkpt lat="59.3359318469" lon="29.5141474809"><ele>107.32</ele><time>2026-04-17T12:17:08Z</time></trkpt><trkpt lat="59.3359868322" lon="29.5140033122"><ele>107.32</ele><time>2026-04-17T12:17:21Z</time></trkpt><trkpt lat="59.3360788655" lon="29.5138589758"><ele>107.32</ele><time>2026-04-17T12:17:31Z</time></trkpt><trkpt lat="59.3361621816" lon="29.5137268770"><ele>107.32</ele><time>2026-04-17T12:17:40Z</time></trkpt><trkpt lat="59.3362630159" lon="29.5136169065"><ele>107.32</ele><time>2026-04-17T12:17:52Z</time></trkpt><trkpt lat="59.3363482598" lon="29.5135692134"><ele>107.32</ele><time>2026-04-17T12:18:02Z</time></trkpt><trkpt lat="59.3364279717" lon="29.5135005657"><ele>107.32</ele><time>2026-04-17T12:18:14Z</time></trkpt><trkpt lat="59.3364604097" lon="29.5135076065"><ele>107.81</ele><time>2026-04-17T12:18:25Z</time></trkpt><trkpt lat="59.3365121260" lon="29.5133077819"><ele>107.81</ele><time>2026-04-17T12:18:38Z</time></trkpt><trkpt lat="59.3365177419" lon="29.5132305007"><ele>107.81</ele><time>2026-04-17T12:18:55Z</time></trkpt><trkpt lat="59.3365199212" lon="29.5130716637"><ele>107.81</ele><time>2026-04-17T12:19:07Z</time></trkpt><trkpt lat="59.3365419656" lon="29.5129642915"><ele>107.81</ele><time>2026-04-17T12:19:18Z</time></trkpt><trkpt lat="59.3365392834" lon="29.5128773712"><ele>107.81</ele><time>2026-04-17T12:19:30Z</time></trkpt><trkpt lat="59.3365392834" lon="29.5127596892"><ele>107.81</ele><time>2026-04-17T12:19:44Z</time></trkpt><trkpt lat="59.3365237769" lon="29.5125991758"><ele>107.81</ele><time>2026-04-17T12:19:57Z</time></trkpt><trkpt lat="59.3364911713" lon="29.5123856049"><ele>107.81</ele><time>2026-04-17T12:20:08Z</time></trkpt><trkpt lat="59.3364811130" lon="29.5123269316"><ele>107.81</ele><time>2026-04-17T12:20:24Z</time></trkpt><trkpt lat="59.3364741560" lon="29.5122922305"><ele>107.81</ele><time>2026-04-17T12:20:35Z</time></trkpt><trkpt lat="59.3364558835" lon="29.5121105947"><ele>107.81</ele><time>2026-04-17T12:20:45Z</time></trkpt><trkpt lat="59.3364570569" lon="29.5120833535"><ele>107.81</ele><time>2026-04-17T12:20:52Z</time></trkpt><trkpt lat="59.3364700489" lon="29.5119747240"><ele>107.81</ele><time>2026-04-17T12:21:05Z</time></trkpt><trkpt lat="59.3364842981" lon="29.5117944293"><ele>107.81</ele><time>2026-04-17T12:21:14Z</time></trkpt><trkpt lat="59.3364951108" lon="29.5117394440"><ele>107.81</ele><time>2026-04-17T12:21:26Z</time></trkpt><trkpt lat="59.3364943564" lon="29.5116060041"><ele>107.81</ele><time>2026-04-17T12:21:37Z</time></trkpt><trkpt lat="59.3365163170" lon="29.5114728995"><ele>107.81</ele><time>2026-04-17T12:21:48Z</time></trkpt><trkpt lat="59.3365531974" lon="29.5114278048"><ele>107.81</ele><time>2026-04-17T12:21:59Z</time></trkpt><trkpt lat="59.3366570491" lon="29.5113551337"><ele>107.81</ele><time>2026-04-17T12:22:14Z</time></trkpt><trkpt lat="59.3366946839" lon="29.5113477577"><ele>107.81</ele><time>2026-04-17T12:22:30Z</time></trkpt><trkpt lat="59.3366826978" lon="29.5113465004"><ele>107.81</ele><time>2026-04-17T12:22:33Z</time></trkpt><trkpt lat="59.3366420455" lon="29.5113387052"><ele>107.81</ele><time>2026-04-17T12:22:40Z</time></trkpt><trkpt lat="59.3365534488" lon="29.5114034135"><ele>107.81</ele><time>2026-04-17T12:22:51Z</time></trkpt><trkpt lat="59.3365157302" lon="29.5114593208"><ele>107.81</ele><time>2026-04-17T12:23:02Z</time></trkpt><trkpt lat="59.3364785984" lon="29.5115324948"><ele>107.81</ele><time>2026-04-17T12:23:14Z</time></trkpt><trkpt lat="59.3364414666" lon="29.5115587302"><ele>107.81</ele><time>2026-04-17T12:23:26Z</time></trkpt><trkpt lat="59.3364245351" lon="29.5115773380"><ele>107.81</ele><time>2026-04-17T12:23:40Z</time></trkpt><trkpt lat="59.3364025746" lon="29.5115635917"><ele>107.32</ele><time>2026-04-17T12:23:52Z</time></trkpt><trkpt lat="59.3364010658" lon="29.5115746558"><ele>107.32</ele><time>2026-04-17T12:24:07Z</time></trkpt><trkpt lat="59.3364035804" lon="29.5115848817"><ele>107.32</ele><time>2026-04-17T12:24:21Z</time></trkpt><trkpt lat="59.3364187516" lon="29.5115583949"><ele>107.32</ele><time>2026-04-17T12:24:34Z</time></trkpt><trkpt lat="59.3364766706" lon="29.5113950316"><ele>107.32</ele><time>2026-04-17T12:24:47Z</time></trkpt><trkpt lat="59.3364942726" lon="29.5113900863"><ele>107.32</ele><time>2026-04-17T12:24:54Z</time></trkpt><trkpt lat="59.3365612440" lon="29.5113361068"><ele>107.32</ele><time>2026-04-17T12:25:06Z</time></trkpt><trkpt lat="59.3366495054" lon="29.5113137271"><ele>107.32</ele><time>2026-04-17T12:25:19Z</time></trkpt><trkpt lat="59.3366809376" lon="29.5112667885"><ele>107.32</ele><time>2026-04-17T12:25:34Z</time></trkpt><trkpt lat="59.3367783353" lon="29.5110717416"><ele>106.84</ele><time>2026-04-17T12:25:46Z</time></trkpt><trkpt lat="59.3368189875" lon="29.5109380502"><ele>106.84</ele><time>2026-04-17T12:25:56Z</time></trkpt><trkpt lat="59.3368251063" lon="29.5108836517"><ele>106.84</ele><time>2026-04-17T12:26:10Z</time></trkpt><trkpt lat="59.3368259445" lon="29.5108367130"><ele>106.84</ele><time>2026-04-17T12:26:42Z</time></trkpt><trkpt lat="59.3367863819" lon="29.5107545704"><ele>106.84</ele><time>2026-04-17T12:27:04Z</time></trkpt><trkpt lat="59.3368206639" lon="29.5107532293"><ele>106.84</ele><time>2026-04-17T12:27:30Z</time></trkpt><trkpt lat="59.3368285429" lon="29.5106779598"><ele>106.84</ele><time>2026-04-17T12:27:55Z</time></trkpt></trkseg><trkseg><trkpt lat="59.3368480727" lon="29.5107020997"><ele>106.84</ele><time>2026-04-17T12:28:23Z</time></trkpt><trkpt lat="59.3368399423" lon="29.5107087214"><ele>106.84</ele><time>2026-04-17T12:28:44Z</time></trkpt><trkpt lat="59.3368806783" lon="29.5106299315"><ele>106.84</ele><time>2026-04-17T12:28:57Z</time></trkpt><trkpt lat="59.3368875515" lon="29.5104514807"><ele>106.84</ele><time>2026-04-17T12:29:10Z</time></trkpt><trkpt lat="59.3369086739" lon="29.5103657339"><ele>106.84</ele><time>2026-04-17T12:29:22Z</time></trkpt><trkpt lat="59.3369314726" lon="29.5102462079"><ele>106.84</ele><time>2026-04-17T12:29:37Z</time></trkpt><trkpt lat="59.3369186483" lon="29.5101116784"><ele>106.84</ele><time>2026-04-17T12:29:44Z</time></trkpt><trkpt lat="59.3368974421" lon="29.5099754725"><ele>107.81</ele><time>2026-04-17T12:29:55Z</time></trkpt><trkpt lat="59.3368803430" lon="29.5099074952"><ele>108.29</ele><time>2026-04-17T12:30:11Z</time></trkpt><trkpt lat="59.3368588015" lon="29.5098379254"><ele>108.77</ele><time>2026-04-17T12:30:24Z</time></trkpt><trkpt lat="59.3368534371" lon="29.5098100975"><ele>108.77</ele><time>2026-04-17T12:30:35Z</time></trkpt></trkseg><trkseg><trkpt lat="59.0633548703" lon="30.0310762972"><ele>178.46</ele><time>2026-04-25T07:41:18Z</time></trkpt><trkpt lat="59.0633355919" lon="30.0310878642"><ele>175.10</ele><time>2026-04-25T07:41:19Z</time></trkpt><trkpt lat="59.0633290540" lon="30.0310887862"><ele>171.73</ele><time>2026-04-25T07:41:20Z</time></trkpt><trkpt lat="59.0633292217" lon="30.0310866907"><ele>168.85</ele><time>2026-04-25T07:41:21Z</time></trkpt><trkpt lat="59.0633282997" lon="30.0310847629"><ele>165.48</ele><time>2026-04-25T07:41:22Z</time></trkpt><trkpt lat="59.0633257013" lon="30.0310843438"><ele>162.60</ele><time>2026-04-25T07:41:23Z</time></trkpt><trkpt lat="59.0633166488" lon="30.0310881995"><ele>156.83</ele><time>2026-04-25T07:41:25Z</time></trkpt><trkpt lat="59.0633091889" lon="30.0310895406"><ele>151.54</ele><time>2026-04-25T07:41:27Z</time></trkpt><trkpt lat="59.0633065905" lon="30.0310886186"><ele>146.26</ele><time>2026-04-25T07:41:29Z</time></trkpt><trkpt lat="59.0633130446" lon="30.0310957432"><ele>140.97</ele><time>2026-04-25T07:41:31Z</time></trkpt><trkpt lat="59.0633350890" lon="30.0311087351"><ele>136.64</ele><time>2026-04-25T07:41:33Z</time></trkpt><trkpt lat="59.0633420460" lon="30.0311052147"><ele>132.32</ele><time>2026-04-25T07:41:35Z</time></trkpt><trkpt lat="59.0633450635" lon="30.0311049633"><ele>127.99</ele><time>2026-04-25T07:41:37Z</time></trkpt><trkpt lat="59.0633494221" lon="30.0311065558"><ele>124.15</ele><time>2026-04-25T07:41:39Z</time></trkpt><trkpt lat="59.0633493382" lon="30.0311054662"><ele>124.15</ele><time>2026-04-25T07:41:40Z</time></trkpt><trkpt lat="59.0633479133" lon="30.0310971681"><ele>120.78</ele><time>2026-04-25T07:41:43Z</time></trkpt><trkpt lat="59.0633575525" lon="30.0310985930"><ele>117.42</ele><time>2026-04-25T07:41:45Z</time></trkpt><trkpt lat="59.0633639228" lon="30.0311032869"><ele>114.53</ele><time>2026-04-25T07:41:47Z</time></trkpt><trkpt lat="59.0633645095" lon="30.0311093219"><ele>110.21</ele><time>2026-04-25T07:41:50Z</time></trkpt><trkpt lat="59.0633633360" lon="30.0310989283"><ele>106.36</ele><time>2026-04-25T07:41:53Z</time></trkpt><trkpt lat="59.0633560438" lon="30.0310918875"><ele>103.00</ele><time>2026-04-25T07:41:56Z</time></trkpt><trkpt lat="59.0633625817" lon="30.0310918875"><ele>99.63</ele><time>2026-04-25T07:41:59Z</time></trkpt><trkpt lat="59.0634028986" lon="30.0310788117"><ele>95.79</ele><time>2026-04-25T07:42:03Z</time></trkpt><trkpt lat="59.0633994620" lon="30.0310643110"><ele>92.42</ele><time>2026-04-25T07:42:07Z</time></trkpt><trkpt lat="59.0633918345" lon="30.0310541689"><ele>88.58</ele><time>2026-04-25T07:42:12Z</time></trkpt><trkpt lat="59.0633702092" lon="30.0309877004"><ele>85.21</ele><time>2026-04-25T07:42:19Z</time></trkpt><trkpt lat="59.0633328259" lon="30.0310177077"><ele>82.33</ele><time>2026-04-25T07:42:27Z</time></trkpt><trkpt lat="59.0633163974" lon="30.0309925620"><ele>78.97</ele><time>2026-04-25T07:42:37Z</time></trkpt><trkpt lat="59.0633142181" lon="30.0310254190"><ele>76.08</ele><time>2026-04-25T07:42:49Z</time></trkpt><trkpt lat="59.0633311495" lon="30.0310339686"><ele>74.16</ele><time>2026-04-25T07:43:08Z</time></trkpt><trkpt lat="59.0633629169" lon="30.0310330465"><ele>74.16</ele><time>2026-04-25T07:43:22Z</time></trkpt><trkpt lat="59.0633851290" lon="30.0309990160"><ele>74.16</ele><time>2026-04-25T07:43:36Z</time></trkpt><trkpt lat="59.0635429602" lon="30.0309102517"><ele>74.16</ele><time>2026-04-25T07:43:51Z</time></trkpt><trkpt lat="59.0635780804" lon="30.0308685936"><ele>74.16</ele><time>2026-04-25T07:44:03Z</time></trkpt><trkpt lat="59.0636817645" lon="30.0308404304"><ele>74.16</ele><time>2026-04-25T07:44:16Z</time></trkpt><trkpt lat="59.0637579560" lon="30.0308488123"><ele>74.16</ele><time>2026-04-25T07:44:28Z</time></trkpt><trkpt lat="59.0637823474" lon="30.0308598764"><ele>73.20</ele><time>2026-04-25T07:44:41Z</time></trkpt><trkpt lat="59.0637963451" lon="30.0308411010"><ele>73.20</ele><time>2026-04-25T07:44:56Z</time></trkpt><trkpt lat="59.0638110973" lon="30.0308385026"><ele>73.20</ele><time>2026-04-25T07:45:12Z</time></trkpt><trkpt lat="59.0638332255" lon="30.0308357365"><ele>73.20</ele><time>2026-04-25T07:45:32Z</time></trkpt><trkpt lat="59.0638616402" lon="30.0307988562"><ele>73.20</ele><time>2026-04-25T07:45:42Z</time></trkpt><trkpt lat="59.0639872011" lon="30.0307250954"><ele>73.20</ele><time>2026-04-25T07:45:56Z</time></trkpt><trkpt lat="59.0640579443" lon="30.0307218265"><ele>73.20</ele><time>2026-04-25T07:46:09Z</time></trkpt><trkpt lat="59.0641392488" lon="30.0307447929"><ele>73.20</ele><time>2026-04-25T07:46:25Z</time></trkpt><trkpt lat="59.0642223973" lon="30.0306800008"><ele>73.20</ele><time>2026-04-25T07:46:38Z</time></trkpt><trkpt lat="59.0642287675" lon="30.0306743011"><ele>73.20</ele><time>2026-04-25T07:46:55Z</time></trkpt><trkpt lat="59.0642284323" lon="30.0306758098"><ele>73.20</ele><time>2026-04-25T07:47:17Z</time></trkpt><trkpt lat="59.0642170329" lon="30.0306845270"><ele>73.20</ele><time>2026-04-25T07:47:45Z</time></trkpt><trkpt lat="59.0642241575" lon="30.0306938309"><ele>73.20</ele><time>2026-04-25T07:48:11Z</time></trkpt><trkpt lat="59.0642400831" lon="30.0306737144"><ele>73.20</ele><time>2026-04-25T07:48:29Z</time></trkpt><trkpt lat="59.0642407537" lon="30.0306605548"><ele>73.20</ele><time>2026-04-25T07:48:53Z</time></trkpt><trkpt lat="59.0642496385" lon="30.0306534301"><ele>73.20</ele><time>2026-04-25T07:49:20Z</time></trkpt><trkpt lat="59.0642446931" lon="30.0306428690"><ele>73.20</ele><time>2026-04-25T07:49:44Z</time></trkpt><trkpt lat="59.0643240698" lon="30.0306717865"><ele>73.20</ele><time>2026-04-25T07:50:00Z</time></trkpt><trkpt lat="59.0643690806" lon="30.0306300446"><ele>73.20</ele><time>2026-04-25T07:50:07Z</time></trkpt><trkpt lat="59.0644881874" lon="30.0305691082"><ele>73.20</ele><time>2026-04-25T07:50:20Z</time></trkpt><trkpt lat="59.0645634569" lon="30.0305729639"><ele>73.20</ele><time>2026-04-25T07:50:33Z</time></trkpt><trkpt lat="59.0646235552" lon="30.0305184815"><ele>73.20</ele><time>2026-04-25T07:50:51Z</time></trkpt><trkpt lat="59.0646471921" lon="30.0305033103"><ele>73.20</ele><time>2026-04-25T07:51:07Z</time></trkpt><trkpt lat="59.0647778660" lon="30.0304640830"><ele>73.20</ele><time>2026-04-25T07:51:20Z</time></trkpt><trkpt lat="59.0649285726" lon="30.0304327346"><ele>73.20</ele><time>2026-04-25T07:51:33Z</time></trkpt><trkpt lat="59.0650796983" lon="30.0303528551"><ele>73.20</ele><time>2026-04-25T07:51:45Z</time></trkpt><trkpt lat="59.0652441513" lon="30.0303287990"><ele>72.72</ele><time>2026-04-25T07:52:00Z</time></trkpt><trkpt lat="59.0654121246" lon="30.0302858837"><ele>74.16</ele><time>2026-04-25T07:52:15Z</time></trkpt><trkpt lat="59.0655179881" lon="30.0302385259"><ele>74.16</ele><time>2026-04-25T07:52:23Z</time></trkpt><trkpt lat="59.0655948501" lon="30.0301842950"><ele>73.68</ele><time>2026-04-25T07:52:37Z</time></trkpt><trkpt lat="59.0656614024" lon="30.0301616639"><ele>73.68</ele><time>2026-04-25T07:52:47Z</time></trkpt><trkpt lat="59.0656715445" lon="30.0301563833"><ele>73.68</ele><time>2026-04-25T07:52:48Z</time></trkpt><trkpt lat="59.0657517593" lon="30.0301211793"><ele>73.68</ele><time>2026-04-25T07:53:03Z</time></trkpt><trkpt lat="59.0658718720" lon="30.0300663617"><ele>73.68</ele><time>2026-04-25T07:53:16Z</time></trkpt><trkpt lat="59.0659473091" lon="30.0300796051"><ele>73.68</ele><time>2026-04-25T07:53:27Z</time></trkpt><trkpt lat="59.0660321340" lon="30.0300504360"><ele>73.68</ele><time>2026-04-25T07:53:37Z</time></trkpt><trkpt lat="59.0661225747" lon="30.0300071016"><ele>73.68</ele><time>2026-04-25T07:53:50Z</time></trkpt><trkpt lat="59.0661851037" lon="30.0300009828"><ele>73.68</ele><time>2026-04-25T07:54:01Z</time></trkpt><trkpt lat="59.0662604570" lon="30.0299102068"><ele>73.68</ele><time>2026-04-25T07:54:13Z</time></trkpt><trkpt lat="59.0663322061" lon="30.0299232826"><ele>73.68</ele><time>2026-04-25T07:54:25Z</time></trkpt><trkpt lat="59.0663476288" lon="30.0299080275"><ele>73.68</ele><time>2026-04-25T07:54:27Z</time></trkpt><trkpt lat="59.0664605331" lon="30.0298529584"><ele>73.68</ele><time>2026-04-25T07:54:38Z</time></trkpt><trkpt lat="59.0665446874" lon="30.0298110489"><ele>73.68</ele><time>2026-04-25T07:54:50Z</time></trkpt><trkpt lat="59.0666776244" lon="30.0298562273"><ele>73.68</ele><time>2026-04-25T07:55:02Z</time></trkpt><trkpt lat="59.0667766146" lon="30.0297985598"><ele>73.68</ele><time>2026-04-25T07:55:12Z</time></trkpt><trkpt lat="59.0668245591" lon="30.0297539681"><ele>73.68</ele><time>2026-04-25T07:55:18Z</time></trkpt><trkpt lat="59.0669238009" lon="30.0296774413"><ele>73.68</ele><time>2026-04-25T07:55:32Z</time></trkpt><trkpt lat="59.0669554006" lon="30.0297009107"><ele>73.68</ele><time>2026-04-25T07:55:35Z</time></trkpt><trkpt lat="59.0670751780" lon="30.0297051854"><ele>73.68</ele><time>2026-04-25T07:55:49Z</time></trkpt><trkpt lat="59.0671254694" lon="30.0296818838"><ele>73.68</ele><time>2026-04-25T07:56:01Z</time></trkpt><trkpt lat="59.0672101267" lon="30.0296612643"><ele>73.68</ele><time>2026-04-25T07:56:09Z</time></trkpt><trkpt lat="59.0673055127" lon="30.0296191033"><ele>74.16</ele><time>2026-04-25T07:56:21Z</time></trkpt><trkpt lat="59.0673389565" lon="30.0296040159"><ele>74.16</ele><time>2026-04-25T07:56:24Z</time></trkpt><trkpt lat="59.0674763359" lon="30.0295360386"><ele>74.16</ele><time>2026-04-25T07:56:35Z</time></trkpt><trkpt lat="59.0675947722" lon="30.0295024272"><ele>74.16</ele><time>2026-04-25T07:56:46Z</time></trkpt><trkpt lat="59.0676321555" lon="30.0294634514"><ele>74.16</ele><time>2026-04-25T07:56:55Z</time></trkpt><trkpt lat="59.0677072573" lon="30.0294533931"><ele>74.16</ele><time>2026-04-25T07:57:06Z</time></trkpt><trkpt lat="59.0678434633" lon="30.0294089690"><ele>74.16</ele><time>2026-04-25T07:57:17Z</time></trkpt><trkpt lat="59.0679805912" lon="30.0293730944"><ele>74.16</ele><time>2026-04-25T07:57:28Z</time></trkpt><trkpt lat="59.0681110136" lon="30.0293823984"><ele>74.64</ele><time>2026-04-25T07:57:38Z</time></trkpt><trkpt lat="59.0682019573" lon="30.0293269102"><ele>74.16</ele><time>2026-04-25T07:57:50Z</time></trkpt><trkpt lat="59.0683374088" lon="30.0292978249"><ele>74.16</ele><time>2026-04-25T07:58:03Z</time></trkpt><trkpt lat="59.0683590341" lon="30.0292894430"><ele>74.16</ele><time>2026-04-25T07:58:05Z</time></trkpt><trkpt lat="59.0684539173" lon="30.0292584300"><ele>74.16</ele><time>2026-04-25T07:58:17Z</time></trkpt><trkpt lat="59.0685821604" lon="30.0291888602"><ele>74.16</ele><time>2026-04-25T07:58:30Z</time></trkpt><trkpt lat="59.0685985051" lon="30.0291842502"><ele>74.16</ele><time>2026-04-25T07:58:31Z</time></trkpt><trkpt lat="59.0687872656" lon="30.0291264150"><ele>74.16</ele><time>2026-04-25T07:58:41Z</time></trkpt><trkpt lat="59.0688653849" lon="30.0290688314"><ele>74.16</ele><time>2026-04-25T07:58:50Z</time></trkpt><trkpt lat="59.0689461026" lon="30.0290295202"><ele>74.16</ele><time>2026-04-25T07:59:00Z</time></trkpt><trkpt lat="59.0691037662" lon="30.0289745349"><ele>74.16</ele><time>2026-04-25T07:59:11Z</time></trkpt><trkpt lat="59.0692013316" lon="30.0289464556"><ele>74.64</ele><time>2026-04-25T07:59:22Z</time></trkpt><trkpt lat="59.0692434926" lon="30.0289286021"><ele>74.64</ele><time>2026-04-25T07:59:27Z</time></trkpt><trkpt lat="59.0693434887" lon="30.0289149396"><ele>74.64</ele><time>2026-04-25T07:59:37Z</time></trkpt><trkpt lat="59.0694445744" lon="30.0288535841"><ele>74.64</ele><time>2026-04-25T07:59:47Z</time></trkpt><trkpt lat="59.0694663674" lon="30.0288459565"><ele>74.64</ele><time>2026-04-25T07:59:50Z</time></trkpt><trkpt lat="59.0695717279" lon="30.0287954137"><ele>74.64</ele><time>2026-04-25T08:00:01Z</time></trkpt><trkpt lat="59.0696687903" lon="30.0287013687"><ele>74.16</ele><time>2026-04-25T08:00:15Z</time></trkpt><trkpt lat="59.0698034875" lon="30.0286949985"><ele>74.16</ele><time>2026-04-25T08:00:28Z</time></trkpt><trkpt lat="59.0698244423" lon="30.0286915619"><ele>74.16</ele><time>2026-04-25T08:00:32Z</time></trkpt><trkpt lat="59.0698782541" lon="30.0287125167"><ele>74.16</ele><time>2026-04-25T08:00:37Z</time></trkpt><trkpt lat="59.0701346565" lon="30.0286532566"><ele>74.16</ele><time>2026-04-25T08:00:54Z</time></trkpt><trkpt lat="59.0703504905" lon="30.0285916496"><ele>74.16</ele><time>2026-04-25T08:01:09Z</time></trkpt><trkpt lat="59.0705277678" lon="30.0285681803"><ele>73.68</ele><time>2026-04-25T08:01:21Z</time></trkpt><trkpt lat="59.0706152748" lon="30.0285354070"><ele>73.68</ele><time>2026-04-25T08:01:32Z</time></trkpt><trkpt lat="59.0707808174" lon="30.0284392666"><ele>73.68</ele><time>2026-04-25T08:01:45Z</time></trkpt><trkpt lat="59.0709401574" lon="30.0283723790"><ele>73.68</ele><time>2026-04-25T08:01:59Z</time></trkpt><trkpt lat="59.0710617788" lon="30.0283447187"><ele>73.68</ele><time>2026-04-25T08:02:11Z</time></trkpt><trkpt lat="59.0711395629" lon="30.0283477362"><ele>73.68</ele><time>2026-04-25T08:02:23Z</time></trkpt><trkpt lat="59.0712239686" lon="30.0282992050"><ele>73.68</ele><time>2026-04-25T08:02:29Z</time></trkpt><trkpt lat="59.0713783633" lon="30.0282566249"><ele>73.68</ele><time>2026-04-25T08:02:41Z</time></trkpt><trkpt lat="59.0714760963" lon="30.0282533560"><ele>73.68</ele><time>2026-04-25T08:02:47Z</time></trkpt><trkpt lat="59.0716631804" lon="30.0282000471"><ele>73.68</ele><time>2026-04-25T08:03:00Z</time></trkpt><trkpt lat="59.0717917588" lon="30.0281790923"><ele>73.68</ele><time>2026-04-25T08:03:15Z</time></trkpt><trkpt lat="59.0718639269" lon="30.0281172339"><ele>73.68</ele><time>2026-04-25T08:03:27Z</time></trkpt><trkpt lat="59.0721028112" lon="30.0280391145"><ele>73.68</ele><time>2026-04-25T08:03:39Z</time></trkpt><trkpt lat="59.0721961018" lon="30.0280188303"><ele>73.68</ele><time>2026-04-25T08:03:49Z</time></trkpt><trkpt lat="59.0722447168" lon="30.0280255359"><ele>73.68</ele><time>2026-04-25T08:04:00Z</time></trkpt><trkpt lat="59.0722765680" lon="30.0279956125"><ele>73.68</ele><time>2026-04-25T08:04:12Z</time></trkpt><trkpt lat="59.0723205730" lon="30.0280021504"><ele>73.68</ele><time>2026-04-25T08:04:22Z</time></trkpt><trkpt lat="59.0724342316" lon="30.0279063452"><ele>73.68</ele><time>2026-04-25T08:04:34Z</time></trkpt><trkpt lat="59.0725430287" lon="30.0278259628"><ele>73.20</ele><time>2026-04-25T08:04:42Z</time></trkpt><trkpt lat="59.0726944897" lon="30.0278498512"><ele>73.20</ele><time>2026-04-25T08:04:54Z</time></trkpt><trkpt lat="59.0727653168" lon="30.0277643558"><ele>73.20</ele><time>2026-04-25T08:05:05Z</time></trkpt><trkpt lat="59.0728108305" lon="30.0277471729"><ele>73.20</ele><time>2026-04-25T08:05:18Z</time></trkpt><trkpt lat="59.0728563443" lon="30.0277204346"><ele>73.20</ele><time>2026-04-25T08:05:27Z</time></trkpt><trkpt lat="59.0729778819" lon="30.0276379567"><ele>73.20</ele><time>2026-04-25T08:05:42Z</time></trkpt><trkpt lat="59.0730180312" lon="30.0276216958"><ele>73.20</ele><time>2026-04-25T08:05:53Z</time></trkpt><trkpt lat="59.0730762854" lon="30.0276027527"><ele>73.20</ele><time>2026-04-25T08:06:14Z</time></trkpt><trkpt lat="59.0730826557" lon="30.0275766850"><ele>73.20</ele><time>2026-04-25T08:06:36Z</time></trkpt><trkpt lat="59.0730939712" lon="30.0275698956"><ele>73.68</ele><time>2026-04-25T08:06:54Z</time></trkpt><trkpt lat="59.0730927978" lon="30.0275685545"><ele>73.68</ele><time>2026-04-25T08:07:15Z</time></trkpt><trkpt lat="59.0730961505" lon="30.0275770202"><ele>73.68</ele><time>2026-04-25T08:07:29Z</time></trkpt><trkpt lat="59.0730977431" lon="30.0275564007"><ele>74.16</ele><time>2026-04-25T08:07:50Z</time></trkpt><trkpt lat="59.0731035266" lon="30.0275348593"><ele>74.16</ele><time>2026-04-25T08:08:04Z</time></trkpt><trkpt lat="59.0731120761" lon="30.0275234599"><ele>74.16</ele><time>2026-04-25T08:08:31Z</time></trkpt><trkpt lat="59.0731060412" lon="30.0275221188"><ele>74.16</ele><time>2026-04-25T08:09:01Z</time></trkpt><trkpt lat="59.0731002577" lon="30.0275084563"><ele>74.16</ele><time>2026-04-25T08:09:28Z</time></trkpt><trkpt lat="59.0730926301" lon="30.0275234599"><ele>74.64</ele><time>2026-04-25T08:09:55Z</time></trkpt><trkpt lat="59.0730870143" lon="30.0275234599"><ele>74.64</ele><time>2026-04-25T08:10:22Z</time></trkpt><trkpt lat="59.0730883554" lon="30.0275114737"><ele>74.64</ele><time>2026-04-25T08:10:47Z</time></trkpt><trkpt lat="59.0730870143" lon="30.0275067799"><ele>75.12</ele><time>2026-04-25T08:11:07Z</time></trkpt><trkpt lat="59.0730880201" lon="30.0275006611"><ele>75.12</ele><time>2026-04-25T08:11:35Z</time></trkpt><trkpt lat="59.0730943065" lon="30.0275086239"><ele>75.12</ele><time>2026-04-25T08:11:52Z</time></trkpt><trkpt lat="59.0734943748" lon="30.0277029164"><ele>80.41</ele><time>2026-04-25T08:14:00Z</time></trkpt><trkpt lat="59.0734915249" lon="30.0276524574"><ele>80.41</ele><time>2026-04-25T08:14:01Z</time></trkpt><trkpt lat="59.0735004097" lon="30.0276986416"><ele>83.29</ele><time>2026-04-25T08:14:25Z</time></trkpt><trkpt lat="59.0734997392" lon="30.0276974682"><ele>86.18</ele><time>2026-04-25T08:14:45Z</time></trkpt><trkpt lat="59.0735131502" lon="30.0276844762"><ele>88.10</ele><time>2026-04-25T08:15:01Z</time></trkpt><trkpt lat="59.0734938718" lon="30.0276837219"><ele>90.02</ele><time>2026-04-25T08:15:19Z</time></trkpt><trkpt lat="59.0734850708" lon="30.0277076941"><ele>90.98</ele><time>2026-04-25T08:15:37Z</time></trkpt><trkpt lat="59.0734911058" lon="30.0277012400"><ele>90.50</ele><time>2026-04-25T08:16:02Z</time></trkpt><trkpt lat="59.0735093784" lon="30.0276909303"><ele>90.50</ele><time>2026-04-25T08:16:29Z</time></trkpt><trkpt lat="59.0735076182" lon="30.0276902597"><ele>90.50</ele><time>2026-04-25T08:16:52Z</time></trkpt><trkpt lat="59.0735740028" lon="30.0276816264"><ele>90.50</ele><time>2026-04-25T08:17:05Z</time></trkpt><trkpt lat="59.0736361127" lon="30.0276023336"><ele>90.50</ele><time>2026-04-25T08:17:14Z</time></trkpt><trkpt lat="59.0737361088" lon="30.0275827199"><ele>90.50</ele><time>2026-04-25T08:17:25Z</time></trkpt><trkpt lat="59.0738112945" lon="30.0275485218"><ele>90.50</ele><time>2026-04-25T08:17:37Z</time></trkpt><trkpt lat="59.0738274716" lon="30.0275529642"><ele>90.02</ele><time>2026-04-25T08:17:47Z</time></trkpt><trkpt lat="59.0738231130" lon="30.0275367871"><ele>90.02</ele><time>2026-04-25T08:17:50Z</time></trkpt><trkpt lat="59.0739124641" lon="30.0275398046"><ele>90.02</ele><time>2026-04-25T08:18:00Z</time></trkpt><trkpt lat="59.0739782620" lon="30.0275395531"><ele>90.02</ele><time>2026-04-25T08:18:11Z</time></trkpt><trkpt lat="59.0740357619" lon="30.0275231246"><ele>90.02</ele><time>2026-04-25T08:18:23Z</time></trkpt><trkpt lat="59.0740933456" lon="30.0275120605"><ele>89.54</ele><time>2026-04-25T08:18:34Z</time></trkpt><trkpt lat="59.0741765779" lon="30.0274575781"><ele>89.06</ele><time>2026-04-25T08:18:49Z</time></trkpt><trkpt lat="59.0743054077" lon="30.0273257308"><ele>89.06</ele><time>2026-04-25T08:19:03Z</time></trkpt><trkpt lat="59.0743551124" lon="30.0272766128"><ele>89.06</ele><time>2026-04-25T08:19:09Z</time></trkpt><trkpt lat="59.0743786655" lon="30.0272856653"><ele>89.06</ele><time>2026-04-25T08:19:11Z</time></trkpt><trkpt lat="59.0744585451" lon="30.0272515509"><ele>88.58</ele><time>2026-04-25T08:19:21Z</time></trkpt><trkpt lat="59.0744832717" lon="30.0272397324"><ele>88.58</ele><time>2026-04-25T08:19:34Z</time></trkpt><trkpt lat="59.0745437052" lon="30.0272144191"><ele>88.58</ele><time>2026-04-25T08:19:45Z</time></trkpt><trkpt lat="59.0746424440" lon="30.0272275787"><ele>88.10</ele><time>2026-04-25T08:19:57Z</time></trkpt><trkpt lat="59.0746953338" lon="30.0272221304"><ele>88.10</ele><time>2026-04-25T08:20:13Z</time></trkpt><trkpt lat="59.0747069009" lon="30.0272416603"><ele>87.62</ele><time>2026-04-25T08:20:38Z</time></trkpt><trkpt lat="59.0747362375" lon="30.0272521377"><ele>87.62</ele><time>2026-04-25T08:21:04Z</time></trkpt><trkpt lat="59.0747783985" lon="30.0272471923"><ele>87.62</ele><time>2026-04-25T08:21:14Z</time></trkpt><trkpt lat="59.0748669114" lon="30.0272175204"><ele>87.62</ele><time>2026-04-25T08:21:23Z</time></trkpt><trkpt lat="59.0748948231" lon="30.0272041094"><ele>87.14</ele><time>2026-04-25T08:21:33Z</time></trkpt><trkpt lat="59.0749332961" lon="30.0271686539"><ele>87.14</ele><time>2026-04-25T08:21:47Z</time></trkpt><trkpt lat="59.0749981720" lon="30.0271630380"><ele>86.66</ele><time>2026-04-25T08:21:59Z</time></trkpt><trkpt lat="59.0750853438" lon="30.0272257347"><ele>86.66</ele><time>2026-04-25T08:22:10Z</time></trkpt><trkpt lat="59.0751888603" lon="30.0271644630"><ele>86.66</ele><time>2026-04-25T08:22:20Z</time></trkpt><trkpt lat="59.0752063785" lon="30.0271595176"><ele>86.18</ele><time>2026-04-25T08:22:31Z</time></trkpt><trkpt lat="59.0752207115" lon="30.0271306001"><ele>86.18</ele><time>2026-04-25T08:22:48Z</time></trkpt><trkpt lat="59.0752641298" lon="30.0271616131"><ele>86.18</ele><time>2026-04-25T08:22:59Z</time></trkpt><trkpt lat="59.0752974898" lon="30.0271678995"><ele>85.69</ele><time>2026-04-25T08:23:04Z</time></trkpt><trkpt lat="59.0753455181" lon="30.0271921232"><ele>85.69</ele><time>2026-04-25T08:23:16Z</time></trkpt><trkpt lat="59.0753904451" lon="30.0271781255"><ele>85.69</ele><time>2026-04-25T08:23:26Z</time></trkpt><trkpt lat="59.0754605178" lon="30.0270953961"><ele>85.21</ele><time>2026-04-25T08:23:41Z</time></trkpt><trkpt lat="59.0755325183" lon="30.0269783847"><ele>84.73</ele><time>2026-04-25T08:23:55Z</time></trkpt><trkpt lat="59.0755623579" lon="30.0269031152"><ele>84.25</ele><time>2026-04-25T08:24:13Z</time></trkpt><trkpt lat="59.0755797923" lon="30.0268508960"><ele>84.25</ele><time>2026-04-25T08:24:26Z</time></trkpt><trkpt lat="59.0756146610" lon="30.0267118402"><ele>84.25</ele><time>2026-04-25T08:24:39Z</time></trkpt><trkpt lat="59.0757107176" lon="30.0266054738"><ele>83.77</ele><time>2026-04-25T08:24:49Z</time></trkpt><trkpt lat="59.0757817961" lon="30.0265888777"><ele>83.77</ele><time>2026-04-25T08:25:03Z</time></trkpt><trkpt lat="59.0758682135" lon="30.0265974272"><ele>83.77</ele><time>2026-04-25T08:25:14Z</time></trkpt><trkpt lat="59.0759453271" lon="30.0265699346"><ele>83.77</ele><time>2026-04-25T08:25:26Z</time></trkpt><trkpt lat="59.0759936068" lon="30.0265851896"><ele>83.29</ele><time>2026-04-25T08:25:38Z</time></trkpt><trkpt lat="59.0761222690" lon="30.0265752990"><ele>83.29</ele><time>2026-04-25T08:25:52Z</time></trkpt><trkpt lat="59.0762629174" lon="30.0265447050"><ele>79.93</ele><time>2026-04-25T08:26:10Z</time></trkpt><trkpt lat="59.0763675235" lon="30.0265629776"><ele>82.81</ele><time>2026-04-25T08:26:36Z</time></trkpt><trkpt lat="59.0763868019" lon="30.0265785679"><ele>84.25</ele><time>2026-04-25T08:26:54Z</time></trkpt><trkpt lat="59.0764018893" lon="30.0265623070"><ele>83.29</ele><time>2026-04-25T08:27:17Z</time></trkpt><trkpt lat="59.0764013026" lon="30.0265340600"><ele>83.29</ele><time>2026-04-25T08:27:45Z</time></trkpt><trkpt lat="59.0763871372" lon="30.0265025441"><ele>84.25</ele><time>2026-04-25T08:28:19Z</time></trkpt><trkpt lat="59.0763823595" lon="30.0265509076"><ele>84.25</ele><time>2026-04-25T08:28:39Z</time></trkpt><trkpt lat="59.0763933398" lon="30.0265275221"><ele>84.25</ele><time>2026-04-25T08:29:03Z</time></trkpt><trkpt lat="59.0763984527" lon="30.0265129376"><ele>84.73</ele><time>2026-04-25T08:29:35Z</time></trkpt><trkpt lat="59.0763991233" lon="30.0265159551"><ele>84.73</ele><time>2026-04-25T08:30:00Z</time></trkpt><trkpt lat="59.0764073376" lon="30.0264943298"><ele>84.73</ele><time>2026-04-25T08:30:28Z</time></trkpt><trkpt lat="59.0764091816" lon="30.0264912285"><ele>84.73</ele><time>2026-04-25T08:30:53Z</time></trkpt><trkpt lat="59.0764117800" lon="30.0264765602"><ele>84.73</ele><time>2026-04-25T08:31:22Z</time></trkpt><trkpt lat="59.0764086787" lon="30.0265103392"><ele>85.21</ele><time>2026-04-25T08:31:47Z</time></trkpt><trkpt lat="59.0763979498" lon="30.0265238341"><ele>85.21</ele><time>2026-04-25T08:32:12Z</time></trkpt><trkpt lat="59.0764049906" lon="30.0264987722"><ele>85.21</ele><time>2026-04-25T08:32:45Z</time></trkpt><trkpt lat="59.0763972793" lon="30.0264930725"><ele>85.21</ele><time>2026-04-25T08:33:10Z</time></trkpt><trkpt lat="59.0764009673" lon="30.0264750514"><ele>85.21</ele><time>2026-04-25T08:33:35Z</time></trkpt><trkpt lat="59.0764040686" lon="30.0264820922"><ele>85.21</ele><time>2026-04-25T08:34:03Z</time></trkpt><trkpt lat="59.0764070023" lon="30.0264685974"><ele>85.69</ele><time>2026-04-25T08:34:33Z</time></trkpt><trkpt lat="59.0764128696" lon="30.0264614727"><ele>85.69</ele><time>2026-04-25T08:35:05Z</time></trkpt><trkpt lat="59.0764106903" lon="30.0264543481"><ele>85.69</ele><time>2026-04-25T08:35:37Z</time></trkpt><trkpt lat="59.0764049906" lon="30.0264458824"><ele>85.69</ele><time>2026-04-25T08:36:03Z</time></trkpt><trkpt lat="59.0764029790" lon="30.0264432002"><ele>85.69</ele><time>2026-04-25T08:36:25Z</time></trkpt><trkpt lat="59.0764024761" lon="30.0264333934"><ele>85.69</ele><time>2026-04-25T08:36:50Z</time></trkpt><trkpt lat="59.0763931721" lon="30.0264377519"><ele>85.69</ele><time>2026-04-25T08:37:17Z</time></trkpt><trkpt lat="59.0763837006" lon="30.0264298730"><ele>85.69</ele><time>2026-04-25T08:37:43Z</time></trkpt><trkpt lat="59.0763814375" lon="30.0264271069"><ele>85.69</ele><time>2026-04-25T08:38:07Z</time></trkpt><trkpt lat="59.0763848741" lon="30.0264325552"><ele>86.18</ele><time>2026-04-25T08:38:33Z</time></trkpt><trkpt lat="59.0763589740" lon="30.0264114328"><ele>86.18</ele><time>2026-04-25T08:38:54Z</time></trkpt><trkpt lat="59.0763464011" lon="30.0264245924"><ele>86.18</ele><time>2026-04-25T08:38:56Z</time></trkpt><trkpt lat="59.0763447247" lon="30.0265599601"><ele>86.18</ele><time>2026-04-25T08:39:17Z</time></trkpt><trkpt lat="59.0764567070" lon="30.0266737025"><ele>85.69</ele><time>2026-04-25T08:39:32Z</time></trkpt><trkpt lat="59.0764703695" lon="30.0266592018"><ele>85.69</ele><time>2026-04-25T08:39:50Z</time></trkpt><trkpt lat="59.0765349101" lon="30.0266739540"><ele>85.69</ele><time>2026-04-25T08:40:04Z</time></trkpt><trkpt lat="59.0766108502" lon="30.0266841799"><ele>85.69</ele><time>2026-04-25T08:40:18Z</time></trkpt><trkpt lat="59.0766959265" lon="30.0266313739"><ele>85.69</ele><time>2026-04-25T08:40:29Z</time></trkpt><trkpt lat="59.0767333098" lon="30.0266239140"><ele>85.69</ele><time>2026-04-25T08:40:45Z</time></trkpt><trkpt lat="59.0768327191" lon="30.0265385862"><ele>85.69</ele><time>2026-04-25T08:40:57Z</time></trkpt><trkpt lat="59.0768607985" lon="30.0264722854"><ele>85.21</ele><time>2026-04-25T08:41:08Z</time></trkpt><trkpt lat="59.0768891294" lon="30.0263235904"><ele>85.21</ele><time>2026-04-25T08:41:20Z</time></trkpt><trkpt lat="59.0769692603" lon="30.0262455549"><ele>85.21</ele><time>2026-04-25T08:41:31Z</time></trkpt><trkpt lat="59.0770154446" lon="30.0261742249"><ele>85.21</ele><time>2026-04-25T08:41:42Z</time></trkpt><trkpt lat="59.0770309512" lon="30.0261572935"><ele>85.21</ele><time>2026-04-25T08:41:53Z</time></trkpt><trkpt lat="59.0770664066" lon="30.0261246040"><ele>85.21</ele><time>2026-04-25T08:42:06Z</time></trkpt><trkpt lat="59.0771304443" lon="30.0260897353"><ele>85.21</ele><time>2026-04-25T08:42:16Z</time></trkpt><trkpt lat="59.0771728568" lon="30.0260922499"><ele>85.21</ele><time>2026-04-25T08:42:30Z</time></trkpt><trkpt lat="59.0772407502" lon="30.0260131247"><ele>85.21</ele><time>2026-04-25T08:42:41Z</time></trkpt><trkpt lat="59.0772901196" lon="30.0259309821"><ele>85.21</ele><time>2026-04-25T08:42:53Z</time></trkpt><trkpt lat="59.0773328673" lon="30.0258884020"><ele>85.21</ele><time>2026-04-25T08:43:05Z</time></trkpt><trkpt lat="59.0773748606" lon="30.0258440617"><ele>84.73</ele><time>2026-04-25T08:43:17Z</time></trkpt><trkpt lat="59.0774590150" lon="30.0258614123"><ele>84.73</ele><time>2026-04-25T08:43:27Z</time></trkpt><trkpt lat="59.0774765331" lon="30.0258239452"><ele>84.73</ele><time>2026-04-25T08:43:31Z</time></trkpt><trkpt lat="59.0774632897" lon="30.0257769227"><ele>84.73</ele><time>2026-04-25T08:43:35Z</time></trkpt><trkpt lat="59.0775042772" lon="30.0257268827"><ele>84.73</ele><time>2026-04-25T08:43:47Z</time></trkpt><trkpt lat="59.0775450133" lon="30.0257403776"><ele>85.21</ele><time>2026-04-25T08:44:01Z</time></trkpt><trkpt lat="59.0775576700" lon="30.0257915072"><ele>85.21</ele><time>2026-04-25T08:44:14Z</time></trkpt><trkpt lat="59.0776142478" lon="30.0257953629"><ele>85.21</ele><time>2026-04-25T08:44:26Z</time></trkpt><trkpt lat="59.0776704904" lon="30.0258261245"><ele>85.21</ele><time>2026-04-25T08:44:37Z</time></trkpt><trkpt lat="59.0777397249" lon="30.0258051697"><ele>85.21</ele><time>2026-04-25T08:44:47Z</time></trkpt><trkpt lat="59.0777925309" lon="30.0257190038"><ele>85.21</ele><time>2026-04-25T08:44:58Z</time></trkpt><trkpt lat="59.0778768528" lon="30.0256972946"><ele>85.21</ele><time>2026-04-25T08:45:09Z</time></trkpt><trkpt lat="59.0779168345" lon="30.0256611686"><ele>85.21</ele><time>2026-04-25T08:45:20Z</time></trkpt><trkpt lat="59.0779765137" lon="30.0255780201"><ele>85.21</ele><time>2026-04-25T08:45:40Z</time></trkpt><trkpt lat="59.0780807007" lon="30.0255716499"><ele>85.21</ele><time>2026-04-25T08:45:52Z</time></trkpt><trkpt lat="59.0781508572" lon="30.0255494379"><ele>85.21</ele><time>2026-04-25T08:46:07Z</time></trkpt><trkpt lat="59.0782645158" lon="30.0255026668"><ele>85.21</ele><time>2026-04-25T08:46:19Z</time></trkpt><trkpt lat="59.0783243626" lon="30.0254794490"><ele>85.21</ele><time>2026-04-25T08:46:31Z</time></trkpt><trkpt lat="59.0783593990" lon="30.0254966319"><ele>85.21</ele><time>2026-04-25T08:46:37Z</time></trkpt><trkpt lat="59.0784740634" lon="30.0254765991"><ele>85.21</ele><time>2026-04-25T08:46:51Z</time></trkpt><trkpt lat="59.0785811841" lon="30.0254254695"><ele>85.21</ele><time>2026-04-25T08:47:03Z</time></trkpt><trkpt lat="59.0786468145" lon="30.0253997371"><ele>85.21</ele><time>2026-04-25T08:47:14Z</time></trkpt><trkpt lat="59.0787136182" lon="30.0252973940"><ele>85.21</ele><time>2026-04-25T08:47:28Z</time></trkpt><trkpt lat="59.0787556954" lon="30.0252008345"><ele>85.21</ele><time>2026-04-25T08:47:42Z</time></trkpt><trkpt lat="59.0788488183" lon="30.0251109805"><ele>85.21</ele><time>2026-04-25T08:47:51Z</time></trkpt><trkpt lat="59.0788989421" lon="30.0250648800"><ele>85.21</ele><time>2026-04-25T08:48:02Z</time></trkpt><trkpt lat="59.0789040551" lon="30.0250528101"><ele>85.21</ele><time>2026-04-25T08:48:14Z</time></trkpt><trkpt lat="59.0789426118" lon="30.0249927957"><ele>85.21</ele><time>2026-04-25T08:48:25Z</time></trkpt><trkpt lat="59.0790074039" lon="30.0247974135"><ele>85.21</ele><time>2026-04-25T08:48:37Z</time></trkpt><trkpt lat="59.0790689271" lon="30.0247725192"><ele>85.21</ele><time>2026-04-25T08:48:48Z</time></trkpt><trkpt lat="59.0791130997" lon="30.0247502234"><ele>85.21</ele><time>2026-04-25T08:48:59Z</time></trkpt><trkpt lat="59.0791675821" lon="30.0246799830"><ele>85.21</ele><time>2026-04-25T08:49:14Z</time></trkpt><trkpt lat="59.0792187117" lon="30.0246307813"><ele>85.21</ele><time>2026-04-25T08:49:21Z</time></trkpt><trkpt lat="59.0793513972" lon="30.0246896222"><ele>85.21</ele><time>2026-04-25T08:49:32Z</time></trkpt><trkpt lat="59.0794075560" lon="30.0247817393"><ele>85.21</ele><time>2026-04-25T08:49:44Z</time></trkpt><trkpt lat="59.0794852562" lon="30.0248145964"><ele>85.21</ele><time>2026-04-25T08:49:58Z</time></trkpt><trkpt lat="59.0795558318" lon="30.0249329489"><ele>85.21</ele><time>2026-04-25T08:50:09Z</time></trkpt><trkpt lat="59.0795746073" lon="30.0249818992"><ele>85.21</ele><time>2026-04-25T08:50:12Z</time></trkpt><trkpt lat="59.0796317719" lon="30.0249733496"><ele>85.21</ele><time>2026-04-25T08:50:24Z</time></trkpt><trkpt lat="59.0796678979" lon="30.0249611959"><ele>85.21</ele><time>2026-04-25T08:50:39Z</time></trkpt><trkpt lat="59.0796716698" lon="30.0249220524"><ele>85.21</ele><time>2026-04-25T08:51:03Z</time></trkpt><trkpt lat="59.0796799678" lon="30.0249383971"><ele>85.21</ele><time>2026-04-25T08:51:24Z</time></trkpt><trkpt lat="59.0796917025" lon="30.0249523949"><ele>85.69</ele><time>2026-04-25T08:51:48Z</time></trkpt><trkpt lat="59.0796988271" lon="30.0249895267"><ele>85.69</ele><time>2026-04-25T08:51:54Z</time></trkpt><trkpt lat="59.0797572490" lon="30.0250471942"><ele>85.69</ele><time>2026-04-25T08:52:05Z</time></trkpt><trkpt lat="59.0797845740" lon="30.0250261556"><ele>85.69</ele><time>2026-04-25T08:52:09Z</time></trkpt><trkpt lat="59.0798627771" lon="30.0250623655"><ele>85.69</ele><time>2026-04-25T08:52:19Z</time></trkpt><trkpt lat="59.0799032617" lon="30.0250650477"><ele>85.69</ele><time>2026-04-25T08:52:31Z</time></trkpt><trkpt lat="59.0799191874" lon="30.0250528101"><ele>85.69</ele><time>2026-04-25T08:52:55Z</time></trkpt><trkpt lat="59.0799502842" lon="30.0250303466"><ele>85.69</ele><time>2026-04-25T08:53:09Z</time></trkpt><trkpt lat="59.0800225362" lon="30.0249822345"><ele>85.69</ele><time>2026-04-25T08:53:22Z</time></trkpt><trkpt lat="59.0801528748" lon="30.0249762833"><ele>85.69</ele><time>2026-04-25T08:53:34Z</time></trkpt><trkpt lat="59.0802231152" lon="30.0250497088"><ele>85.69</ele><time>2026-04-25T08:53:48Z</time></trkpt><trkpt lat="59.0803214349" lon="30.0249686558"><ele>85.69</ele><time>2026-04-25T08:54:00Z</time></trkpt><trkpt lat="59.0804029908" lon="30.0248971581"><ele>85.69</ele><time>2026-04-25T08:54:15Z</time></trkpt><trkpt lat="59.0804597363" lon="30.0249038637"><ele>85.69</ele><time>2026-04-25T08:54:27Z</time></trkpt><trkpt lat="59.0805034060" lon="30.0248967391"><ele>85.69</ele><time>2026-04-25T08:54:37Z</time></trkpt><trkpt lat="59.0805399511" lon="30.0249401573"><ele>85.69</ele><time>2026-04-25T08:54:49Z</time></trkpt><trkpt lat="59.0805600677" lon="30.0249839108"><ele>85.69</ele><time>2026-04-25T08:55:03Z</time></trkpt><trkpt lat="59.0806178190" lon="30.0250146724"><ele>85.69</ele><time>2026-04-25T08:55:15Z</time></trkpt><trkpt lat="59.0806391928" lon="30.0251185242"><ele>85.69</ele><time>2026-04-25T08:55:25Z</time></trkpt><trkpt lat="59.0806625783" lon="30.0251879264"><ele>85.69</ele><time>2026-04-25T08:55:37Z</time></trkpt><trkpt lat="59.0807353333" lon="30.0252778642"><ele>85.69</ele><time>2026-04-25T08:55:49Z</time></trkpt><trkpt lat="59.0807412844" lon="30.0254501123"><ele>85.69</ele><time>2026-04-25T08:56:01Z</time></trkpt><trkpt lat="59.0807864629" lon="30.0254446641"><ele>85.69</ele><time>2026-04-25T08:56:06Z</time></trkpt><trkpt lat="59.0808240138" lon="30.0254192669"><ele>85.69</ele><time>2026-04-25T08:56:12Z</time></trkpt><trkpt lat="59.0809297934" lon="30.0253988151"><ele>85.69</ele><time>2026-04-25T08:56:23Z</time></trkpt><trkpt lat="59.0809420310" lon="30.0254009105"><ele>85.69</ele><time>2026-04-25T08:56:24Z</time></trkpt><trkpt lat="59.0809877962" lon="30.0253722444"><ele>85.69</ele><time>2026-04-25T08:56:40Z</time></trkpt><trkpt lat="59.0809935797" lon="30.0253758486"><ele>85.69</ele><time>2026-04-25T08:57:07Z</time></trkpt><trkpt lat="59.0809761453" lon="30.0253550615"><ele>85.69</ele><time>2026-04-25T08:57:30Z</time></trkpt><trkpt lat="59.0809918195" lon="30.0253176782"><ele>85.69</ele><time>2026-04-25T08:57:48Z</time></trkpt><trkpt lat="59.0809910651" lon="30.0252932031"><ele>85.69</ele><time>2026-04-25T08:58:07Z</time></trkpt><trkpt lat="59.0809857007" lon="30.0252772775"><ele>85.21</ele><time>2026-04-25T08:58:33Z</time></trkpt><trkpt lat="59.0809892211" lon="30.0252571609"><ele>85.21</ele><time>2026-04-25T08:59:08Z</time></trkpt><trkpt lat="59.0809970163" lon="30.0252675544"><ele>85.21</ele><time>2026-04-25T08:59:25Z</time></trkpt><trkpt lat="59.0810599644" lon="30.0252958853"><ele>85.21</ele><time>2026-04-25T08:59:35Z</time></trkpt><trkpt lat="59.0811118484" lon="30.0253277365"><ele>85.21</ele><time>2026-04-25T08:59:46Z</time></trkpt><trkpt lat="59.0811734553" lon="30.0253315922"><ele>85.21</ele><time>2026-04-25T08:59:56Z</time></trkpt><trkpt lat="59.0812359843" lon="30.0253011659"><ele>85.21</ele><time>2026-04-25T09:00:06Z</time></trkpt><trkpt lat="59.0813241620" lon="30.0252433307"><ele>85.21</ele><time>2026-04-25T09:00:18Z</time></trkpt><trkpt lat="59.0813757945" lon="30.0251079630"><ele>85.21</ele><time>2026-04-25T09:00:31Z</time></trkpt><trkpt lat="59.0814367309" lon="30.0250138342"><ele>85.21</ele><time>2026-04-25T09:00:41Z</time></trkpt><trkpt lat="59.0814695042" lon="30.0249791332"><ele>85.21</ele><time>2026-04-25T09:00:52Z</time></trkpt><trkpt lat="59.0815044567" lon="30.0248415023"><ele>85.21</ele><time>2026-04-25T09:01:03Z</time></trkpt><trkpt lat="59.0815792233" lon="30.0247846730"><ele>84.73</ele><time>2026-04-25T09:01:15Z</time></trkpt><trkpt lat="59.0816261619" lon="30.0246127602"><ele>84.73</ele><time>2026-04-25T09:01:24Z</time></trkpt><trkpt lat="59.0816787165" lon="30.0244730338"><ele>84.73</ele><time>2026-04-25T09:01:37Z</time></trkpt><trkpt lat="59.0816850029" lon="30.0244442839"><ele>84.73</ele><time>2026-04-25T09:01:40Z</time></trkpt><trkpt lat="59.0817399882" lon="30.0243338943"><ele>84.73</ele><time>2026-04-25T09:01:53Z</time></trkpt><trkpt lat="59.0817456879" lon="30.0242787413"><ele>84.73</ele><time>2026-04-25T09:02:04Z</time></trkpt><trkpt lat="59.0817488730" lon="30.0242509972"><ele>84.73</ele><time>2026-04-25T09:02:11Z</time></trkpt><trkpt lat="59.0817749407" lon="30.0241829362"><ele>84.73</ele><time>2026-04-25T09:02:19Z</time></trkpt><trkpt lat="59.0817874297" lon="30.0241956767"><ele>84.73</ele><time>2026-04-25T09:02:33Z</time></trkpt><trkpt lat="59.0818256512" lon="30.0242106803"><ele>84.73</ele><time>2026-04-25T09:02:50Z</time></trkpt><trkpt lat="59.0818646271" lon="30.0241208263"><ele>84.73</ele><time>2026-04-25T09:03:02Z</time></trkpt><trkpt lat="59.0819029324" lon="30.0240837783"><ele>84.73</ele><time>2026-04-25T09:03:11Z</time></trkpt><trkpt lat="59.0819271561" lon="30.0239960197"><ele>85.21</ele><time>2026-04-25T09:03:22Z</time></trkpt><trkpt lat="59.0819602646" lon="30.0239509251"><ele>85.21</ele><time>2026-04-25T09:03:33Z</time></trkpt><trkpt lat="59.0819999110" lon="30.0238759071"><ele>85.21</ele><time>2026-04-25T09:03:46Z</time></trkpt><trkpt lat="59.0820081253" lon="30.0237961113"><ele>85.21</ele><time>2026-04-25T09:04:08Z</time></trkpt><trkpt lat="59.0820440836" lon="30.0236392859"><ele>85.21</ele><time>2026-04-25T09:04:19Z</time></trkpt><trkpt lat="59.0820534714" lon="30.0236050878"><ele>85.21</ele><time>2026-04-25T09:04:24Z</time></trkpt><trkpt lat="59.0820874181" lon="30.0235134736"><ele>85.21</ele><time>2026-04-25T09:04:36Z</time></trkpt><trkpt lat="59.0821292438" lon="30.0234254636"><ele>84.73</ele><time>2026-04-25T09:04:47Z</time></trkpt><trkpt lat="59.0821284894" lon="30.0234288163"><ele>84.73</ele><time>2026-04-25T09:04:57Z</time></trkpt><trkpt lat="59.0821537189" lon="30.0233710650"><ele>84.73</ele><time>2026-04-25T09:05:07Z</time></trkpt><trkpt lat="59.0821855702" lon="30.0233283173"><ele>84.73</ele><time>2026-04-25T09:05:19Z</time></trkpt><trkpt lat="59.0822238754" lon="30.0233033393"><ele>84.73</ele><time>2026-04-25T09:05:33Z</time></trkpt><trkpt lat="59.0822907630" lon="30.0232304167"><ele>84.73</ele><time>2026-04-25T09:05:46Z</time></trkpt><trkpt lat="59.0823040903" lon="30.0232398883"><ele>83.77</ele><time>2026-04-25T09:06:05Z</time></trkpt><trkpt lat="59.0823092032" lon="30.0232399721"><ele>83.77</ele><time>2026-04-25T09:06:28Z</time></trkpt><trkpt lat="59.0823065210" lon="30.0232327636"><ele>83.29</ele><time>2026-04-25T09:06:56Z</time></trkpt><trkpt lat="59.0823057666" lon="30.0232460909"><ele>83.29</ele><time>2026-04-25T09:07:27Z</time></trkpt><trkpt lat="59.0823033359" lon="30.0232524611"><ele>83.29</ele><time>2026-04-25T09:07:59Z</time></trkpt><trkpt lat="59.0823174175" lon="30.0232709851"><ele>82.81</ele><time>2026-04-25T09:08:14Z</time></trkpt><trkpt lat="59.0823397133" lon="30.0233348552"><ele>82.81</ele><time>2026-04-25T09:08:21Z</time></trkpt><trkpt lat="59.0823920164" lon="30.0234351028"><ele>82.81</ele><time>2026-04-25T09:08:32Z</time></trkpt><trkpt lat="59.0824468341" lon="30.0235317461"><ele>82.81</ele><time>2026-04-25T09:08:44Z</time></trkpt><trkpt lat="59.0825064294" lon="30.0236246176"><ele>82.81</ele><time>2026-04-25T09:08:55Z</time></trkpt><trkpt lat="59.0825666115" lon="30.0237645954"><ele>82.81</ele><time>2026-04-25T09:09:07Z</time></trkpt><trkpt lat="59.0826324094" lon="30.0239522662"><ele>82.81</ele><time>2026-04-25T09:09:17Z</time></trkpt><trkpt lat="59.0826917533" lon="30.0241128635"><ele>82.81</ele><time>2026-04-25T09:09:28Z</time></trkpt><trkpt lat="59.0827570483" lon="30.0241878815"><ele>82.81</ele><time>2026-04-25T09:09:40Z</time></trkpt><trkpt lat="59.0828126203" lon="30.0241843611"><ele>82.81</ele><time>2026-04-25T09:09:51Z</time></trkpt><trkpt lat="59.0828631632" lon="30.0242329761"><ele>82.81</ele><time>2026-04-25T09:10:02Z</time></trkpt><trkpt lat="59.0829300508" lon="30.0242857821"><ele>82.81</ele><time>2026-04-25T09:10:11Z</time></trkpt><trkpt lat="59.0829302184" lon="30.0243224949"><ele>82.81</ele><time>2026-04-25T09:10:22Z</time></trkpt><trkpt lat="59.0829220880" lon="30.0243522506"><ele>82.81</ele><time>2026-04-25T09:10:35Z</time></trkpt><trkpt lat="59.0829322301" lon="30.0243649073"><ele>82.81</ele><time>2026-04-25T09:10:49Z</time></trkpt><trkpt lat="59.0829411149" lon="30.0243949145"><ele>82.81</ele><time>2026-04-25T09:11:03Z</time></trkpt><trkpt lat="59.0829744749" lon="30.0244846847"><ele>82.81</ele><time>2026-04-25T09:11:16Z</time></trkpt><trkpt lat="59.0830360819" lon="30.0244798232"><ele>82.81</ele><time>2026-04-25T09:11:30Z</time></trkpt><trkpt lat="59.0831111837" lon="30.0245616306"><ele>82.81</ele><time>2026-04-25T09:11:42Z</time></trkpt><trkpt lat="59.0831396822" lon="30.0245943200"><ele>82.81</ele><time>2026-04-25T09:11:51Z</time></trkpt><trkpt lat="59.0831468906" lon="30.0245960802"><ele>82.81</ele><time>2026-04-25T09:12:11Z</time></trkpt><trkpt lat="59.0831517521" lon="30.0245720241"><ele>82.81</ele><time>2026-04-25T09:12:30Z</time></trkpt><trkpt lat="59.0831570327" lon="30.0245826691"><ele>82.81</ele><time>2026-04-25T09:13:00Z</time></trkpt><trkpt lat="59.0831534285" lon="30.0246124249"><ele>82.81</ele><time>2026-04-25T09:13:22Z</time></trkpt><trkpt lat="59.0831417777" lon="30.0246848445"><ele>82.81</ele><time>2026-04-25T09:13:33Z</time></trkpt><trkpt lat="59.0831577871" lon="30.0247498043"><ele>82.81</ele><time>2026-04-25T09:13:45Z</time></trkpt><trkpt lat="59.0831553563" lon="30.0247619580"><ele>82.81</ele><time>2026-04-25T09:13:51Z</time></trkpt><trkpt lat="59.0831772331" lon="30.0248085614"><ele>82.81</ele><time>2026-04-25T09:14:02Z</time></trkpt><trkpt lat="59.0831848606" lon="30.0248048734"><ele>82.81</ele><time>2026-04-25T09:14:05Z</time></trkpt><trkpt lat="59.0832335595" lon="30.0247890316"><ele>82.81</ele><time>2026-04-25T09:14:19Z</time></trkpt><trkpt lat="59.0832394268" lon="30.0247912947"><ele>82.81</ele><time>2026-04-25T09:14:31Z</time></trkpt><trkpt lat="59.0832654107" lon="30.0248061307"><ele>82.81</ele><time>2026-04-25T09:14:57Z</time></trkpt><trkpt lat="59.0832705237" lon="30.0248028617"><ele>82.33</ele><time>2026-04-25T09:15:19Z</time></trkpt><trkpt lat="59.0832633153" lon="30.0248004310"><ele>82.33</ele><time>2026-04-25T09:15:34Z</time></trkpt><trkpt lat="59.0832744632" lon="30.0247779675"><ele>82.33</ele><time>2026-04-25T09:16:03Z</time></trkpt><trkpt lat="59.0832813364" lon="30.0247601978"><ele>81.85</ele><time>2026-04-25T09:16:35Z</time></trkpt><trkpt lat="59.0832919814" lon="30.0247654784"><ele>81.85</ele><time>2026-04-25T09:17:00Z</time></trkpt><trkpt lat="59.0833437815" lon="30.0246093236"><ele>81.85</ele><time>2026-04-25T09:17:13Z</time></trkpt><trkpt lat="59.0833469667" lon="30.0245765503"><ele>81.37</ele><time>2026-04-25T09:17:36Z</time></trkpt><trkpt lat="59.0833539236" lon="30.0245935656"><ele>81.37</ele><time>2026-04-25T09:17:49Z</time></trkpt><trkpt lat="59.0833808295" lon="30.0246190466"><ele>81.37</ele><time>2026-04-25T09:18:01Z</time></trkpt><trkpt lat="59.0833949950" lon="30.0245819986"><ele>81.37</ele><time>2026-04-25T09:18:14Z</time></trkpt><trkpt lat="59.0834098309" lon="30.0245402567"><ele>81.37</ele><time>2026-04-25T09:18:29Z</time></trkpt><trkpt lat="59.0834312048" lon="30.0244597066"><ele>81.37</ele><time>2026-04-25T09:18:46Z</time></trkpt><trkpt lat="59.0834161174" lon="30.0244455412"><ele>81.37</ele><time>2026-04-25T09:18:54Z</time></trkpt><trkpt lat="59.0834395029" lon="30.0244775601"><ele>80.89</ele><time>2026-04-25T09:19:08Z</time></trkpt><trkpt lat="59.0834586974" lon="30.0244307891"><ele>80.89</ele><time>2026-04-25T09:19:18Z</time></trkpt><trkpt lat="59.0834742878" lon="30.0243839342"><ele>80.89</ele><time>2026-04-25T09:19:28Z</time></trkpt><trkpt lat="59.0835045464" lon="30.0243164599"><ele>80.89</ele><time>2026-04-25T09:19:42Z</time></trkpt><trkpt lat="59.0835058875" lon="30.0243059825"><ele>81.85</ele><time>2026-04-25T09:19:44Z</time></trkpt><trkpt lat="59.0835155267" lon="30.0242570322"><ele>81.85</ele><time>2026-04-25T09:20:02Z</time></trkpt><trkpt lat="59.0835139342" lon="30.0241685193"><ele>81.85</ele><time>2026-04-25T09:20:14Z</time></trkpt><trkpt lat="59.0835572686" lon="30.0240030605"><ele>81.85</ele><time>2026-04-25T09:20:26Z</time></trkpt><trkpt lat="59.0835714340" lon="30.0238940958"><ele>81.85</ele><time>2026-04-25T09:20:43Z</time></trkpt><trkpt lat="59.0835773852" lon="30.0238499232"><ele>81.37</ele><time>2026-04-25T09:20:58Z</time></trkpt><trkpt lat="59.0835732780" lon="30.0237338338"><ele>81.37</ele><time>2026-04-25T09:21:07Z</time></trkpt><trkpt lat="59.0835653991" lon="30.0236368552"><ele>81.37</ele><time>2026-04-25T09:21:18Z</time></trkpt><trkpt lat="59.0835916344" lon="30.0235515274"><ele>81.37</ele><time>2026-04-25T09:21:29Z</time></trkpt><trkpt lat="59.0836205520" lon="30.0234684628"><ele>80.89</ele><time>2026-04-25T09:21:44Z</time></trkpt><trkpt lat="59.0836553369" lon="30.0233537983"><ele>80.89</ele><time>2026-04-25T09:21:54Z</time></trkpt><trkpt lat="59.0836927202" lon="30.0232926942"><ele>80.41</ele><time>2026-04-25T09:22:05Z</time></trkpt><trkpt lat="59.0837055445" lon="30.0231792033"><ele>80.41</ele><time>2026-04-25T09:22:17Z</time></trkpt><trkpt lat="59.0837973263" lon="30.0231434125"><ele>79.93</ele><time>2026-04-25T09:22:31Z</time></trkpt><trkpt lat="59.0838792175" lon="30.0231450889"><ele>79.93</ele><time>2026-04-25T09:22:44Z</time></trkpt><trkpt lat="59.0839547385" lon="30.0231596734"><ele>79.45</ele><time>2026-04-25T09:22:56Z</time></trkpt><trkpt lat="59.0839989949" lon="30.0232111383"><ele>79.45</ele><time>2026-04-25T09:23:10Z</time></trkpt><trkpt lat="59.0840169322" lon="30.0232466776"><ele>78.97</ele><time>2026-04-25T09:23:21Z</time></trkpt><trkpt lat="59.0840502921" lon="30.0232353620"><ele>78.97</ele><time>2026-04-25T09:23:34Z</time></trkpt><trkpt lat="59.0841435827" lon="30.0233001541"><ele>78.48</ele><time>2026-04-25T09:23:48Z</time></trkpt><trkpt lat="59.0841978975" lon="30.0233439915"><ele>77.52</ele><time>2026-04-25T09:24:03Z</time></trkpt><trkpt lat="59.0842428245" lon="30.0233978033"><ele>77.52</ele><time>2026-04-25T09:24:15Z</time></trkpt><trkpt lat="59.0842951275" lon="30.0234397128"><ele>77.04</ele><time>2026-04-25T09:24:27Z</time></trkpt><trkpt lat="59.0843375400" lon="30.0234781858"><ele>77.04</ele><time>2026-04-25T09:24:39Z</time></trkpt><trkpt lat="59.0843422338" lon="30.0234931055"><ele>77.04</ele><time>2026-04-25T09:24:41Z</time></trkpt><trkpt lat="59.0843891725" lon="30.0235976279"><ele>77.04</ele><time>2026-04-25T09:24:55Z</time></trkpt><trkpt lat="59.0844703931" lon="30.0235849712"><ele>76.56</ele><time>2026-04-25T09:25:08Z</time></trkpt><trkpt lat="59.0844967961" lon="30.0235953648"><ele>76.56</ele><time>2026-04-25T09:25:19Z</time></trkpt><trkpt lat="59.0845842194" lon="30.0235030800"><ele>76.56</ele><time>2026-04-25T09:25:35Z</time></trkpt><trkpt lat="59.0847078525" lon="30.0234391261"><ele>76.08</ele><time>2026-04-25T09:25:46Z</time></trkpt><trkpt lat="59.0847073495" lon="30.0234239548"><ele>76.08</ele><time>2026-04-25T09:25:59Z</time></trkpt><trkpt lat="59.0847439785" lon="30.0234022457"><ele>76.08</ele><time>2026-04-25T09:26:19Z</time></trkpt><trkpt lat="59.0847511031" lon="30.0233637728"><ele>76.08</ele><time>2026-04-25T09:26:21Z</time></trkpt><trkpt lat="59.0847678669" lon="30.0232145749"><ele>76.08</ele><time>2026-04-25T09:26:31Z</time></trkpt><trkpt lat="59.0847819485" lon="30.0231368747"><ele>76.08</ele><time>2026-04-25T09:26:40Z</time></trkpt><trkpt lat="59.0848138835" lon="30.0230958033"><ele>77.04</ele><time>2026-04-25T09:26:53Z</time></trkpt><trkpt lat="59.0848246124" lon="30.0230764411"><ele>77.04</ele><time>2026-04-25T09:27:07Z</time></trkpt><trkpt lat="59.0848358441" lon="30.0230524689"><ele>77.04</ele><time>2026-04-25T09:27:34Z</time></trkpt><trkpt lat="59.0848225169" lon="30.0230494514"><ele>76.56</ele><time>2026-04-25T09:28:04Z</time></trkpt><trkpt lat="59.0848271269" lon="30.0230461825"><ele>76.56</ele><time>2026-04-25T09:28:33Z</time></trkpt><trkpt lat="59.0848362632" lon="30.0230251439"><ele>76.56</ele><time>2026-04-25T09:29:02Z</time></trkpt><trkpt lat="59.0848371014" lon="30.0230172649"><ele>76.56</ele><time>2026-04-25T09:29:27Z</time></trkpt><trkpt lat="59.0848366823" lon="30.0229949690"><ele>75.60</ele><time>2026-04-25T09:29:55Z</time></trkpt><trkpt lat="59.0848277975" lon="30.0229965616"><ele>75.60</ele><time>2026-04-25T09:30:15Z</time></trkpt><trkpt lat="59.0848312341" lon="30.0230101403"><ele>75.12</ele><time>2026-04-25T09:30:35Z</time></trkpt><trkpt lat="59.0848369338" lon="30.0229854137"><ele>75.12</ele><time>2026-04-25T09:30:59Z</time></trkpt><trkpt lat="59.0848382749" lon="30.0229819771"><ele>75.12</ele><time>2026-04-25T09:31:22Z</time></trkpt><trkpt lat="59.0848437231" lon="30.0229769479"><ele>75.12</ele><time>2026-04-25T09:31:48Z</time></trkpt><trkpt lat="59.0848390292" lon="30.0229869224"><ele>75.12</ele><time>2026-04-25T09:32:05Z</time></trkpt><trkpt lat="59.0848340839" lon="30.0229797978"><ele>75.12</ele><time>2026-04-25T09:32:29Z</time></trkpt><trkpt lat="59.0848258696" lon="30.0229740143"><ele>75.12</ele><time>2026-04-25T09:32:48Z</time></trkpt><trkpt lat="59.0848260373" lon="30.0229575858"><ele>75.12</ele><time>2026-04-25T09:33:06Z</time></trkpt><trkpt lat="59.0848357603" lon="30.0229658000"><ele>75.12</ele><time>2026-04-25T09:33:28Z</time></trkpt><trkpt lat="59.0848328266" lon="30.0229124073"><ele>75.12</ele><time>2026-04-25T09:33:51Z</time></trkpt><trkpt lat="59.0848414600" lon="30.0228565000"><ele>75.12</ele><time>2026-04-25T09:34:02Z</time></trkpt><trkpt lat="59.0848407056" lon="30.0227587670"><ele>75.12</ele><time>2026-04-25T09:34:15Z</time></trkpt><trkpt lat="59.0848241094" lon="30.0225137640"><ele>74.64</ele><time>2026-04-25T09:34:28Z</time></trkpt><trkpt lat="59.0847812779" lon="30.0222588703"><ele>74.64</ele><time>2026-04-25T09:34:40Z</time></trkpt><trkpt lat="59.0847742371" lon="30.0221495703"><ele>74.64</ele><time>2026-04-25T09:34:51Z</time></trkpt><trkpt lat="59.0847613290" lon="30.0220165495"><ele>74.64</ele><time>2026-04-25T09:35:06Z</time></trkpt><trkpt lat="59.0847331658" lon="30.0219273660"><ele>74.64</ele><time>2026-04-25T09:35:23Z</time></trkpt><trkpt lat="59.0847264603" lon="30.0219123624"><ele>74.64</ele><time>2026-04-25T09:35:54Z</time></trkpt><trkpt lat="59.0847234428" lon="30.0218832772"><ele>74.64</ele><time>2026-04-25T09:36:07Z</time></trkpt><trkpt lat="59.0847058408" lon="30.0217875559"><ele>74.64</ele><time>2026-04-25T09:36:13Z</time></trkpt><trkpt lat="59.0847129654" lon="30.0217015576"><ele>74.64</ele><time>2026-04-25T09:36:24Z</time></trkpt><trkpt lat="59.0847127140" lon="30.0216742326"><ele>74.64</ele><time>2026-04-25T09:36:46Z</time></trkpt><trkpt lat="59.0847080201" lon="30.0216512661"><ele>74.64</ele><time>2026-04-25T09:37:08Z</time></trkpt><trkpt lat="59.0847011469" lon="30.0215477496"><ele>74.64</ele><time>2026-04-25T09:37:20Z</time></trkpt><trkpt lat="59.0846509393" lon="30.0213957019"><ele>74.16</ele><time>2026-04-25T09:37:32Z</time></trkpt><trkpt lat="59.0846089460" lon="30.0211845618"><ele>74.16</ele><time>2026-04-25T09:37:46Z</time></trkpt><trkpt lat="59.0846064314" lon="30.0211592484"><ele>74.16</ele><time>2026-04-25T09:38:00Z</time></trkpt><trkpt lat="59.0846102033" lon="30.0211504474"><ele>74.16</ele><time>2026-04-25T09:38:02Z</time></trkpt><trkpt lat="59.0846294817" lon="30.0209916942"><ele>74.16</ele><time>2026-04-25T09:38:14Z</time></trkpt><trkpt lat="59.0846274700" lon="30.0209886767"><ele>74.16</ele><time>2026-04-25T09:38:15Z</time></trkpt><trkpt lat="59.0846092813" lon="30.0208785385"><ele>74.16</ele><time>2026-04-25T09:38:25Z</time></trkpt><trkpt lat="59.0845977142" lon="30.0207958929"><ele>74.16</ele><time>2026-04-25T09:38:30Z</time></trkpt><trkpt lat="59.0846018214" lon="30.0207179412"><ele>74.16</ele><time>2026-04-25T09:38:38Z</time></trkpt><trkpt lat="59.0845569782" lon="30.0205857586"><ele>74.16</ele><time>2026-04-25T09:38:48Z</time></trkpt><trkpt lat="59.0845281444" lon="30.0205767900"><ele>74.16</ele><time>2026-04-25T09:38:54Z</time></trkpt><trkpt lat="59.0845111292" lon="30.0205185357"><ele>74.16</ele><time>2026-04-25T09:39:05Z</time></trkpt><trkpt lat="59.0844970476" lon="30.0204539951"><ele>74.16</ele><time>2026-04-25T09:39:21Z</time></trkpt><trkpt lat="59.0845034178" lon="30.0204282627"><ele>74.16</ele><time>2026-04-25T09:39:37Z</time></trkpt><trkpt lat="59.0844873246" lon="30.0203659013"><ele>74.16</ele><time>2026-04-25T09:40:06Z</time></trkpt><trkpt lat="59.0844921023" lon="30.0202918891"><ele>74.16</ele><time>2026-04-25T09:40:23Z</time></trkpt><trkpt lat="59.0844962932" lon="30.0202253368"><ele>74.16</ele><time>2026-04-25T09:40:28Z</time></trkpt><trkpt lat="59.0844788589" lon="30.0201022904"><ele>74.16</ele><time>2026-04-25T09:40:39Z</time></trkpt><trkpt lat="59.0844730753" lon="30.0200074911"><ele>74.16</ele><time>2026-04-25T09:40:51Z</time></trkpt><trkpt lat="59.0844486840" lon="30.0198299624"><ele>74.16</ele><time>2026-04-25T09:41:03Z</time></trkpt><trkpt lat="59.0844429843" lon="30.0196389388"><ele>74.16</ele><time>2026-04-25T09:41:16Z</time></trkpt><trkpt lat="59.0844273102" lon="30.0194970332"><ele>74.16</ele><time>2026-04-25T09:41:27Z</time></trkpt><trkpt lat="59.0844107978" lon="30.0193704665"><ele>74.16</ele><time>2026-04-25T09:41:34Z</time></trkpt><trkpt lat="59.0843776055" lon="30.0191750843"><ele>74.16</ele><time>2026-04-25T09:41:46Z</time></trkpt><trkpt lat="59.0843475144" lon="30.0190030038"><ele>74.16</ele><time>2026-04-25T09:41:58Z</time></trkpt><trkpt lat="59.0843356960" lon="30.0188850705"><ele>74.16</ele><time>2026-04-25T09:42:09Z</time></trkpt><trkpt lat="59.0843351930" lon="30.0188029278"><ele>75.12</ele><time>2026-04-25T09:42:19Z</time></trkpt><trkpt lat="59.0842907690" lon="30.0187032670"><ele>75.60</ele><time>2026-04-25T09:42:35Z</time></trkpt><trkpt lat="59.0842884220" lon="30.0186991598"><ele>75.60</ele><time>2026-04-25T09:42:52Z</time></trkpt><trkpt lat="59.0842917748" lon="30.0187004171"><ele>75.60</ele><time>2026-04-25T09:43:18Z</time></trkpt><trkpt lat="59.0842957143" lon="30.0187031832"><ele>75.60</ele><time>2026-04-25T09:43:39Z</time></trkpt><trkpt lat="59.0842866618" lon="30.0187002495"><ele>75.60</ele><time>2026-04-25T09:43:59Z</time></trkpt><trkpt lat="59.0842264798" lon="30.0186912809"><ele>75.60</ele><time>2026-04-25T09:44:05Z</time></trkpt><trkpt lat="59.0841757692" lon="30.0187333580"><ele>74.64</ele><time>2026-04-25T09:44:17Z</time></trkpt><trkpt lat="59.0841061994" lon="30.0188137405"><ele>74.64</ele><time>2026-04-25T09:44:29Z</time></trkpt><trkpt lat="59.0840566624" lon="30.0188422389"><ele>74.64</ele><time>2026-04-25T09:44:41Z</time></trkpt><trkpt lat="59.0840363782" lon="30.0188641157"><ele>74.64</ele><time>2026-04-25T09:44:51Z</time></trkpt><trkpt lat="59.0839495417" lon="30.0188044365"><ele>74.64</ele><time>2026-04-25T09:45:03Z</time></trkpt><trkpt lat="59.0838502999" lon="30.0188870821"><ele>74.64</ele><time>2026-04-25T09:45:17Z</time></trkpt><trkpt lat="59.0837952308" lon="30.0188910216"><ele>74.64</ele><time>2026-04-25T09:45:26Z</time></trkpt><trkpt lat="59.0836606175" lon="30.0188880879"><ele>74.16</ele><time>2026-04-25T09:45:40Z</time></trkpt><trkpt lat="59.0836208034" lon="30.0189033430"><ele>74.16</ele><time>2026-04-25T09:45:44Z</time></trkpt><trkpt lat="59.0835570171" lon="30.0188813824"><ele>74.16</ele><time>2026-04-25T09:45:51Z</time></trkpt><trkpt lat="59.0835364815" lon="30.0188805442"><ele>74.16</ele><time>2026-04-25T09:45:53Z</time></trkpt><trkpt lat="59.0834784787" lon="30.0189279858"><ele>74.16</ele><time>2026-04-25T09:46:05Z</time></trkpt><trkpt lat="59.0834790654" lon="30.0189231243"><ele>74.16</ele><time>2026-04-25T09:46:37Z</time></trkpt><trkpt lat="59.0834928956" lon="30.0189766847"><ele>73.20</ele><time>2026-04-25T09:46:56Z</time></trkpt><trkpt lat="59.0835206397" lon="30.0190810394"><ele>73.20</ele><time>2026-04-25T09:47:03Z</time></trkpt><trkpt lat="59.0835310332" lon="30.0191776827"><ele>73.20</ele><time>2026-04-25T09:47:08Z</time></trkpt><trkpt lat="59.0835486352" lon="30.0193171576"><ele>73.20</ele><time>2026-04-25T09:47:21Z</time></trkpt><trkpt lat="59.0835691709" lon="30.0194449816"><ele>74.16</ele><time>2026-04-25T09:47:30Z</time></trkpt><trkpt lat="59.0835927241" lon="30.0195723865"><ele>74.16</ele><time>2026-04-25T09:47:40Z</time></trkpt><trkpt lat="59.0835921373" lon="30.0195917487"><ele>74.16</ele><time>2026-04-25T09:47:41Z</time></trkpt><trkpt lat="59.0835964121" lon="30.0197387673"><ele>74.16</ele><time>2026-04-25T09:47:51Z</time></trkpt><trkpt lat="59.0835912153" lon="30.0198266096"><ele>74.16</ele><time>2026-04-25T09:48:01Z</time></trkpt><trkpt lat="59.0835964959" lon="30.0199924037"><ele>74.16</ele><time>2026-04-25T09:48:13Z</time></trkpt><trkpt lat="59.0835975856" lon="30.0201192219"><ele>74.16</ele><time>2026-04-25T09:48:24Z</time></trkpt><trkpt lat="59.0835799836" lon="30.0203581899"><ele>74.16</ele><time>2026-04-25T09:48:37Z</time></trkpt><trkpt lat="59.0835694224" lon="30.0204897858"><ele>74.16</ele><time>2026-04-25T09:48:49Z</time></trkpt><trkpt lat="59.0835946519" lon="30.0206665602"><ele>74.16</ele><time>2026-04-25T09:49:05Z</time></trkpt><trkpt lat="59.0835898742" lon="30.0207521394"><ele>74.16</ele><time>2026-04-25T09:49:17Z</time></trkpt><trkpt lat="59.0836221445" lon="30.0209078752"><ele>74.16</ele><time>2026-04-25T09:49:33Z</time></trkpt><trkpt lat="59.0836314484" lon="30.0209946278"><ele>74.16</ele><time>2026-04-25T09:49:45Z</time></trkpt><trkpt lat="59.0836256649" lon="30.0210721605"><ele>74.64</ele><time>2026-04-25T09:49:58Z</time></trkpt><trkpt lat="59.0836201329" lon="30.0211874116"><ele>74.16</ele><time>2026-04-25T09:50:10Z</time></trkpt><trkpt lat="59.0836492181" lon="30.0213518646"><ele>74.16</ele><time>2026-04-25T09:50:24Z</time></trkpt><trkpt lat="59.0836767945" lon="30.0215696264"><ele>74.16</ele><time>2026-04-25T09:50:36Z</time></trkpt><trkpt lat="59.0836972464" lon="30.0216381066"><ele>74.16</ele><time>2026-04-25T09:50:49Z</time></trkpt><trkpt lat="59.0837476216" lon="30.0217752345"><ele>74.16</ele><time>2026-04-25T09:51:02Z</time></trkpt><trkpt lat="59.0838209633" lon="30.0219004601"><ele>74.16</ele><time>2026-04-25T09:51:19Z</time></trkpt><trkpt lat="59.0838710032" lon="30.0219645817"><ele>74.16</ele><time>2026-04-25T09:51:31Z</time></trkpt><trkpt lat="59.0839132480" lon="30.0219844468"><ele>73.68</ele><time>2026-04-25T09:51:47Z</time></trkpt><trkpt lat="59.0839391481" lon="30.0219873805"><ele>73.68</ele><time>2026-04-25T09:52:01Z</time></trkpt><trkpt lat="59.0839606058" lon="30.0220034737"><ele>73.68</ele><time>2026-04-25T09:52:17Z</time></trkpt><trkpt lat="59.0839918703" lon="30.0220591296"><ele>73.68</ele><time>2026-04-25T09:52:39Z</time></trkpt><trkpt lat="59.0840185247" lon="30.0220834371"><ele>73.68</ele><time>2026-04-25T09:53:06Z</time></trkpt><trkpt lat="59.0840098076" lon="30.0220754743"><ele>73.68</ele><time>2026-04-25T09:53:21Z</time></trkpt><trkpt lat="59.0840038564" lon="30.0220879633"><ele>73.68</ele><time>2026-04-25T09:53:37Z</time></trkpt><trkpt lat="59.0839827340" lon="30.0221321359"><ele>73.68</ele><time>2026-04-25T09:53:51Z</time></trkpt><trkpt lat="59.0839089733" lon="30.0222077407"><ele>73.68</ele><time>2026-04-25T09:54:05Z</time></trkpt><trkpt lat="59.0838878509" lon="30.0222214870"><ele>74.16</ele><time>2026-04-25T09:54:18Z</time></trkpt><trkpt lat="59.0838817321" lon="30.0221923180"><ele>74.16</ele><time>2026-04-25T09:54:29Z</time></trkpt><trkpt lat="59.0838472825" lon="30.0220939144"><ele>74.16</ele><time>2026-04-25T09:54:41Z</time></trkpt><trkpt lat="59.0838449355" lon="30.0220542680"><ele>74.16</ele><time>2026-04-25T09:54:53Z</time></trkpt><trkpt lat="59.0838189516" lon="30.0220370851"><ele>73.68</ele><time>2026-04-25T09:55:09Z</time></trkpt><trkpt lat="59.0837904532" lon="30.0220399350"><ele>74.16</ele><time>2026-04-25T09:55:21Z</time></trkpt><trkpt lat="59.0837609489" lon="30.0220292062"><ele>74.16</ele><time>2026-04-25T09:55:31Z</time></trkpt><trkpt lat="59.0837203804" lon="30.0219728798"><ele>74.16</ele><time>2026-04-25T09:55:44Z</time></trkpt><trkpt lat="59.0836664848" lon="30.0219088420"><ele>74.16</ele><time>2026-04-25T09:55:57Z</time></trkpt><trkpt lat="59.0836553369" lon="30.0218997896"><ele>74.16</ele><time>2026-04-25T09:56:14Z</time></trkpt><trkpt lat="59.0836317837" lon="30.0218565390"><ele>73.68</ele><time>2026-04-25T09:56:20Z</time></trkpt><trkpt lat="59.0835949872" lon="30.0217790063"><ele>74.16</ele><time>2026-04-25T09:56:34Z</time></trkpt><trkpt lat="59.0835488029" lon="30.0217188243"><ele>74.16</ele><time>2026-04-25T09:56:42Z</time></trkpt><trkpt lat="59.0834689233" lon="30.0217060838"><ele>74.16</ele><time>2026-04-25T09:56:54Z</time></trkpt><trkpt lat="59.0834073164" lon="30.0217444729"><ele>74.16</ele><time>2026-04-25T09:57:07Z</time></trkpt><trkpt lat="59.0833897982" lon="30.0217583030"><ele>74.16</ele><time>2026-04-25T09:57:24Z</time></trkpt><trkpt lat="59.0833687596" lon="30.0217935070"><ele>74.16</ele><time>2026-04-25T09:57:39Z</time></trkpt><trkpt lat="59.0833150316" lon="30.0218604784"><ele>74.16</ele><time>2026-04-25T09:57:53Z</time></trkpt><trkpt lat="59.0832946636" lon="30.0218638312"><ele>74.16</ele><time>2026-04-25T09:58:15Z</time></trkpt><trkpt lat="59.0832904726" lon="30.0218676869"><ele>74.16</ele><time>2026-04-25T09:58:33Z</time></trkpt><trkpt lat="59.0832844377" lon="30.0218687765"><ele>74.16</ele><time>2026-04-25T09:58:48Z</time></trkpt><trkpt lat="59.0832688473" lon="30.0218581315"><ele>74.16</ele><time>2026-04-25T09:59:01Z</time></trkpt><trkpt lat="59.0832499880" lon="30.0218515098"><ele>74.16</ele><time>2026-04-25T09:59:11Z</time></trkpt><trkpt lat="59.0832315478" lon="30.0218603946"><ele>74.16</ele><time>2026-04-25T09:59:28Z</time></trkpt><trkpt lat="59.0832124371" lon="30.0218348298"><ele>74.16</ele><time>2026-04-25T09:59:56Z</time></trkpt><trkpt lat="59.0832084976" lon="30.0218418706"><ele>74.16</ele><time>2026-04-25T10:00:09Z</time></trkpt><trkpt lat="59.0831927396" lon="30.0218703691"><ele>74.16</ele><time>2026-04-25T10:00:32Z</time></trkpt><trkpt lat="59.0831873752" lon="30.0218762364"><ele>73.68</ele><time>2026-04-25T10:00:50Z</time></trkpt><trkpt lat="59.0831753891" lon="30.0218915753"><ele>73.68</ele><time>2026-04-25T10:01:14Z</time></trkpt><trkpt lat="59.0831587091" lon="30.0219311379"><ele>73.68</ele><time>2026-04-25T10:01:26Z</time></trkpt><trkpt lat="59.0831203200" lon="30.0220449641"><ele>73.68</ele><time>2026-04-25T10:01:41Z</time></trkpt><trkpt lat="59.0830971021" lon="30.0221321359"><ele>73.68</ele><time>2026-04-25T10:01:52Z</time></trkpt><trkpt lat="59.0831028018" lon="30.0221744645"><ele>74.16</ele><time>2026-04-25T10:02:08Z</time></trkpt><trkpt lat="59.0831065737" lon="30.0221977662"><ele>74.16</ele><time>2026-04-25T10:02:32Z</time></trkpt><trkpt lat="59.0831040591" lon="30.0223183818"><ele>74.16</ele><time>2026-04-25T10:02:47Z</time></trkpt><trkpt lat="59.0831180569" lon="30.0224146899"><ele>74.16</ele><time>2026-04-25T10:03:03Z</time></trkpt><trkpt lat="59.0831286181" lon="30.0224834215"><ele>74.16</ele><time>2026-04-25T10:03:27Z</time></trkpt><trkpt lat="59.0831122734" lon="30.0225083996"><ele>74.16</ele><time>2026-04-25T10:03:40Z</time></trkpt><trkpt lat="59.0831174701" lon="30.0225912128"><ele>74.16</ele><time>2026-04-25T10:03:52Z</time></trkpt><trkpt lat="59.0831157099" lon="30.0227227248"><ele>74.16</ele><time>2026-04-25T10:04:03Z</time></trkpt><trkpt lat="59.0831026342" lon="30.0227654725"><ele>74.16</ele><time>2026-04-25T10:04:16Z</time></trkpt><trkpt lat="59.0830908157" lon="30.0227974076"><ele>74.16</ele><time>2026-04-25T10:04:27Z</time></trkpt><trkpt lat="59.0830897260" lon="30.0228118245"><ele>74.64</ele><time>2026-04-25T10:04:51Z</time></trkpt><trkpt lat="59.0830819309" lon="30.0228203740"><ele>74.64</ele><time>2026-04-25T10:05:18Z</time></trkpt><trkpt lat="59.0830836073" lon="30.0228211284"><ele>74.64</ele><time>2026-04-25T10:05:33Z</time></trkpt><trkpt lat="59.0830856189" lon="30.0228269957"><ele>74.64</ele><time>2026-04-25T10:05:58Z</time></trkpt><trkpt lat="59.0830894746" lon="30.0228150934"><ele>74.64</ele><time>2026-04-25T10:06:18Z</time></trkpt><trkpt lat="59.0830897260" lon="30.0228119921"><ele>74.64</ele><time>2026-04-25T10:06:42Z</time></trkpt><trkpt lat="59.0830824338" lon="30.0228103995"><ele>74.64</ele><time>2026-04-25T10:07:00Z</time></trkpt><trkpt lat="59.0830720402" lon="30.0227955636"><ele>74.64</ele><time>2026-04-25T10:07:17Z</time></trkpt><trkpt lat="59.0830813441" lon="30.0227472838"><ele>74.64</ele><time>2026-04-25T10:07:28Z</time></trkpt><trkpt lat="59.0830542706" lon="30.0226573460"><ele>74.64</ele><time>2026-04-25T10:07:42Z</time></trkpt><trkpt lat="59.0830332320" lon="30.0225394964"><ele>74.64</ele><time>2026-04-25T10:07:57Z</time></trkpt><trkpt lat="59.0829947591" lon="30.0224814937"><ele>74.64</ele><time>2026-04-25T10:08:10Z</time></trkpt><trkpt lat="59.0829748940" lon="30.0224310346"><ele>74.64</ele><time>2026-04-25T10:08:25Z</time></trkpt><trkpt lat="59.0829613991" lon="30.0223753788"><ele>74.64</ele><time>2026-04-25T10:08:42Z</time></trkpt><trkpt lat="59.0829078387" lon="30.0223242491"><ele>74.64</ele><time>2026-04-25T10:08:56Z</time></trkpt><trkpt lat="59.0827992093" lon="30.0222592894"><ele>74.64</ele><time>2026-04-25T10:09:07Z</time></trkpt><trkpt lat="59.0827956889" lon="30.0222321320"><ele>74.64</ele><time>2026-04-25T10:09:10Z</time></trkpt><trkpt lat="59.0827690344" lon="30.0219725445"><ele>74.64</ele><time>2026-04-25T10:09:23Z</time></trkpt><trkpt lat="59.0827421285" lon="30.0218805950"><ele>74.64</ele><time>2026-04-25T10:09:38Z</time></trkpt><trkpt lat="59.0827456489" lon="30.0218664296"><ele>74.64</ele><time>2026-04-25T10:09:56Z</time></trkpt><trkpt lat="59.0827512648" lon="30.0218645018"><ele>73.68</ele><time>2026-04-25T10:10:20Z</time></trkpt><trkpt lat="59.0827487502" lon="30.0218659267"><ele>73.68</ele><time>2026-04-25T10:10:45Z</time></trkpt><trkpt lat="59.0827425476" lon="30.0218629930"><ele>73.68</ele><time>2026-04-25T10:11:10Z</time></trkpt><trkpt lat="59.0827391110" lon="30.0217635836"><ele>73.68</ele><time>2026-04-25T10:11:29Z</time></trkpt><trkpt lat="59.0827018954" lon="30.0216106139"><ele>73.68</ele><time>2026-04-25T10:11:39Z</time></trkpt><trkpt lat="59.0827464033" lon="30.0213895831"><ele>73.68</ele><time>2026-04-25T10:11:55Z</time></trkpt><trkpt lat="59.0827803500" lon="30.0212481804"><ele>73.68</ele><time>2026-04-25T10:12:07Z</time></trkpt><trkpt lat="59.0828022268" lon="30.0211233739"><ele>73.68</ele><time>2026-04-25T10:12:17Z</time></trkpt><trkpt lat="59.0828321502" lon="30.0210290775"><ele>73.68</ele><time>2026-04-25T10:12:28Z</time></trkpt><trkpt lat="59.0828482434" lon="30.0209642854"><ele>73.68</ele><time>2026-04-25T10:12:36Z</time></trkpt><trkpt lat="59.0828546975" lon="30.0208134949"><ele>73.68</ele><time>2026-04-25T10:12:48Z</time></trkpt><trkpt lat="59.0828856267" lon="30.0207395665"><ele>73.20</ele><time>2026-04-25T10:12:59Z</time></trkpt><trkpt lat="59.0828826092" lon="30.0206083898"><ele>73.68</ele><time>2026-04-25T10:13:11Z</time></trkpt><trkpt lat="59.0828703716" lon="30.0205244869"><ele>73.68</ele><time>2026-04-25T10:13:22Z</time></trkpt><trkpt lat="59.0828761552" lon="30.0204793084"><ele>73.68</ele><time>2026-04-25T10:13:35Z</time></trkpt><trkpt lat="59.0828979481" lon="30.0203985069"><ele>73.68</ele><time>2026-04-25T10:13:53Z</time></trkpt><trkpt lat="59.0828926675" lon="30.0203893706"><ele>73.68</ele><time>2026-04-25T10:13:56Z</time></trkpt><trkpt lat="59.0828515124" lon="30.0203073118"><ele>73.68</ele><time>2026-04-25T10:14:09Z</time></trkpt><trkpt lat="59.0828415379" lon="30.0203309488"><ele>73.68</ele><time>2026-04-25T10:14:23Z</time></trkpt><trkpt lat="59.0828344133" lon="30.0203288533"><ele>73.68</ele><time>2026-04-25T10:14:52Z</time></trkpt><trkpt lat="59.0828239359" lon="30.0203348882"><ele>73.68</ele><time>2026-04-25T10:15:28Z</time></trkpt><trkpt lat="59.0828153864" lon="30.0203252491"><ele>73.68</ele><time>2026-04-25T10:16:00Z</time></trkpt><trkpt lat="59.0828108601" lon="30.0203192979"><ele>74.64</ele><time>2026-04-25T10:16:21Z</time></trkpt><trkpt lat="59.0828302223" lon="30.0202761311"><ele>74.64</ele><time>2026-04-25T10:16:37Z</time></trkpt><trkpt lat="59.0828456450" lon="30.0201971736"><ele>74.64</ele><time>2026-04-25T10:16:50Z</time></trkpt><trkpt lat="59.0828412864" lon="30.0201158691"><ele>74.64</ele><time>2026-04-25T10:17:03Z</time></trkpt><trkpt lat="59.0828510933" lon="30.0200640690"><ele>74.64</ele><time>2026-04-25T10:17:14Z</time></trkpt><trkpt lat="59.0828371793" lon="30.0200386718"><ele>74.64</ele><time>2026-04-25T10:17:30Z</time></trkpt><trkpt lat="59.0828445554" lon="30.0200191420"><ele>74.64</ele><time>2026-04-25T10:17:53Z</time></trkpt><trkpt lat="59.0828613192" lon="30.0199250970"><ele>74.64</ele><time>2026-04-25T10:18:05Z</time></trkpt><trkpt lat="59.0828574635" lon="30.0198887195"><ele>74.64</ele><time>2026-04-25T10:18:19Z</time></trkpt><trkpt lat="59.0828693658" lon="30.0198814273"><ele>74.64</ele><time>2026-04-25T10:18:36Z</time></trkpt><trkpt lat="59.0828855429" lon="30.0198514201"><ele>74.64</ele><time>2026-04-25T10:18:53Z</time></trkpt><trkpt lat="59.0828779154" lon="30.0198359974"><ele>73.68</ele><time>2026-04-25T10:19:14Z</time></trkpt><trkpt lat="59.0828779992" lon="30.0198339019"><ele>73.68</ele><time>2026-04-25T10:19:38Z</time></trkpt><trkpt lat="59.0828793403" lon="30.0198266096"><ele>73.68</ele><time>2026-04-25T10:20:08Z</time></trkpt><trkpt lat="59.0828766581" lon="30.0198291242"><ele>73.68</ele><time>2026-04-25T10:20:26Z</time></trkpt><trkpt lat="59.0828741435" lon="30.0198220834"><ele>73.68</ele><time>2026-04-25T10:20:51Z</time></trkpt><trkpt lat="59.0828618221" lon="30.0197986141"><ele>73.68</ele><time>2026-04-25T10:21:24Z</time></trkpt><trkpt lat="59.0828583017" lon="30.0197927468"><ele>73.68</ele><time>2026-04-25T10:21:57Z</time></trkpt><trkpt lat="59.0828590561" lon="30.0197971053"><ele>74.64</ele><time>2026-04-25T10:22:28Z</time></trkpt><trkpt lat="59.0828546137" lon="30.0197893940"><ele>74.64</ele><time>2026-04-25T10:22:57Z</time></trkpt><trkpt lat="59.0828574635" lon="30.0197988655"><ele>74.64</ele><time>2026-04-25T10:23:18Z</time></trkpt><trkpt lat="59.0828665160" lon="30.0197959319"><ele>74.64</ele><time>2026-04-25T10:23:32Z</time></trkpt><trkpt lat="59.0828598104" lon="30.0198194850"><ele>75.12</ele><time>2026-04-25T10:23:46Z</time></trkpt><trkpt lat="59.0828546975" lon="30.0198264420"><ele>75.12</ele><time>2026-04-25T10:24:05Z</time></trkpt><trkpt lat="59.0828557033" lon="30.0198271964"><ele>75.12</ele><time>2026-04-25T10:24:29Z</time></trkpt><trkpt lat="59.0828567930" lon="30.0198284537"><ele>75.12</ele><time>2026-04-25T10:24:42Z</time></trkpt><trkpt lat="59.0828763228" lon="30.0197411980"><ele>75.12</ele><time>2026-04-25T10:24:53Z</time></trkpt><trkpt lat="59.0828754008" lon="30.0197070837"><ele>75.12</ele><time>2026-04-25T10:25:00Z</time></trkpt><trkpt lat="59.0828341618" lon="30.0197669305"><ele>75.12</ele><time>2026-04-25T10:25:10Z</time></trkpt><trkpt lat="59.0828303061" lon="30.0196517631"><ele>75.60</ele><time>2026-04-25T10:25:22Z</time></trkpt><trkpt lat="59.0828149673" lon="30.0196335744"><ele>75.60</ele><time>2026-04-25T10:25:41Z</time></trkpt><trkpt lat="59.0828083456" lon="30.0196253601"><ele>75.60</ele><time>2026-04-25T10:26:00Z</time></trkpt><trkpt lat="59.0828039870" lon="30.0196274556"><ele>75.60</ele><time>2026-04-25T10:26:32Z</time></trkpt><trkpt lat="59.0828009695" lon="30.0196138769"><ele>75.60</ele><time>2026-04-25T10:26:57Z</time></trkpt><trkpt lat="59.0827987064" lon="30.0196080934"><ele>75.60</ele><time>2026-04-25T10:27:31Z</time></trkpt><trkpt lat="59.0827894025" lon="30.0196104404"><ele>76.08</ele><time>2026-04-25T10:28:09Z</time></trkpt><trkpt lat="59.0827833675" lon="30.0196008012"><ele>76.08</ele><time>2026-04-25T10:28:44Z</time></trkpt><trkpt lat="59.0827836189" lon="30.0195972808"><ele>76.08</ele><time>2026-04-25T10:29:18Z</time></trkpt><trkpt lat="59.0827775840" lon="30.0195932575"><ele>76.08</ele><time>2026-04-25T10:29:50Z</time></trkpt><trkpt lat="59.0827695373" lon="30.0195882283"><ele>76.08</ele><time>2026-04-25T10:30:30Z</time></trkpt><trkpt lat="59.0827580541" lon="30.0195484981"><ele>75.12</ele><time>2026-04-25T10:31:00Z</time></trkpt><trkpt lat="59.0827661008" lon="30.0195187423"><ele>75.12</ele><time>2026-04-25T10:31:12Z</time></trkpt><trkpt lat="59.0827515163" lon="30.0194450654"><ele>75.12</ele><time>2026-04-25T10:31:26Z</time></trkpt><trkpt lat="59.0827048291" lon="30.0193737354"><ele>75.12</ele><time>2026-04-25T10:31:39Z</time></trkpt><trkpt lat="59.0826600697" lon="30.0193344243"><ele>75.12</ele><time>2026-04-25T10:31:52Z</time></trkpt><trkpt lat="59.0826227702" lon="30.0192864798"><ele>75.12</ele><time>2026-04-25T10:32:04Z</time></trkpt><trkpt lat="59.0826127119" lon="30.0192450732"><ele>75.12</ele><time>2026-04-25T10:32:14Z</time></trkpt><trkpt lat="59.0825956129" lon="30.0192247890"><ele>75.12</ele><time>2026-04-25T10:32:41Z</time></trkpt><trkpt lat="59.0825834591" lon="30.0191897526"><ele>75.12</ele><time>2026-04-25T10:33:12Z</time></trkpt><trkpt lat="59.0825833753" lon="30.0191821251"><ele>75.12</ele><time>2026-04-25T10:33:41Z</time></trkpt><trkpt lat="59.0825443156" lon="30.0191802811"><ele>75.12</ele><time>2026-04-25T10:33:51Z</time></trkpt><trkpt lat="59.0825021546" lon="30.0191817060"><ele>75.12</ele><time>2026-04-25T10:33:55Z</time></trkpt><trkpt lat="59.0824678726" lon="30.0191988889"><ele>75.12</ele><time>2026-04-25T10:34:00Z</time></trkpt><trkpt lat="59.0824230295" lon="30.0192169938"><ele>75.12</ele><time>2026-04-25T10:34:12Z</time></trkpt><trkpt lat="59.0824142285" lon="30.0192207657"><ele>75.12</ele><time>2026-04-25T10:34:13Z</time></trkpt><trkpt lat="59.0824007336" lon="30.0192382839"><ele>75.12</ele><time>2026-04-25T10:34:15Z</time></trkpt><trkpt lat="59.0823155735" lon="30.0192765053"><ele>75.12</ele><time>2026-04-25T10:34:27Z</time></trkpt><trkpt lat="59.0823058505" lon="30.0192845520"><ele>75.12</ele><time>2026-04-25T10:34:29Z</time></trkpt><trkpt lat="59.0822361968" lon="30.0193433091"><ele>75.12</ele><time>2026-04-25T10:34:40Z</time></trkpt><trkpt lat="59.0822381247" lon="30.0193493441"><ele>75.12</ele><time>2026-04-25T10:34:41Z</time></trkpt><trkpt lat="59.0822037589" lon="30.0193448178"><ele>76.08</ele><time>2026-04-25T10:34:49Z</time></trkpt><trkpt lat="59.0821325965" lon="30.0193632580"><ele>76.08</ele><time>2026-04-25T10:35:05Z</time></trkpt><trkpt lat="59.0821216162" lon="30.0193645153"><ele>76.08</ele><time>2026-04-25T10:35:08Z</time></trkpt><trkpt lat="59.0820720792" lon="30.0194201712"><ele>76.08</ele><time>2026-04-25T10:35:15Z</time></trkpt><trkpt lat="59.0820326004" lon="30.0194327440"><ele>76.08</ele><time>2026-04-25T10:35:27Z</time></trkpt><trkpt lat="59.0819940437" lon="30.0194637571"><ele>76.08</ele><time>2026-04-25T10:35:36Z</time></trkpt><trkpt lat="59.0818764456" lon="30.0195460673"><ele>76.08</ele><time>2026-04-25T10:35:50Z</time></trkpt><trkpt lat="59.0817850828" lon="30.0195567124"><ele>76.08</ele><time>2026-04-25T10:36:01Z</time></trkpt><trkpt lat="59.0817651339" lon="30.0195817742"><ele>76.08</ele><time>2026-04-25T10:36:23Z</time></trkpt><trkpt lat="59.0817675646" lon="30.0195894018"><ele>76.08</ele><time>2026-04-25T10:36:24Z</time></trkpt><trkpt lat="59.0817657206" lon="30.0196831953"><ele>76.08</ele><time>2026-04-25T10:36:35Z</time></trkpt><trkpt lat="59.0817904472" lon="30.0198219996"><ele>76.56</ele><time>2026-04-25T10:36:46Z</time></trkpt><trkpt lat="59.0817667264" lon="30.0198813435"><ele>76.56</ele><time>2026-04-25T10:36:54Z</time></trkpt><trkpt lat="59.0817786288" lon="30.0199851952"><ele>76.56</ele><time>2026-04-25T10:37:06Z</time></trkpt><trkpt lat="59.0817964822" lon="30.0202555954"><ele>76.56</ele><time>2026-04-25T10:37:18Z</time></trkpt><trkpt lat="59.0818169340" lon="30.0204125047"><ele>76.56</ele><time>2026-04-25T10:37:31Z</time></trkpt><trkpt lat="59.0818155091" lon="30.0204358902"><ele>76.56</ele><time>2026-04-25T10:37:51Z</time></trkpt><trkpt lat="59.0818095580" lon="30.0204846729"><ele>76.56</ele><time>2026-04-25T10:37:54Z</time></trkpt><trkpt lat="59.0818229690" lon="30.0206000078"><ele>76.56</ele><time>2026-04-25T10:38:05Z</time></trkpt><trkpt lat="59.0818244778" lon="30.0207616948"><ele>76.56</ele><time>2026-04-25T10:38:18Z</time></trkpt><trkpt lat="59.0818295907" lon="30.0208555721"><ele>76.56</ele><time>2026-04-25T10:38:31Z</time></trkpt><trkpt lat="59.0818810556" lon="30.0210525468"><ele>76.56</ele><time>2026-04-25T10:38:42Z</time></trkpt><trkpt lat="59.0818686504" lon="30.0210736692"><ele>76.56</ele><time>2026-04-25T10:38:44Z</time></trkpt><trkpt lat="59.0818110667" lon="30.0211907644"><ele>75.60</ele><time>2026-04-25T10:38:57Z</time></trkpt><trkpt lat="59.0817786288" lon="30.0211958773"><ele>75.60</ele><time>2026-04-25T10:39:08Z</time></trkpt><trkpt lat="59.0817757789" lon="30.0212247949"><ele>75.60</ele><time>2026-04-25T10:39:24Z</time></trkpt><trkpt lat="59.0817651339" lon="30.0212348532"><ele>75.60</ele><time>2026-04-25T10:39:41Z</time></trkpt><trkpt lat="59.0817601047" lon="30.0212470070"><ele>75.12</ele><time>2026-04-25T10:39:47Z</time></trkpt><trkpt lat="59.0817321092" lon="30.0212698057"><ele>75.12</ele><time>2026-04-25T10:39:59Z</time></trkpt><trkpt lat="59.0817302652" lon="30.0212986395"><ele>75.12</ele><time>2026-04-25T10:40:02Z</time></trkpt><trkpt lat="59.0817189496" lon="30.0213856436"><ele>75.12</ele><time>2026-04-25T10:40:14Z</time></trkpt><trkpt lat="59.0817388985" lon="30.0214947760"><ele>75.12</ele><time>2026-04-25T10:40:27Z</time></trkpt><trkpt lat="59.0817099810" lon="30.0216604862"><ele>75.12</ele><time>2026-04-25T10:40:38Z</time></trkpt><trkpt lat="59.0816994198" lon="30.0217730552"><ele>75.12</ele><time>2026-04-25T10:40:48Z</time></trkpt><trkpt lat="59.0816962346" lon="30.0218298007"><ele>75.12</ele><time>2026-04-25T10:41:03Z</time></trkpt><trkpt lat="59.0816953126" lon="30.0218443014"><ele>75.12</ele><time>2026-04-25T10:41:07Z</time></trkpt><trkpt lat="59.0816998389" lon="30.0218967721"><ele>75.12</ele><time>2026-04-25T10:41:16Z</time></trkpt><trkpt lat="59.0817590989" lon="30.0220282841"><ele>75.12</ele><time>2026-04-25T10:41:28Z</time></trkpt><trkpt lat="59.0817911178" lon="30.0221374165"><ele>75.12</ele><time>2026-04-25T10:41:42Z</time></trkpt><trkpt lat="59.0818300936" lon="30.0222008675"><ele>75.12</ele><time>2026-04-25T10:41:54Z</time></trkpt><trkpt lat="59.0818828158" lon="30.0222613011"><ele>75.12</ele><time>2026-04-25T10:42:06Z</time></trkpt><trkpt lat="59.0818996634" lon="30.0223417673"><ele>75.12</ele><time>2026-04-25T10:42:20Z</time></trkpt><trkpt lat="59.0819745976" lon="30.0225559250"><ele>75.12</ele><time>2026-04-25T10:42:34Z</time></trkpt><trkpt lat="59.0820051916" lon="30.0226594415"><ele>75.12</ele><time>2026-04-25T10:42:46Z</time></trkpt><trkpt lat="59.0820078738" lon="30.0227010157"><ele>75.12</ele><time>2026-04-25T10:42:59Z</time></trkpt><trkpt lat="59.0820059460" lon="30.0226803962"><ele>75.12</ele><time>2026-04-25T10:43:13Z</time></trkpt><trkpt lat="59.0820256434" lon="30.0226923823"><ele>75.12</ele><time>2026-04-25T10:43:26Z</time></trkpt><trkpt lat="59.0820424072" lon="30.0226747803"><ele>77.04</ele><time>2026-04-25T10:43:49Z</time></trkpt><trkpt lat="59.0820244700" lon="30.0226680748"><ele>73.68</ele><time>2026-04-25T10:44:04Z</time></trkpt><trkpt lat="59.0820139088" lon="30.0226789713"><ele>77.04</ele><time>2026-04-25T10:44:17Z</time></trkpt><trkpt lat="59.0820041019" lon="30.0226736907"><ele>77.04</ele><time>2026-04-25T10:44:28Z</time></trkpt><trkpt lat="59.0819978155" lon="30.0226839166"><ele>77.04</ele><time>2026-04-25T10:44:35Z</time></trkpt><trkpt lat="59.0819762740" lon="30.0227031112"><ele>77.04</ele><time>2026-04-25T10:44:38Z</time></trkpt><trkpt lat="59.0819279943" lon="30.0227393210"><ele>77.04</ele><time>2026-04-25T10:44:48Z</time></trkpt><trkpt lat="59.0818480309" lon="30.0227132533"><ele>77.04</ele><time>2026-04-25T10:44:59Z</time></trkpt><trkpt lat="59.0817487054" lon="30.0227651373"><ele>77.04</ele><time>2026-04-25T10:45:09Z</time></trkpt><trkpt lat="59.0817121603" lon="30.0228000898"><ele>77.04</ele><time>2026-04-25T10:45:18Z</time></trkpt><trkpt lat="59.0817090590" lon="30.0228451006"><ele>77.04</ele><time>2026-04-25T10:45:29Z</time></trkpt><trkpt lat="59.0816436801" lon="30.0229368825"><ele>77.04</ele><time>2026-04-25T10:45:41Z</time></trkpt><trkpt lat="59.0815550834" lon="30.0230116490"><ele>77.04</ele><time>2026-04-25T10:45:53Z</time></trkpt><trkpt lat="59.0815184545" lon="30.0230512954"><ele>77.04</ele><time>2026-04-25T10:46:04Z</time></trkpt><trkpt lat="59.0815074742" lon="30.0230608508"><ele>77.04</ele><time>2026-04-25T10:46:13Z</time></trkpt><trkpt lat="59.0814120881" lon="30.0230919477"><ele>77.04</ele><time>2026-04-25T10:46:26Z</time></trkpt><trkpt lat="59.0814020298" lon="30.0231391378"><ele>77.04</ele><time>2026-04-25T10:46:37Z</time></trkpt><trkpt lat="59.0813565999" lon="30.0232222863"><ele>77.04</ele><time>2026-04-25T10:46:45Z</time></trkpt><trkpt lat="59.0813265927" lon="30.0232445821"><ele>77.04</ele><time>2026-04-25T10:46:49Z</time></trkpt><trkpt lat="59.0813204739" lon="30.0231950451"><ele>77.04</ele><time>2026-04-25T10:47:02Z</time></trkpt><trkpt lat="59.0812488925" lon="30.0231835619"><ele>77.04</ele><time>2026-04-25T10:47:19Z</time></trkpt><trkpt lat="59.0812377445" lon="30.0231845677"><ele>77.04</ele><time>2026-04-25T10:47:25Z</time></trkpt><trkpt lat="59.0812019538" lon="30.0231892616"><ele>76.56</ele><time>2026-04-25T10:47:35Z</time></trkpt><trkpt lat="59.0811440349" lon="30.0231900997"><ele>76.56</ele><time>2026-04-25T10:47:48Z</time></trkpt><trkpt lat="59.0810905583" lon="30.0230882596"><ele>76.56</ele><time>2026-04-25T10:48:00Z</time></trkpt><trkpt lat="59.0810635686" lon="30.0230797939"><ele>76.56</ele><time>2026-04-25T10:48:29Z</time></trkpt><trkpt lat="59.0810468048" lon="30.0230067037"><ele>76.56</ele><time>2026-04-25T10:48:57Z</time></trkpt><trkpt lat="59.0810663346" lon="30.0229361281"><ele>76.56</ele><time>2026-04-25T10:49:13Z</time></trkpt><trkpt lat="59.0810732916" lon="30.0229201186"><ele>76.56</ele><time>2026-04-25T10:49:33Z</time></trkpt><trkpt lat="59.0810943302" lon="30.0228494592"><ele>76.56</ele><time>2026-04-25T10:49:49Z</time></trkpt><trkpt lat="59.0811291989" lon="30.0226674881"><ele>76.56</ele><time>2026-04-25T10:50:04Z</time></trkpt><trkpt lat="59.0811297018" lon="30.0225736946"><ele>76.56</ele><time>2026-04-25T10:50:19Z</time></trkpt><trkpt lat="59.0811375808" lon="30.0225264207"><ele>76.56</ele><time>2026-04-25T10:50:32Z</time></trkpt><trkpt lat="59.0811443701" lon="30.0223798212"><ele>76.56</ele><time>2026-04-25T10:50:43Z</time></trkpt><trkpt lat="59.0811576135" lon="30.0222806633"><ele>76.56</ele><time>2026-04-25T10:50:59Z</time></trkpt><trkpt lat="59.0811483096" lon="30.0222423580"><ele>76.56</ele><time>2026-04-25T10:51:04Z</time></trkpt><trkpt lat="59.0811362397" lon="30.0221726205"><ele>76.56</ele><time>2026-04-25T10:51:14Z</time></trkpt><trkpt lat="59.0811169613" lon="30.0220625661"><ele>76.56</ele><time>2026-04-25T10:51:27Z</time></trkpt><trkpt lat="59.0811090823" lon="30.0220250990"><ele>76.56</ele><time>2026-04-25T10:51:41Z</time></trkpt><trkpt lat="59.0811086632" lon="30.0219547749"><ele>76.56</ele><time>2026-04-25T10:51:53Z</time></trkpt><trkpt lat="59.0811168775" lon="30.0218396913"><ele>76.56</ele><time>2026-04-25T10:52:08Z</time></trkpt><trkpt lat="59.0811187215" lon="30.0217914116"><ele>76.56</ele><time>2026-04-25T10:52:25Z</time></trkpt><trkpt lat="59.0811323840" lon="30.0217603147"><ele>76.56</ele><time>2026-04-25T10:52:45Z</time></trkpt><trkpt lat="59.0811162069" lon="30.0216800161"><ele>76.56</ele><time>2026-04-25T10:52:57Z</time></trkpt><trkpt lat="59.0810987726" lon="30.0215366017"><ele>76.56</ele><time>2026-04-25T10:53:08Z</time></trkpt><trkpt lat="59.0810670052" lon="30.0214072689"><ele>76.56</ele><time>2026-04-25T10:53:22Z</time></trkpt><trkpt lat="59.0810013749" lon="30.0212211907"><ele>76.56</ele><time>2026-04-25T10:53:36Z</time></trkpt><trkpt lat="59.0809565317" lon="30.0210814644"><ele>76.56</ele><time>2026-04-25T10:53:48Z</time></trkpt><trkpt lat="59.0809477307" lon="30.0210248865"><ele>76.56</ele><time>2026-04-25T10:53:58Z</time></trkpt><trkpt lat="59.0809085872" lon="30.0208984874"><ele>76.56</ele><time>2026-04-25T10:54:10Z</time></trkpt><trkpt lat="59.0808707848" lon="30.0207585935"><ele>76.56</ele><time>2026-04-25T10:54:25Z</time></trkpt><trkpt lat="59.0808764845" lon="30.0206186157"><ele>76.56</ele><time>2026-04-25T10:54:38Z</time></trkpt><trkpt lat="59.0808624867" lon="30.0204586051"><ele>76.56</ele><time>2026-04-25T10:54:50Z</time></trkpt><trkpt lat="59.0809255186" lon="30.0202537514"><ele>76.56</ele><time>2026-04-25T10:55:03Z</time></trkpt><trkpt lat="59.0809743851" lon="30.0200368278"><ele>77.04</ele><time>2026-04-25T10:55:15Z</time></trkpt><trkpt lat="59.0809925739" lon="30.0199043937"><ele>77.04</ele><time>2026-04-25T10:55:26Z</time></trkpt><trkpt lat="59.0810017940" lon="30.0198629033"><ele>77.04</ele><time>2026-04-25T10:55:45Z</time></trkpt><trkpt lat="59.0809589624" lon="30.0197424553"><ele>77.52</ele><time>2026-04-25T10:56:00Z</time></trkpt><trkpt lat="59.0809207410" lon="30.0196895655"><ele>77.04</ele><time>2026-04-25T10:56:28Z</time></trkpt><trkpt lat="59.0809239261" lon="30.0196993724"><ele>77.04</ele><time>2026-04-25T10:56:42Z</time></trkpt><trkpt lat="59.0809240937" lon="30.0196976122"><ele>76.08</ele><time>2026-04-25T10:57:11Z</time></trkpt><trkpt lat="59.0809220821" lon="30.0196821056"><ele>76.08</ele><time>2026-04-25T10:57:40Z</time></trkpt><trkpt lat="59.0809244290" lon="30.0196723826"><ele>76.08</ele><time>2026-04-25T10:58:11Z</time></trkpt><trkpt lat="59.0809228364" lon="30.0196429621"><ele>75.60</ele><time>2026-04-25T10:58:35Z</time></trkpt><trkpt lat="59.0809232555" lon="30.0196448900"><ele>75.60</ele><time>2026-04-25T10:58:58Z</time></trkpt><trkpt lat="59.0809234232" lon="30.0196234323"><ele>75.60</ele><time>2026-04-25T10:59:20Z</time></trkpt><trkpt lat="59.0808790829" lon="30.0196397770"><ele>75.60</ele><time>2026-04-25T10:59:42Z</time></trkpt><trkpt lat="59.0808922425" lon="30.0196497515"><ele>77.04</ele><time>2026-04-25T10:59:54Z</time></trkpt><trkpt lat="59.0808611456" lon="30.0196469855"><ele>77.04</ele><time>2026-04-25T11:00:08Z</time></trkpt><trkpt lat="59.0808128659" lon="30.0196052436"><ele>77.04</ele><time>2026-04-25T11:00:19Z</time></trkpt><trkpt lat="59.0807631612" lon="30.0195967779"><ele>77.04</ele><time>2026-04-25T11:00:31Z</time></trkpt><trkpt lat="59.0807264484" lon="30.0195618253"><ele>77.04</ele><time>2026-04-25T11:00:43Z</time></trkpt><trkpt lat="59.0807181504" lon="30.0195743982"><ele>77.04</ele><time>2026-04-25T11:00:47Z</time></trkpt><trkpt lat="59.0806412045" lon="30.0195822772"><ele>77.04</ele><time>2026-04-25T11:01:00Z</time></trkpt><trkpt lat="59.0805916674" lon="30.0195888150"><ele>77.04</ele><time>2026-04-25T11:01:12Z</time></trkpt><trkpt lat="59.0805903263" lon="30.0195856299"><ele>77.04</ele><time>2026-04-25T11:01:21Z</time></trkpt><trkpt lat="59.0805550385" lon="30.0196299702"><ele>77.04</ele><time>2026-04-25T11:01:31Z</time></trkpt><trkpt lat="59.0804935154" lon="30.0198389310"><ele>77.04</ele><time>2026-04-25T11:01:42Z</time></trkpt><trkpt lat="59.0804864746" lon="30.0198801700"><ele>77.04</ele><time>2026-04-25T11:01:55Z</time></trkpt><trkpt lat="59.0804506838" lon="30.0199450459"><ele>77.04</ele><time>2026-04-25T11:02:21Z</time></trkpt><trkpt lat="59.0804645978" lon="30.0199478120"><ele>77.04</ele><time>2026-04-25T11:02:48Z</time></trkpt><trkpt lat="59.0804485884" lon="30.0199695211"><ele>77.04</ele><time>2026-04-25T11:03:07Z</time></trkpt><trkpt lat="59.0804428048" lon="30.0199848600"><ele>77.04</ele><time>2026-04-25T11:03:27Z</time></trkpt><trkpt lat="59.0804428048" lon="30.0199799147"><ele>77.04</ele><time>2026-04-25T11:03:51Z</time></trkpt><trkpt lat="59.0804466605" lon="30.0199661683"><ele>77.04</ele><time>2026-04-25T11:04:08Z</time></trkpt><trkpt lat="59.0804594848" lon="30.0199401844"><ele>77.04</ele><time>2026-04-25T11:04:33Z</time></trkpt><trkpt lat="59.0804713033" lon="30.0199211575"><ele>77.04</ele><time>2026-04-25T11:05:00Z</time></trkpt><trkpt lat="59.0804720577" lon="30.0199125241"><ele>77.04</ele><time>2026-04-25T11:05:31Z</time></trkpt><trkpt lat="59.0804651007" lon="30.0199121889"><ele>77.52</ele><time>2026-04-25T11:05:51Z</time></trkpt><trkpt lat="59.0804592334" lon="30.0198986940"><ele>77.52</ele><time>2026-04-25T11:06:10Z</time></trkpt><trkpt lat="59.0804494265" lon="30.0199014600"><ele>77.52</ele><time>2026-04-25T11:06:19Z</time></trkpt><trkpt lat="59.0803931840" lon="30.0199256837"><ele>78.00</ele><time>2026-04-25T11:06:29Z</time></trkpt><trkpt lat="59.0803724807" lon="30.0199330598"><ele>78.00</ele><time>2026-04-25T11:06:39Z</time></trkpt><trkpt lat="59.0803490113" lon="30.0199310482"><ele>78.00</ele><time>2026-04-25T11:06:51Z</time></trkpt><trkpt lat="59.0802849736" lon="30.0199501589"><ele>78.48</ele><time>2026-04-25T11:07:06Z</time></trkpt><trkpt lat="59.0802240372" lon="30.0199936610"><ele>78.48</ele><time>2026-04-25T11:07:20Z</time></trkpt><trkpt lat="59.0801289864" lon="30.0200668350"><ele>78.48</ele><time>2026-04-25T11:07:31Z</time></trkpt><trkpt lat="59.0801021643" lon="30.0200988539"><ele>78.48</ele><time>2026-04-25T11:07:56Z</time></trkpt><trkpt lat="59.0800942853" lon="30.0201027934"><ele>78.48</ele><time>2026-04-25T11:08:24Z</time></trkpt><trkpt lat="59.0800793655" lon="30.0201066490"><ele>78.97</ele><time>2026-04-25T11:08:39Z</time></trkpt><trkpt lat="59.0800843108" lon="30.0201203953"><ele>78.97</ele><time>2026-04-25T11:08:53Z</time></trkpt><trkpt lat="59.0800888371" lon="30.0201346446"><ele>78.97</ele><time>2026-04-25T11:09:05Z</time></trkpt><trkpt lat="59.0801387932" lon="30.0203368999"><ele>78.97</ele><time>2026-04-25T11:09:17Z</time></trkpt><trkpt lat="59.0801349375" lon="30.0204035360"><ele>78.97</ele><time>2026-04-25T11:09:20Z</time></trkpt><trkpt lat="59.0801349375" lon="30.0206374750"><ele>78.97</ele><time>2026-04-25T11:09:33Z</time></trkpt><trkpt lat="59.0801259689" lon="30.0207802188"><ele>78.97</ele><time>2026-04-25T11:09:44Z</time></trkpt><trkpt lat="59.0801274776" lon="30.0208828971"><ele>78.97</ele><time>2026-04-25T11:09:57Z</time></trkpt><trkpt lat="59.0801340993" lon="30.0210102182"><ele>78.97</ele><time>2026-04-25T11:10:08Z</time></trkpt><trkpt lat="59.0801247954" lon="30.0211950392"><ele>78.97</ele><time>2026-04-25T11:10:21Z</time></trkpt><trkpt lat="59.0801362786" lon="30.0213522837"><ele>78.97</ele><time>2026-04-25T11:10:30Z</time></trkpt><trkpt lat="59.0801197663" lon="30.0214765873"><ele>78.97</ele><time>2026-04-25T11:10:43Z</time></trkpt><trkpt lat="59.0801131446" lon="30.0215221010"><ele>78.97</ele><time>2026-04-25T11:10:58Z</time></trkpt><trkpt lat="59.0801156592" lon="30.0214977097"><ele>78.97</ele><time>2026-04-25T11:11:23Z</time></trkpt><trkpt lat="59.0801283158" lon="30.0215860549"><ele>78.97</ele><time>2026-04-25T11:11:39Z</time></trkpt><trkpt lat="59.0801591612" lon="30.0217064191"><ele>78.97</ele><time>2026-04-25T11:11:52Z</time></trkpt><trkpt lat="59.0801154077" lon="30.0218201615"><ele>78.97</ele><time>2026-04-25T11:12:01Z</time></trkpt><trkpt lat="59.0800993145" lon="30.0218666811"><ele>78.97</ele><time>2026-04-25T11:12:12Z</time></trkpt><trkpt lat="59.0800952911" lon="30.0219778251"><ele>78.97</ele><time>2026-04-25T11:12:24Z</time></trkpt><trkpt lat="59.0800925251" lon="30.0220113527"><ele>78.97</ele><time>2026-04-25T11:12:28Z</time></trkpt><trkpt lat="59.0800860710" lon="30.0220840238"><ele>78.48</ele><time>2026-04-25T11:12:39Z</time></trkpt><trkpt lat="59.0800771024" lon="30.0221525878"><ele>78.48</ele><time>2026-04-25T11:12:57Z</time></trkpt><trkpt lat="59.0800678823" lon="30.0221701059"><ele>78.48</ele><time>2026-04-25T11:13:12Z</time></trkpt><trkpt lat="59.0800610092" lon="30.0222007837"><ele>78.48</ele><time>2026-04-25T11:13:23Z</time></trkpt><trkpt lat="59.0800720733" lon="30.0222282764"><ele>78.97</ele><time>2026-04-25T11:13:39Z</time></trkpt><trkpt lat="59.0800687205" lon="30.0223467126"><ele>78.97</ele><time>2026-04-25T11:13:52Z</time></trkpt><trkpt lat="59.0800643619" lon="30.0223949924"><ele>78.97</ele><time>2026-04-25T11:14:04Z</time></trkpt><trkpt lat="59.0800665412" lon="30.0224234909"><ele>78.97</ele><time>2026-04-25T11:14:16Z</time></trkpt><trkpt lat="59.0800819639" lon="30.0224957429"><ele>78.97</ele><time>2026-04-25T11:14:26Z</time></trkpt><trkpt lat="59.0801379550" lon="30.0226866826"><ele>78.97</ele><time>2026-04-25T11:14:36Z</time></trkpt><trkpt lat="59.0801637713" lon="30.0227143429"><ele>78.97</ele><time>2026-04-25T11:14:49Z</time></trkpt><trkpt lat="59.0801976342" lon="30.0227762014"><ele>79.45</ele><time>2026-04-25T11:15:01Z</time></trkpt><trkpt lat="59.0802058484" lon="30.0228545722"><ele>79.45</ele><time>2026-04-25T11:15:10Z</time></trkpt><trkpt lat="59.0802180860" lon="30.0229145028"><ele>79.45</ele><time>2026-04-25T11:15:39Z</time></trkpt><trkpt lat="59.0802086145" lon="30.0229665544"><ele>79.45</ele><time>2026-04-25T11:15:54Z</time></trkpt><trkpt lat="59.0802057646" lon="30.0230013393"><ele>79.45</ele><time>2026-04-25T11:16:06Z</time></trkpt><trkpt lat="59.0802197624" lon="30.0230282452"><ele>79.93</ele><time>2026-04-25T11:16:16Z</time></trkpt><trkpt lat="59.0802218579" lon="30.0230522174"><ele>79.93</ele><time>2026-04-25T11:16:29Z</time></trkpt><trkpt lat="59.0802265517" lon="30.0230900198"><ele>79.93</ele><time>2026-04-25T11:16:42Z</time></trkpt><trkpt lat="59.0802107938" lon="30.0231674686"><ele>79.93</ele><time>2026-04-25T11:16:54Z</time></trkpt><trkpt lat="59.0802052617" lon="30.0232008286"><ele>79.93</ele><time>2026-04-25T11:17:03Z</time></trkpt><trkpt lat="59.0801795293" lon="30.0233318377"><ele>79.93</ele><time>2026-04-25T11:17:13Z</time></trkpt><trkpt lat="59.0801726561" lon="30.0233575702"><ele>79.93</ele><time>2026-04-25T11:17:16Z</time></trkpt><trkpt lat="59.0801723208" lon="30.0235026609"><ele>79.93</ele><time>2026-04-25T11:17:29Z</time></trkpt><trkpt lat="59.0801718179" lon="30.0235461630"><ele>79.93</ele><time>2026-04-25T11:17:32Z</time></trkpt><trkpt lat="59.0801729076" lon="30.0235758349"><ele>79.93</ele><time>2026-04-25T11:17:46Z</time></trkpt><trkpt lat="59.0801445767" lon="30.0235734042"><ele>79.45</ele><time>2026-04-25T11:18:08Z</time></trkpt><trkpt lat="59.0800974704" lon="30.0235706381"><ele>79.45</ele><time>2026-04-25T11:18:13Z</time></trkpt><trkpt lat="59.0799805429" lon="30.0235526171"><ele>79.45</ele><time>2026-04-25T11:18:27Z</time></trkpt><trkpt lat="59.0799319278" lon="30.0235994719"><ele>79.45</ele><time>2026-04-25T11:18:37Z</time></trkpt><trkpt lat="59.0798413195" lon="30.0235876534"><ele>79.45</ele><time>2026-04-25T11:18:49Z</time></trkpt><trkpt lat="59.0797706600" lon="30.0235153176"><ele>79.45</ele><time>2026-04-25T11:19:03Z</time></trkpt><trkpt lat="59.0797537286" lon="30.0234785210"><ele>79.45</ele><time>2026-04-25T11:19:26Z</time></trkpt><trkpt lat="59.0797113162" lon="30.0234749168"><ele>79.45</ele><time>2026-04-25T11:19:57Z</time></trkpt><trkpt lat="59.0797182731" lon="30.0234448258"><ele>79.45</ele><time>2026-04-25T11:20:11Z</time></trkpt><trkpt lat="59.0797030181" lon="30.0234546326"><ele>79.93</ele><time>2026-04-25T11:20:31Z</time></trkpt><trkpt lat="59.0797031019" lon="30.0234539621"><ele>79.93</ele><time>2026-04-25T11:20:52Z</time></trkpt><trkpt lat="59.0796998329" lon="30.0234309118"><ele>79.93</ele><time>2026-04-25T11:21:17Z</time></trkpt><trkpt lat="59.0796993300" lon="30.0234245416"><ele>79.93</ele><time>2026-04-25T11:21:28Z</time></trkpt><trkpt lat="59.0796759445" lon="30.0233836379"><ele>79.93</ele><time>2026-04-25T11:21:34Z</time></trkpt><trkpt lat="59.0796316881" lon="30.0233821291"><ele>79.93</ele><time>2026-04-25T11:21:45Z</time></trkpt><trkpt lat="59.0795350447" lon="30.0233475119"><ele>79.93</ele><time>2026-04-25T11:21:55Z</time></trkpt><trkpt lat="59.0794508904" lon="30.0234159920"><ele>79.93</ele><time>2026-04-25T11:22:04Z</time></trkpt><trkpt lat="59.0794001799" lon="30.0234261341"><ele>79.93</ele><time>2026-04-25T11:22:15Z</time></trkpt><trkpt lat="59.0793897863" lon="30.0234057661"><ele>79.93</ele><time>2026-04-25T11:22:34Z</time></trkpt><trkpt lat="59.0794195421" lon="30.0233738311"><ele>79.93</ele><time>2026-04-25T11:23:03Z</time></trkpt><trkpt lat="59.0794042870" lon="30.0233445782"><ele>79.93</ele><time>2026-04-25T11:23:19Z</time></trkpt><trkpt lat="59.0794033650" lon="30.0232288241"><ele>79.93</ele><time>2026-04-25T11:23:31Z</time></trkpt><trkpt lat="59.0793295205" lon="30.0230077095"><ele>79.93</ele><time>2026-04-25T11:23:46Z</time></trkpt><trkpt lat="59.0793249104" lon="30.0228580087"><ele>79.93</ele><time>2026-04-25T11:23:58Z</time></trkpt><trkpt lat="59.0793386567" lon="30.0227720104"><ele>79.93</ele><time>2026-04-25T11:24:06Z</time></trkpt><trkpt lat="59.0793600306" lon="30.0225448608"><ele>79.45</ele><time>2026-04-25T11:24:21Z</time></trkpt><trkpt lat="59.0793679096" lon="30.0224217307"><ele>79.45</ele><time>2026-04-25T11:24:32Z</time></trkpt><trkpt lat="59.0793922171" lon="30.0222447049"><ele>79.45</ele><time>2026-04-25T11:24:46Z</time></trkpt><trkpt lat="59.0793997608" lon="30.0221756380"><ele>79.45</ele><time>2026-04-25T11:25:00Z</time></trkpt><trkpt lat="59.0794336237" lon="30.0220527593"><ele>79.45</ele><time>2026-04-25T11:25:14Z</time></trkpt><trkpt lat="59.0794611163" lon="30.0219577923"><ele>79.45</ele><time>2026-04-25T11:25:26Z</time></trkpt><trkpt lat="59.0794858430" lon="30.0218907371"><ele>79.45</ele><time>2026-04-25T11:25:42Z</time></trkpt><trkpt lat="59.0794888604" lon="30.0218114443"><ele>78.97</ele><time>2026-04-25T11:25:53Z</time></trkpt><trkpt lat="59.0795224719" lon="30.0216774177"><ele>78.97</ele><time>2026-04-25T11:26:03Z</time></trkpt><trkpt lat="59.0795092285" lon="30.0215034094"><ele>78.97</ele><time>2026-04-25T11:26:16Z</time></trkpt><trkpt lat="59.0794691630" lon="30.0213110447"><ele>78.97</ele><time>2026-04-25T11:26:31Z</time></trkpt><trkpt lat="59.0794663969" lon="30.0212316681"><ele>78.97</ele><time>2026-04-25T11:26:42Z</time></trkpt><trkpt lat="59.0794795565" lon="30.0211076159"><ele>78.48</ele><time>2026-04-25T11:26:54Z</time></trkpt><trkpt lat="59.0794805624" lon="30.0210664608"><ele>78.48</ele><time>2026-04-25T11:27:05Z</time></trkpt><trkpt lat="59.0794763714" lon="30.0210319273"><ele>78.48</ele><time>2026-04-25T11:27:23Z</time></trkpt><trkpt lat="59.0794673190" lon="30.0209990703"><ele>78.00</ele><time>2026-04-25T11:27:40Z</time></trkpt><trkpt lat="59.0794389881" lon="30.0208528060"><ele>78.00</ele><time>2026-04-25T11:27:52Z</time></trkpt><trkpt lat="59.0794297680" lon="30.0208205357"><ele>78.00</ele><time>2026-04-25T11:27:54Z</time></trkpt><trkpt lat="59.0794057120" lon="30.0207136665"><ele>78.00</ele><time>2026-04-25T11:28:04Z</time></trkpt><trkpt lat="59.0793881938" lon="30.0206084736"><ele>78.48</ele><time>2026-04-25T11:28:15Z</time></trkpt><trkpt lat="59.0794021077" lon="30.0204671547"><ele>78.48</ele><time>2026-04-25T11:28:35Z</time></trkpt><trkpt lat="59.0793566778" lon="30.0204099901"><ele>78.48</ele><time>2026-04-25T11:28:46Z</time></trkpt><trkpt lat="59.0793451946" lon="30.0203579385"><ele>78.48</ele><time>2026-04-25T11:29:01Z</time></trkpt><trkpt lat="59.0793259162" lon="30.0203299429"><ele>78.48</ele><time>2026-04-25T11:29:25Z</time></trkpt><trkpt lat="59.0793107450" lon="30.0203327928"><ele>78.48</ele><time>2026-04-25T11:29:59Z</time></trkpt><trkpt lat="59.0793032013" lon="30.0203320384"><ele>78.48</ele><time>2026-04-25T11:30:21Z</time></trkpt><trkpt lat="59.0793026146" lon="30.0203223992"><ele>78.48</ele><time>2026-04-25T11:30:44Z</time></trkpt><trkpt lat="59.0793003514" lon="30.0203203037"><ele>78.97</ele><time>2026-04-25T11:31:09Z</time></trkpt><trkpt lat="59.0793022793" lon="30.0203052163"><ele>78.97</ele><time>2026-04-25T11:31:32Z</time></trkpt><trkpt lat="59.0792985912" lon="30.0203065574"><ele>79.45</ele><time>2026-04-25T11:31:57Z</time></trkpt><trkpt lat="59.0792920534" lon="30.0202963315"><ele>79.45</ele><time>2026-04-25T11:32:24Z</time></trkpt><trkpt lat="59.0792833362" lon="30.0203063898"><ele>79.45</ele><time>2026-04-25T11:32:51Z</time></trkpt><trkpt lat="59.0792811569" lon="30.0203023665"><ele>79.45</ele><time>2026-04-25T11:33:15Z</time></trkpt><trkpt lat="59.0792633872" lon="30.0203125924"><ele>79.45</ele><time>2026-04-25T11:33:29Z</time></trkpt><trkpt lat="59.0791743714" lon="30.0204519834"><ele>79.45</ele><time>2026-04-25T11:33:41Z</time></trkpt><trkpt lat="59.0791467112" lon="30.0204975810"><ele>79.45</ele><time>2026-04-25T11:33:45Z</time></trkpt><trkpt lat="59.0790919773" lon="30.0204638019"><ele>79.45</ele><time>2026-04-25T11:33:58Z</time></trkpt><trkpt lat="59.0790405124" lon="30.0204664841"><ele>79.45</ele><time>2026-04-25T11:34:10Z</time></trkpt><trkpt lat="59.0789913107" lon="30.0204073079"><ele>79.45</ele><time>2026-04-25T11:34:18Z</time></trkpt><trkpt lat="59.0788881294" lon="30.0203959923"><ele>79.45</ele><time>2026-04-25T11:34:36Z</time></trkpt><trkpt lat="59.0788453817" lon="30.0203930587"><ele>79.45</ele><time>2026-04-25T11:34:48Z</time></trkpt><trkpt lat="59.0787992813" lon="30.0203158613"><ele>79.45</ele><time>2026-04-25T11:35:00Z</time></trkpt><trkpt lat="59.0787616465" lon="30.0202992652"><ele>79.45</ele><time>2026-04-25T11:35:12Z</time></trkpt><trkpt lat="59.0787257720" lon="30.0202126801"><ele>79.45</ele><time>2026-04-25T11:35:22Z</time></trkpt><trkpt lat="59.0786396898" lon="30.0201495644"><ele>78.97</ele><time>2026-04-25T11:35:35Z</time></trkpt><trkpt lat="59.0786039829" lon="30.0202062260"><ele>78.97</ele><time>2026-04-25T11:35:47Z</time></trkpt><trkpt lat="59.0785670187" lon="30.0202555954"><ele>78.97</ele><time>2026-04-25T11:35:55Z</time></trkpt><trkpt lat="59.0784640890" lon="30.0204737764"><ele>78.97</ele><time>2026-04-25T11:36:07Z</time></trkpt><trkpt lat="59.0784303937" lon="30.0204721838"><ele>78.97</ele><time>2026-04-25T11:36:18Z</time></trkpt><trkpt lat="59.0783998836" lon="30.0204670709"><ele>78.97</ele><time>2026-04-25T11:36:30Z</time></trkpt><trkpt lat="59.0783878136" lon="30.0204927195"><ele>78.97</ele><time>2026-04-25T11:36:47Z</time></trkpt><trkpt lat="59.0783855505" lon="30.0205172785"><ele>78.97</ele><time>2026-04-25T11:37:12Z</time></trkpt><trkpt lat="59.0783597343" lon="30.0206049532"><ele>78.97</ele><time>2026-04-25T11:37:24Z</time></trkpt><trkpt lat="59.0783368517" lon="30.0206430908"><ele>78.97</ele><time>2026-04-25T11:37:33Z</time></trkpt><trkpt lat="59.0783172380" lon="30.0207291730"><ele>78.97</ele><time>2026-04-25T11:37:47Z</time></trkpt><trkpt lat="59.0782909188" lon="30.0208267383"><ele>78.48</ele><time>2026-04-25T11:38:00Z</time></trkpt><trkpt lat="59.0782898292" lon="30.0210715737"><ele>78.97</ele><time>2026-04-25T11:38:14Z</time></trkpt><trkpt lat="59.0782743227" lon="30.0211930275"><ele>78.97</ele><time>2026-04-25T11:38:25Z</time></trkpt><trkpt lat="59.0782692935" lon="30.0212373678"><ele>78.97</ele><time>2026-04-25T11:38:36Z</time></trkpt><trkpt lat="59.0782500152" lon="30.0212833006"><ele>78.97</ele><time>2026-04-25T11:38:48Z</time></trkpt><trkpt lat="59.0782434773" lon="30.0213192590"><ele>78.97</ele><time>2026-04-25T11:38:55Z</time></trkpt><trkpt lat="59.0781827923" lon="30.0215459056"><ele>78.97</ele><time>2026-04-25T11:39:05Z</time></trkpt><trkpt lat="59.0781739913" lon="30.0216305628"><ele>78.97</ele><time>2026-04-25T11:39:19Z</time></trkpt><trkpt lat="59.0781991370" lon="30.0217694510"><ele>78.97</ele><time>2026-04-25T11:39:29Z</time></trkpt><trkpt lat="59.0782951936" lon="30.0219377596"><ele>79.45</ele><time>2026-04-25T11:39:43Z</time></trkpt><trkpt lat="59.0783453174" lon="30.0220793299"><ele>78.97</ele><time>2026-04-25T11:39:57Z</time></trkpt><trkpt lat="59.0784021467" lon="30.0222945772"><ele>78.97</ele><time>2026-04-25T11:40:09Z</time></trkpt><trkpt lat="59.0783960279" lon="30.0223743729"><ele>78.97</ele><time>2026-04-25T11:40:20Z</time></trkpt><trkpt lat="59.0784373507" lon="30.0224521570"><ele>79.45</ele><time>2026-04-25T11:40:41Z</time></trkpt><trkpt lat="59.0784505941" lon="30.0224607065"><ele>79.45</ele><time>2026-04-25T11:41:04Z</time></trkpt><trkpt lat="59.0784347523" lon="30.0225068070"><ele>79.45</ele><time>2026-04-25T11:41:25Z</time></trkpt><trkpt lat="59.0784627479" lon="30.0226196274"><ele>79.45</ele><time>2026-04-25T11:41:38Z</time></trkpt><trkpt lat="59.0785340779" lon="30.0227675680"><ele>79.45</ele><time>2026-04-25T11:41:48Z</time></trkpt><trkpt lat="59.0785995405" lon="30.0229979865"><ele>79.45</ele><time>2026-04-25T11:42:00Z</time></trkpt><trkpt lat="59.0786354989" lon="30.0230925344"><ele>78.97</ele><time>2026-04-25T11:42:12Z</time></trkpt><trkpt lat="59.0786406957" lon="30.0232885871"><ele>78.97</ele><time>2026-04-25T11:42:24Z</time></trkpt><trkpt lat="59.0786127839" lon="30.0235088635"><ele>78.97</ele><time>2026-04-25T11:42:37Z</time></trkpt><trkpt lat="59.0785991214" lon="30.0234998111"><ele>79.45</ele><time>2026-04-25T11:43:00Z</time></trkpt><trkpt lat="59.0786059108" lon="30.0236862246"><ele>79.45</ele><time>2026-04-25T11:43:10Z</time></trkpt><trkpt lat="59.0786089282" lon="30.0238030683"><ele>79.45</ele><time>2026-04-25T11:43:15Z</time></trkpt><trkpt lat="59.0786032286" lon="30.0238580536"><ele>79.45</ele><time>2026-04-25T11:43:18Z</time></trkpt><trkpt lat="59.0785997920" lon="30.0239227619"><ele>79.45</ele><time>2026-04-25T11:43:32Z</time></trkpt><trkpt lat="59.0785665996" lon="30.0239204150"><ele>79.45</ele><time>2026-04-25T11:43:53Z</time></trkpt><trkpt lat="59.0785878059" lon="30.0239191577"><ele>79.45</ele><time>2026-04-25T11:44:11Z</time></trkpt><trkpt lat="59.0785528533" lon="30.0239750650"><ele>79.45</ele><time>2026-04-25T11:44:30Z</time></trkpt><trkpt lat="59.0784893185" lon="30.0239038188"><ele>79.45</ele><time>2026-04-25T11:44:42Z</time></trkpt><trkpt lat="59.0783999674" lon="30.0238534436"><ele>78.97</ele><time>2026-04-25T11:44:53Z</time></trkpt><trkpt lat="59.0783095267" lon="30.0238830317"><ele>78.97</ele><time>2026-04-25T11:45:05Z</time></trkpt><trkpt lat="59.0782401245" lon="30.0240248535"><ele>78.97</ele><time>2026-04-25T11:45:18Z</time></trkpt><trkpt lat="59.0782184992" lon="30.0241364166"><ele>78.97</ele><time>2026-04-25T11:45:27Z</time></trkpt><trkpt lat="59.0781045891" lon="30.0242330600"><ele>78.97</ele><time>2026-04-25T11:45:38Z</time></trkpt><trkpt lat="59.0780143999" lon="30.0243492331"><ele>78.97</ele><time>2026-04-25T11:45:51Z</time></trkpt><trkpt lat="59.0779581573" lon="30.0244823378"><ele>78.97</ele><time>2026-04-25T11:46:02Z</time></trkpt><trkpt lat="59.0779154934" lon="30.0244808290"><ele>78.97</ele><time>2026-04-25T11:46:15Z</time></trkpt><trkpt lat="59.0779309161" lon="30.0244333036"><ele>78.97</ele><time>2026-04-25T11:46:27Z</time></trkpt><trkpt lat="59.0778693929" lon="30.0243535079"><ele>78.97</ele><time>2026-04-25T11:46:40Z</time></trkpt><trkpt lat="59.0778465103" lon="30.0243159570"><ele>79.45</ele><time>2026-04-25T11:46:54Z</time></trkpt><trkpt lat="59.0777975600" lon="30.0242488179"><ele>79.45</ele><time>2026-04-25T11:47:05Z</time></trkpt><trkpt lat="59.0777684748" lon="30.0241627358"><ele>79.93</ele><time>2026-04-25T11:47:31Z</time></trkpt><trkpt lat="59.0777773596" lon="30.0241397694"><ele>79.93</ele><time>2026-04-25T11:47:50Z</time></trkpt><trkpt lat="59.0777710732" lon="30.0241407752"><ele>79.93</ele><time>2026-04-25T11:48:09Z</time></trkpt><trkpt lat="59.0777475201" lon="30.0241017994"><ele>79.93</ele><time>2026-04-25T11:48:20Z</time></trkpt><trkpt lat="59.0777471848" lon="30.0241017155"><ele>79.93</ele><time>2026-04-25T11:48:41Z</time></trkpt><trkpt lat="59.0777191054" lon="30.0239805132"><ele>79.93</ele><time>2026-04-25T11:48:53Z</time></trkpt><trkpt lat="59.0776730049" lon="30.0237089396"><ele>79.93</ele><time>2026-04-25T11:49:06Z</time></trkpt><trkpt lat="59.0776589233" lon="30.0235438999"><ele>80.41</ele><time>2026-04-25T11:49:16Z</time></trkpt><trkpt lat="59.0776432492" lon="30.0233734958"><ele>80.41</ele><time>2026-04-25T11:49:29Z</time></trkpt><trkpt lat="59.0776562411" lon="30.0231621042"><ele>80.41</ele><time>2026-04-25T11:49:40Z</time></trkpt><trkpt lat="59.0776830632" lon="30.0230076257"><ele>80.41</ele><time>2026-04-25T11:49:50Z</time></trkpt><trkpt lat="59.0776882600" lon="30.0228662230"><ele>80.41</ele><time>2026-04-25T11:50:02Z</time></trkpt><trkpt lat="59.0776787046" lon="30.0227347109"><ele>80.41</ele><time>2026-04-25T11:50:12Z</time></trkpt><trkpt lat="59.0776783694" lon="30.0226915441"><ele>80.41</ele><time>2026-04-25T11:50:33Z</time></trkpt><trkpt lat="59.0776765253" lon="30.0226839166"><ele>80.41</ele><time>2026-04-25T11:50:58Z</time></trkpt><trkpt lat="59.0776635334" lon="30.0226347987"><ele>80.41</ele><time>2026-04-25T11:51:13Z</time></trkpt><trkpt lat="59.0776333585" lon="30.0224462058"><ele>80.41</ele><time>2026-04-25T11:51:26Z</time></trkpt><trkpt lat="59.0775730088" lon="30.0222578645"><ele>80.41</ele><time>2026-04-25T11:51:40Z</time></trkpt><trkpt lat="59.0775373019" lon="30.0222167931"><ele>80.41</ele><time>2026-04-25T11:51:50Z</time></trkpt><trkpt lat="59.0775411576" lon="30.0222104229"><ele>80.41</ele><time>2026-04-25T11:51:52Z</time></trkpt><trkpt lat="59.0774782095" lon="30.0220427848"><ele>80.41</ele><time>2026-04-25T11:52:02Z</time></trkpt><trkpt lat="59.0774245653" lon="30.0219327305"><ele>80.89</ele><time>2026-04-25T11:52:11Z</time></trkpt><trkpt lat="59.0773804765" lon="30.0218215864"><ele>80.89</ele><time>2026-04-25T11:52:22Z</time></trkpt><trkpt lat="59.0773241501" lon="30.0217444729"><ele>80.89</ele><time>2026-04-25T11:52:33Z</time></trkpt><trkpt lat="59.0773093980" lon="30.0217034854"><ele>80.89</ele><time>2026-04-25T11:52:36Z</time></trkpt><trkpt lat="59.0772923827" lon="30.0216258690"><ele>80.89</ele><time>2026-04-25T11:52:43Z</time></trkpt><trkpt lat="59.0772373136" lon="30.0215506833"><ele>80.89</ele><time>2026-04-25T11:52:55Z</time></trkpt><trkpt lat="59.0771390777" lon="30.0214265473"><ele>81.37</ele><time>2026-04-25T11:53:04Z</time></trkpt><trkpt lat="59.0771463700" lon="30.0213802792"><ele>80.89</ele><time>2026-04-25T11:53:16Z</time></trkpt><trkpt lat="59.0771345515" lon="30.0212900061"><ele>80.89</ele><time>2026-04-25T11:53:37Z</time></trkpt><trkpt lat="59.0771296062" lon="30.0212224480"><ele>80.89</ele><time>2026-04-25T11:53:52Z</time></trkpt><trkpt lat="59.0771318693" lon="30.0211981405"><ele>80.89</ele><time>2026-04-25T11:54:02Z</time></trkpt><trkpt lat="59.0771650616" lon="30.0210994855"><ele>80.89</ele><time>2026-04-25T11:54:14Z</time></trkpt><trkpt lat="59.0771595296" lon="30.0209858268"><ele>80.89</ele><time>2026-04-25T11:54:24Z</time></trkpt><trkpt lat="59.0771762934" lon="30.0208834838"><ele>80.89</ele><time>2026-04-25T11:54:37Z</time></trkpt><trkpt lat="59.0771780536" lon="30.0208637025"><ele>80.89</ele><time>2026-04-25T11:54:53Z</time></trkpt><trkpt lat="59.0771443583" lon="30.0208010059"><ele>80.89</ele><time>2026-04-25T11:55:04Z</time></trkpt><trkpt lat="59.0771436878" lon="30.0207780395"><ele>80.89</ele><time>2026-04-25T11:55:18Z</time></trkpt><trkpt lat="59.0771629661" lon="30.0207631197"><ele>80.41</ele><time>2026-04-25T11:55:37Z</time></trkpt><trkpt lat="59.0771606192" lon="30.0207766984"><ele>82.81</ele><time>2026-04-25T11:56:05Z</time></trkpt><trkpt lat="59.0771359764" lon="30.0207632873"><ele>81.85</ele><time>2026-04-25T11:56:14Z</time></trkpt><trkpt lat="59.0771174524" lon="30.0207475293"><ele>81.85</ele><time>2026-04-25T11:56:17Z</time></trkpt><trkpt lat="59.0770721901" lon="30.0207541510"><ele>81.85</ele><time>2026-04-25T11:56:28Z</time></trkpt><trkpt lat="59.0770380758" lon="30.0207725912"><ele>81.37</ele><time>2026-04-25T11:56:42Z</time></trkpt><trkpt lat="59.0769711882" lon="30.0208331924"><ele>81.37</ele><time>2026-04-25T11:56:56Z</time></trkpt><trkpt lat="59.0769651532" lon="30.0208768621"><ele>81.37</ele><time>2026-04-25T11:57:06Z</time></trkpt><trkpt lat="59.0769552626" lon="30.0209141616"><ele>81.37</ele><time>2026-04-25T11:57:18Z</time></trkpt><trkpt lat="59.0769094136" lon="30.0209849887"><ele>81.37</ele><time>2026-04-25T11:57:31Z</time></trkpt><trkpt lat="59.0768644866" lon="30.0210306700"><ele>81.37</ele><time>2026-04-25T11:57:45Z</time></trkpt><trkpt lat="59.0767908935" lon="30.0211582426"><ele>81.37</ele><time>2026-04-25T11:57:57Z</time></trkpt><trkpt lat="59.0767559409" lon="30.0212548859"><ele>80.89</ele><time>2026-04-25T11:58:18Z</time></trkpt><trkpt lat="59.0766997822" lon="30.0213305745"><ele>80.89</ele><time>2026-04-25T11:58:22Z</time></trkpt><trkpt lat="59.0766645782" lon="30.0213573966"><ele>80.89</ele><time>2026-04-25T11:58:27Z</time></trkpt><trkpt lat="59.0766297095" lon="30.0213738251"><ele>80.89</ele><time>2026-04-25T11:58:39Z</time></trkpt><trkpt lat="59.0766326431" lon="30.0213419739"><ele>80.89</ele><time>2026-04-25T11:58:47Z</time></trkpt><trkpt lat="59.0765975229" lon="30.0212715659"><ele>81.85</ele><time>2026-04-25T11:58:52Z</time></trkpt><trkpt lat="59.0765649173" lon="30.0212315004"><ele>81.85</ele><time>2026-04-25T11:59:02Z</time></trkpt><trkpt lat="59.0765361674" lon="30.0211985596"><ele>81.85</ele><time>2026-04-25T11:59:11Z</time></trkpt><trkpt lat="59.0764662623" lon="30.0211320911"><ele>81.85</ele><time>2026-04-25T11:59:24Z</time></trkpt><trkpt lat="59.0763735585" lon="30.0212442409"><ele>81.85</ele><time>2026-04-25T11:59:36Z</time></trkpt><trkpt lat="59.0763552859" lon="30.0212662853"><ele>81.85</ele><time>2026-04-25T11:59:48Z</time></trkpt><trkpt lat="59.0763575491" lon="30.0212834682"><ele>81.85</ele><time>2026-04-25T12:00:13Z</time></trkpt><trkpt lat="59.0763666015" lon="30.0214373600"><ele>81.37</ele><time>2026-04-25T12:00:25Z</time></trkpt><trkpt lat="59.0763602313" lon="30.0214583986"><ele>81.37</ele><time>2026-04-25T12:00:52Z</time></trkpt><trkpt lat="59.0763635002" lon="30.0214955304"><ele>81.85</ele><time>2026-04-25T12:01:17Z</time></trkpt><trkpt lat="59.0763881430" lon="30.0215527788"><ele>81.85</ele><time>2026-04-25T12:01:27Z</time></trkpt><trkpt lat="59.0764302202" lon="30.0216583908"><ele>81.85</ele><time>2026-04-25T12:01:39Z</time></trkpt><trkpt lat="59.0764649212" lon="30.0218152162"><ele>81.85</ele><time>2026-04-25T12:01:52Z</time></trkpt><trkpt lat="59.0764791705" lon="30.0219611451"><ele>81.37</ele><time>2026-04-25T12:02:03Z</time></trkpt><trkpt lat="59.0765067469" lon="30.0221090857"><ele>81.37</ele><time>2026-04-25T12:02:17Z</time></trkpt><trkpt lat="59.0765347425" lon="30.0222812500"><ele>81.37</ele><time>2026-04-25T12:02:30Z</time></trkpt><trkpt lat="59.0765722096" lon="30.0224213116"><ele>81.37</ele><time>2026-04-25T12:02:41Z</time></trkpt><trkpt lat="59.0766000375" lon="30.0225429330"><ele>80.89</ele><time>2026-04-25T12:02:50Z</time></trkpt><trkpt lat="59.0766601358" lon="30.0226962380"><ele>80.89</ele><time>2026-04-25T12:03:02Z</time></trkpt><trkpt lat="59.0767036378" lon="30.0229216274"><ele>80.89</ele><time>2026-04-25T12:03:16Z</time></trkpt><trkpt lat="59.0767183900" lon="30.0230042730"><ele>80.89</ele><time>2026-04-25T12:03:29Z</time></trkpt><trkpt lat="59.0767037217" lon="30.0231216196"><ele>80.89</ele><time>2026-04-25T12:03:39Z</time></trkpt><trkpt lat="59.0767033026" lon="30.0232129823"><ele>80.89</ele><time>2026-04-25T12:03:51Z</time></trkpt><trkpt lat="59.0767130256" lon="30.0233569834"><ele>80.89</ele><time>2026-04-25T12:04:05Z</time></trkpt><trkpt lat="59.0767159592" lon="30.0234027486"><ele>80.41</ele><time>2026-04-25T12:04:18Z</time></trkpt><trkpt lat="59.0767163783" lon="30.0235200953"><ele>79.45</ele><time>2026-04-25T12:04:31Z</time></trkpt><trkpt lat="59.0767248441" lon="30.0237151422"><ele>79.45</ele><time>2026-04-25T12:04:46Z</time></trkpt><trkpt lat="59.0767217427" lon="30.0238561258"><ele>78.97</ele><time>2026-04-25T12:04:57Z</time></trkpt><trkpt lat="59.0767253470" lon="30.0241134502"><ele>78.97</ele><time>2026-04-25T12:05:08Z</time></trkpt><trkpt lat="59.0767070744" lon="30.0244810805"><ele>78.97</ele><time>2026-04-25T12:05:20Z</time></trkpt><trkpt lat="59.0767306276" lon="30.0247645564"><ele>78.97</ele><time>2026-04-25T12:05:32Z</time></trkpt><trkpt lat="59.0767263528" lon="30.0247967429"><ele>78.97</ele><time>2026-04-25T12:05:35Z</time></trkpt><trkpt lat="59.0766962618" lon="30.0249709189"><ele>78.97</ele><time>2026-04-25T12:05:51Z</time></trkpt><trkpt lat="59.0767020453" lon="30.0249842461"><ele>78.97</ele><time>2026-04-25T12:05:56Z</time></trkpt><trkpt lat="59.0767969284" lon="30.0249341223"><ele>78.97</ele><time>2026-04-25T12:06:09Z</time></trkpt><trkpt lat="59.0768193081" lon="30.0249341223"><ele>79.93</ele><time>2026-04-25T12:06:33Z</time></trkpt><trkpt lat="59.0768601280" lon="30.0248968229"><ele>80.41</ele><time>2026-04-25T12:06:52Z</time></trkpt><trkpt lat="59.0768695995" lon="30.0248794723"><ele>80.41</ele><time>2026-04-25T12:06:58Z</time></trkpt><trkpt lat="59.0769015346" lon="30.0248402450"><ele>80.41</ele><time>2026-04-25T12:07:02Z</time></trkpt><trkpt lat="59.0769537538" lon="30.0248591043"><ele>80.41</ele><time>2026-04-25T12:07:11Z</time></trkpt><trkpt lat="59.0769732837" lon="30.0249050371"><ele>80.41</ele><time>2026-04-25T12:07:21Z</time></trkpt><trkpt lat="59.0770108346" lon="30.0249505509"><ele>79.45</ele><time>2026-04-25T12:07:31Z</time></trkpt><trkpt lat="59.0770218987" lon="30.0250166841"><ele>79.45</ele><time>2026-04-25T12:07:36Z</time></trkpt><trkpt lat="59.0770399198" lon="30.0250803027"><ele>79.45</ele><time>2026-04-25T12:07:46Z</time></trkpt><trkpt lat="59.0770312026" lon="30.0251138303"><ele>79.45</ele><time>2026-04-25T12:07:56Z</time></trkpt><trkpt lat="59.0770444460" lon="30.0251383893"><ele>79.45</ele><time>2026-04-25T12:08:17Z</time></trkpt><trkpt lat="59.0770487208" lon="30.0251964759"><ele>79.45</ele><time>2026-04-25T12:08:45Z</time></trkpt><trkpt lat="59.0770495590" lon="30.0251963083"><ele>79.45</ele><time>2026-04-25T12:08:46Z</time></trkpt><trkpt lat="59.0770355612" lon="30.0252151676"><ele>79.45</ele><time>2026-04-25T12:08:57Z</time></trkpt><trkpt lat="59.0770578571" lon="30.0253223721"><ele>79.45</ele><time>2026-04-25T12:09:09Z</time></trkpt><trkpt lat="59.0770621318" lon="30.0253382977"><ele>79.45</ele><time>2026-04-25T12:09:10Z</time></trkpt><trkpt lat="59.0770840924" lon="30.0254614279"><ele>78.97</ele><time>2026-04-25T12:09:23Z</time></trkpt><trkpt lat="59.0770816617" lon="30.0255251303"><ele>78.97</ele><time>2026-04-25T12:09:39Z</time></trkpt><trkpt lat="59.0770960785" lon="30.0255426485"><ele>78.97</ele><time>2026-04-25T12:10:00Z</time></trkpt><trkpt lat="59.0770901274" lon="30.0255169161"><ele>78.97</ele><time>2026-04-25T12:10:22Z</time></trkpt><trkpt lat="59.0770949889" lon="30.0255205203"><ele>78.97</ele><time>2026-04-25T12:10:35Z</time></trkpt><trkpt lat="59.0770713519" lon="30.0254545547"><ele>78.97</ele><time>2026-04-25T12:10:46Z</time></trkpt><trkpt lat="59.0770762134" lon="30.0253797881"><ele>78.97</ele><time>2026-04-25T12:10:56Z</time></trkpt><trkpt lat="59.0770726092" lon="30.0253164209"><ele>78.97</ele><time>2026-04-25T12:11:09Z</time></trkpt><trkpt lat="59.0770655684" lon="30.0252753496"><ele>78.97</ele><time>2026-04-25T12:11:29Z</time></trkpt><trkpt lat="59.0770582762" lon="30.0252176821"><ele>78.48</ele><time>2026-04-25T12:11:53Z</time></trkpt><trkpt lat="59.0770022850" lon="30.0252306741"><ele>78.48</ele><time>2026-04-25T12:12:14Z</time></trkpt><trkpt lat="59.0769793186" lon="30.0252113119"><ele>78.48</ele><time>2026-04-25T12:12:38Z</time></trkpt><trkpt lat="59.0769407619" lon="30.0251782034"><ele>78.48</ele><time>2026-04-25T12:13:05Z</time></trkpt><trkpt lat="59.0769314580" lon="30.0251867529"><ele>78.48</ele><time>2026-04-25T12:13:25Z</time></trkpt><trkpt lat="59.0769403428" lon="30.0251849089"><ele>78.48</ele><time>2026-04-25T12:13:51Z</time></trkpt><trkpt lat="59.0769408457" lon="30.0251704920"><ele>78.48</ele><time>2026-04-25T12:14:18Z</time></trkpt><trkpt lat="59.0769430250" lon="30.0251788739"><ele>79.93</ele><time>2026-04-25T12:14:26Z</time></trkpt><trkpt lat="59.0769493114" lon="30.0251764432"><ele>79.45</ele><time>2026-04-25T12:14:52Z</time></trkpt><trkpt lat="59.0769485570" lon="30.0251841545"><ele>79.45</ele><time>2026-04-25T12:15:21Z</time></trkpt><trkpt lat="59.0769466292" lon="30.0251944643"><ele>79.45</ele><time>2026-04-25T12:15:44Z</time></trkpt><trkpt lat="59.0769485570" lon="30.0251998287"><ele>79.45</ele><time>2026-04-25T12:16:17Z</time></trkpt><trkpt lat="59.0769464616" lon="30.0252061989"><ele>79.45</ele><time>2026-04-25T12:16:53Z</time></trkpt><trkpt lat="59.0769435279" lon="30.0252115633"><ele>79.45</ele><time>2026-04-25T12:17:27Z</time></trkpt><trkpt lat="59.0769503172" lon="30.0252217054"><ele>79.45</ele><time>2026-04-25T12:17:56Z</time></trkpt><trkpt lat="59.0769553464" lon="30.0252346136"><ele>79.45</ele><time>2026-04-25T12:18:35Z</time></trkpt><trkpt lat="59.0769603755" lon="30.0252336077"><ele>79.45</ele><time>2026-04-25T12:19:04Z</time></trkpt><trkpt lat="59.0769599564" lon="30.0252295844"><ele>79.45</ele><time>2026-04-25T12:19:31Z</time></trkpt><trkpt lat="59.0769592021" lon="30.0252419058"><ele>79.45</ele><time>2026-04-25T12:19:53Z</time></trkpt><trkpt lat="59.0769471321" lon="30.0252590049"><ele>79.45</ele><time>2026-04-25T12:20:18Z</time></trkpt><trkpt lat="59.0769577771" lon="30.0252740923"><ele>78.97</ele><time>2026-04-25T12:20:39Z</time></trkpt><trkpt lat="59.0769573580" lon="30.0252773613"><ele>78.97</ele><time>2026-04-25T12:21:15Z</time></trkpt><trkpt lat="59.0769705176" lon="30.0252735056"><ele>79.93</ele><time>2026-04-25T12:21:43Z</time></trkpt><trkpt lat="59.0769700147" lon="30.0252860785"><ele>79.93</ele><time>2026-04-25T12:22:12Z</time></trkpt><trkpt lat="59.0769695118" lon="30.0252932869"><ele>79.93</ele><time>2026-04-25T12:22:38Z</time></trkpt><trkpt lat="59.0769760497" lon="30.0252971426"><ele>79.93</ele><time>2026-04-25T12:23:02Z</time></trkpt><trkpt lat="59.0769752115" lon="30.0253052730"><ele>79.93</ele><time>2026-04-25T12:23:25Z</time></trkpt><trkpt lat="59.0768424422" lon="30.0253135711"><ele>79.93</ele><time>2026-04-25T12:23:49Z</time></trkpt><trkpt lat="59.0768014546" lon="30.0254094601"><ele>79.93</ele><time>2026-04-25T12:24:04Z</time></trkpt><trkpt lat="59.0768025443" lon="30.0254564825"><ele>79.93</ele><time>2026-04-25T12:24:24Z</time></trkpt><trkpt lat="59.0769890416" lon="30.0253513735"><ele>79.93</ele><time>2026-04-25T12:24:48Z</time></trkpt><trkpt lat="59.0770378243" lon="30.0252499525"><ele>79.93</ele><time>2026-04-25T12:25:16Z</time></trkpt><trkpt lat="59.0770893730" lon="30.0252837315"><ele>79.93</ele><time>2026-04-25T12:25:36Z</time></trkpt><trkpt lat="59.0770267602" lon="30.0253694784"><ele>79.93</ele><time>2026-04-25T12:26:04Z</time></trkpt><trkpt lat="59.0770067275" lon="30.0253836438"><ele>79.93</ele><time>2026-04-25T12:26:42Z</time></trkpt><trkpt lat="59.0770270117" lon="30.0253816321"><ele>80.41</ele><time>2026-04-25T12:27:00Z</time></trkpt><trkpt lat="59.0770199709" lon="30.0253160018"><ele>80.41</ele><time>2026-04-25T12:27:16Z</time></trkpt><trkpt lat="59.0769853536" lon="30.0253157504"><ele>80.41</ele><time>2026-04-25T12:27:27Z</time></trkpt><trkpt lat="59.0769478865" lon="30.0252108090"><ele>80.41</ele><time>2026-04-25T12:27:40Z</time></trkpt><trkpt lat="59.0769087430" lon="30.0252043549"><ele>80.41</ele><time>2026-04-25T12:27:50Z</time></trkpt><trkpt lat="59.0768475551" lon="30.0251583382"><ele>80.89</ele><time>2026-04-25T12:28:01Z</time></trkpt><trkpt lat="59.0768033825" lon="30.0251554046"><ele>81.37</ele><time>2026-04-25T12:28:12Z</time></trkpt><trkpt lat="59.0767917316" lon="30.0251614396"><ele>81.37</ele><time>2026-04-25T12:28:25Z</time></trkpt><trkpt lat="59.0767646581" lon="30.0251398981"><ele>81.37</ele><time>2026-04-25T12:28:38Z</time></trkpt><trkpt lat="59.0766114369" lon="30.0250151753"><ele>81.37</ele><time>2026-04-25T12:28:48Z</time></trkpt><trkpt lat="59.0765701141" lon="30.0250383932"><ele>81.37</ele><time>2026-04-25T12:29:01Z</time></trkpt><trkpt lat="59.0764877200" lon="30.0250554923"><ele>81.37</ele><time>2026-04-25T12:29:12Z</time></trkpt><trkpt lat="59.0764230117" lon="30.0250487030"><ele>81.37</ele><time>2026-04-25T12:29:27Z</time></trkpt><trkpt lat="59.0763727203" lon="30.0250556599"><ele>81.37</ele><time>2026-04-25T12:29:40Z</time></trkpt><trkpt lat="59.0763598960" lon="30.0250849966"><ele>81.85</ele><time>2026-04-25T12:29:52Z</time></trkpt><trkpt lat="59.0763066709" lon="30.0251313485"><ele>81.85</ele><time>2026-04-25T12:30:05Z</time></trkpt><trkpt lat="59.0762758255" lon="30.0252599269"><ele>81.85</ele><time>2026-04-25T12:30:16Z</time></trkpt><trkpt lat="59.0760101192" lon="30.0255300757"><ele>81.85</ele><time>2026-04-25T12:30:28Z</time></trkpt><trkpt lat="59.0759787709" lon="30.0255468395"><ele>81.85</ele><time>2026-04-25T12:30:44Z</time></trkpt><trkpt lat="59.0759844705" lon="30.0255358592"><ele>82.33</ele><time>2026-04-25T12:31:06Z</time></trkpt><trkpt lat="59.0759834647" lon="30.0255439896"><ele>82.33</ele><time>2026-04-25T12:31:14Z</time></trkpt><trkpt lat="59.0760529507" lon="30.0253340229"><ele>82.33</ele><time>2026-04-25T12:31:29Z</time></trkpt><trkpt lat="59.0760324989" lon="30.0251871720"><ele>82.33</ele><time>2026-04-25T12:31:38Z</time></trkpt><trkpt lat="59.0759976301" lon="30.0249725953"><ele>82.33</ele><time>2026-04-25T12:31:50Z</time></trkpt><trkpt lat="59.0759694669" lon="30.0249016006"><ele>82.33</ele><time>2026-04-25T12:31:56Z</time></trkpt><trkpt lat="59.0759784356" lon="30.0247997604"><ele>82.81</ele><time>2026-04-25T12:32:09Z</time></trkpt><trkpt lat="59.0759312455" lon="30.0246855989"><ele>82.81</ele><time>2026-04-25T12:32:21Z</time></trkpt><trkpt lat="59.0758781042" lon="30.0245249178"><ele>82.81</ele><time>2026-04-25T12:32:36Z</time></trkpt><trkpt lat="59.0757872444" lon="30.0244679209"><ele>83.29</ele><time>2026-04-25T12:32:53Z</time></trkpt><trkpt lat="59.0757065266" lon="30.0244046375"><ele>83.29</ele><time>2026-04-25T12:33:08Z</time></trkpt><trkpt lat="59.0756823868" lon="30.0243048090"><ele>83.29</ele><time>2026-04-25T12:33:19Z</time></trkpt><trkpt lat="59.0756710712" lon="30.0242659170"><ele>83.29</ele><time>2026-04-25T12:33:33Z</time></trkpt><trkpt lat="59.0756719094" lon="30.0242016278"><ele>83.29</ele><time>2026-04-25T12:33:45Z</time></trkpt><trkpt lat="59.0756792016" lon="30.0240681041"><ele>83.29</ele><time>2026-04-25T12:33:56Z</time></trkpt><trkpt lat="59.0757203568" lon="30.0238615740"><ele>83.77</ele><time>2026-04-25T12:34:11Z</time></trkpt><trkpt lat="59.0757122263" lon="30.0237754080"><ele>83.77</ele><time>2026-04-25T12:34:22Z</time></trkpt><trkpt lat="59.0757526271" lon="30.0237285532"><ele>83.77</ele><time>2026-04-25T12:34:32Z</time></trkpt><trkpt lat="59.0757292416" lon="30.0235428941"><ele>83.77</ele><time>2026-04-25T12:34:46Z</time></trkpt><trkpt lat="59.0757138189" lon="30.0233871583"><ele>83.77</ele><time>2026-04-25T12:34:59Z</time></trkpt><trkpt lat="59.0757241286" lon="30.0232736673"><ele>83.77</ele><time>2026-04-25T12:35:12Z</time></trkpt><trkpt lat="59.0757374559" lon="30.0231426582"><ele>84.25</ele><time>2026-04-25T12:35:25Z</time></trkpt><trkpt lat="59.0757226199" lon="30.0230466854"><ele>84.25</ele><time>2026-04-25T12:35:37Z</time></trkpt><trkpt lat="59.0757333487" lon="30.0229550712"><ele>84.25</ele><time>2026-04-25T12:35:48Z</time></trkpt><trkpt lat="59.0756950434" lon="30.0228167698"><ele>84.25</ele><time>2026-04-25T12:36:01Z</time></trkpt><trkpt lat="59.0755956341" lon="30.0226272549"><ele>83.77</ele><time>2026-04-25T12:36:12Z</time></trkpt><trkpt lat="59.0755791217" lon="30.0225015264"><ele>83.77</ele><time>2026-04-25T12:36:22Z</time></trkpt><trkpt lat="59.0755972266" lon="30.0222850218"><ele>83.77</ele><time>2026-04-25T12:36:35Z</time></trkpt><trkpt lat="59.0755621903" lon="30.0220684335"><ele>83.77</ele><time>2026-04-25T12:36:47Z</time></trkpt><trkpt lat="59.0755440015" lon="30.0219545234"><ele>83.77</ele><time>2026-04-25T12:36:54Z</time></trkpt><trkpt lat="59.0755326860" lon="30.0218600594"><ele>84.73</ele><time>2026-04-25T12:37:04Z</time></trkpt><trkpt lat="59.0755153354" lon="30.0218069181"><ele>84.73</ele><time>2026-04-25T12:37:14Z</time></trkpt><trkpt lat="59.0754703246" lon="30.0218421221"><ele>84.73</ele><time>2026-04-25T12:37:33Z</time></trkpt><trkpt lat="59.0754581708" lon="30.0218676031"><ele>84.73</ele><time>2026-04-25T12:37:47Z</time></trkpt><trkpt lat="59.0754621942" lon="30.0218740571"><ele>84.73</ele><time>2026-04-25T12:38:14Z</time></trkpt><trkpt lat="59.0754634514" lon="30.0218877196"><ele>84.25</ele><time>2026-04-25T12:38:22Z</time></trkpt><trkpt lat="59.0754060354" lon="30.0219423696"><ele>84.25</ele><time>2026-04-25T12:38:30Z</time></trkpt><trkpt lat="59.0753411595" lon="30.0219724607"><ele>84.25</ele><time>2026-04-25T12:38:36Z</time></trkpt><trkpt lat="59.0752485394" lon="30.0220743008"><ele>84.25</ele><time>2026-04-25T12:38:50Z</time></trkpt><trkpt lat="59.0752179455" lon="30.0221527554"><ele>84.25</ele><time>2026-04-25T12:39:01Z</time></trkpt><trkpt lat="59.0751891956" lon="30.0221781526"><ele>84.25</ele><time>2026-04-25T12:39:14Z</time></trkpt><trkpt lat="59.0751159377" lon="30.0222410168"><ele>84.25</ele><time>2026-04-25T12:39:25Z</time></trkpt><trkpt lat="59.0750937257" lon="30.0222540088"><ele>84.25</ele><time>2026-04-25T12:39:28Z</time></trkpt><trkpt lat="59.0750664845" lon="30.0222639833"><ele>84.25</ele><time>2026-04-25T12:39:30Z</time></trkpt><trkpt lat="59.0749929752" lon="30.0223193876"><ele>84.25</ele><time>2026-04-25T12:39:39Z</time></trkpt><trkpt lat="59.0749159455" lon="30.0223466288"><ele>84.25</ele><time>2026-04-25T12:39:50Z</time></trkpt><trkpt lat="59.0748660732" lon="30.0223660748"><ele>83.77</ele><time>2026-04-25T12:40:02Z</time></trkpt><trkpt lat="59.0748209786" lon="30.0224244967"><ele>83.77</ele><time>2026-04-25T12:40:13Z</time></trkpt><trkpt lat="59.0747830924" lon="30.0224519055"><ele>83.77</ele><time>2026-04-25T12:40:18Z</time></trkpt><trkpt lat="59.0747066494" lon="30.0224620476"><ele>83.77</ele><time>2026-04-25T12:40:30Z</time></trkpt><trkpt lat="59.0746764746" lon="30.0224669091"><ele>84.25</ele><time>2026-04-25T12:40:46Z</time></trkpt><trkpt lat="59.0747302864" lon="30.0224887021"><ele>127.03</ele><time>2026-04-25T12:41:48Z</time></trkpt><trkpt lat="59.0747230779" lon="30.0225099921"><ele>127.03</ele><time>2026-04-25T12:41:49Z</time></trkpt><trkpt lat="59.0746618900" lon="30.0224698428"><ele>122.71</ele><time>2026-04-25T12:41:53Z</time></trkpt><trkpt lat="59.0746649075" lon="30.0225077290"><ele>118.38</ele><time>2026-04-25T12:41:56Z</time></trkpt><trkpt lat="59.0746561904" lon="30.0225404184"><ele>114.53</ele><time>2026-04-25T12:41:59Z</time></trkpt><trkpt lat="59.0746616386" lon="30.0225461181"><ele>111.65</ele><time>2026-04-25T12:42:02Z</time></trkpt><trkpt lat="59.0746674221" lon="30.0225467887"><ele>107.81</ele><time>2026-04-25T12:42:06Z</time></trkpt><trkpt lat="59.0746709425" lon="30.0225526560"><ele>104.44</ele><time>2026-04-25T12:42:10Z</time></trkpt><trkpt lat="59.0746768098" lon="30.0225484651"><ele>101.08</ele><time>2026-04-25T12:42:15Z</time></trkpt><trkpt lat="59.0746715292" lon="30.0225466210"><ele>98.19</ele><time>2026-04-25T12:42:20Z</time></trkpt><trkpt lat="59.0746734571" lon="30.0225140993"><ele>94.83</ele><time>2026-04-25T12:42:26Z</time></trkpt><trkpt lat="59.0746730380" lon="30.0224965811"><ele>91.94</ele><time>2026-04-25T12:42:32Z</time></trkpt><trkpt lat="59.0746707749" lon="30.0225011073"><ele>88.58</ele><time>2026-04-25T12:42:41Z</time></trkpt><trkpt lat="59.0746787377" lon="30.0225053821"><ele>85.69</ele><time>2026-04-25T12:42:55Z</time></trkpt><trkpt lat="59.0746788215" lon="30.0225328747"><ele>82.33</ele><time>2026-04-25T12:43:14Z</time></trkpt><trkpt lat="59.0746738762" lon="30.0225723535"><ele>81.85</ele><time>2026-04-25T12:43:17Z</time></trkpt><trkpt lat="59.0747058112" lon="30.0226783846"><ele>79.45</ele><time>2026-04-25T12:43:32Z</time></trkpt><trkpt lat="59.0747354832" lon="30.0227632094"><ele>78.00</ele><time>2026-04-25T12:43:43Z</time></trkpt><trkpt lat="59.0747406799" lon="30.0227707531"><ele>77.52</ele><time>2026-04-25T12:43:44Z</time></trkpt><trkpt lat="59.0747498162" lon="30.0229696557"><ele>76.56</ele><time>2026-04-25T12:43:55Z</time></trkpt><trkpt lat="59.0747523308" lon="30.0229950529"><ele>76.56</ele><time>2026-04-25T12:44:09Z</time></trkpt><trkpt lat="59.0747543424" lon="30.0230175164"><ele>76.56</ele><time>2026-04-25T12:44:31Z</time></trkpt><trkpt lat="59.0747492295" lon="30.0230180193"><ele>76.56</ele><time>2026-04-25T12:44:51Z</time></trkpt><trkpt lat="59.0747478884" lon="30.0230194442"><ele>76.56</ele><time>2026-04-25T12:45:14Z</time></trkpt><trkpt lat="59.0747488942" lon="30.0230159238"><ele>76.56</ele><time>2026-04-25T12:45:38Z</time></trkpt><trkpt lat="59.0747424401" lon="30.0230254792"><ele>76.56</ele><time>2026-04-25T12:46:04Z</time></trkpt><trkpt lat="59.0747431107" lon="30.0230207015"><ele>76.56</ele><time>2026-04-25T12:46:34Z</time></trkpt><trkpt lat="59.0747421887" lon="30.0230299216"><ele>76.56</ele><time>2026-04-25T12:47:07Z</time></trkpt><trkpt lat="59.0747345611" lon="30.0230222940"><ele>76.56</ele><time>2026-04-25T12:47:35Z</time></trkpt><trkpt lat="59.0747255925" lon="30.0230123196"><ele>75.60</ele><time>2026-04-25T12:48:00Z</time></trkpt><trkpt lat="59.0747229941" lon="30.0230123196"><ele>75.60</ele><time>2026-04-25T12:48:27Z</time></trkpt><trkpt lat="59.0747202281" lon="30.0230223779"><ele>75.60</ele><time>2026-04-25T12:48:58Z</time></trkpt><trkpt lat="59.0747203957" lon="30.0230396446"><ele>75.60</ele><time>2026-04-25T12:49:30Z</time></trkpt><trkpt lat="59.0747214016" lon="30.0230507087"><ele>75.60</ele><time>2026-04-25T12:50:06Z</time></trkpt><trkpt lat="59.0747209825" lon="30.0230505411"><ele>75.60</ele><time>2026-04-25T12:50:39Z</time></trkpt><trkpt lat="59.0747374110" lon="30.0230217911"><ele>75.60</ele><time>2026-04-25T12:50:50Z</time></trkpt><trkpt lat="59.0747375786" lon="30.0231041014"><ele>75.60</ele><time>2026-04-25T12:51:03Z</time></trkpt><trkpt lat="59.0747089963" lon="30.0232080370"><ele>75.60</ele><time>2026-04-25T12:51:14Z</time></trkpt><trkpt lat="59.0747283585" lon="30.0233189296"><ele>75.60</ele><time>2026-04-25T12:51:24Z</time></trkpt><trkpt lat="59.0747487266" lon="30.0233967137"><ele>75.60</ele><time>2026-04-25T12:51:32Z</time></trkpt><trkpt lat="59.0747830924" lon="30.0235304888"><ele>75.60</ele><time>2026-04-25T12:51:42Z</time></trkpt><trkpt lat="59.0747618861" lon="30.0235743262"><ele>75.60</ele><time>2026-04-25T12:51:48Z</time></trkpt><trkpt lat="59.0747655742" lon="30.0236274675"><ele>75.60</ele><time>2026-04-25T12:51:51Z</time></trkpt><trkpt lat="59.0747571085" lon="30.0237882324"><ele>75.60</ele><time>2026-04-25T12:52:04Z</time></trkpt><trkpt lat="59.0747654065" lon="30.0239008013"><ele>75.60</ele><time>2026-04-25T12:52:12Z</time></trkpt><trkpt lat="59.0747949947" lon="30.0240638293"><ele>75.60</ele><time>2026-04-25T12:52:24Z</time></trkpt><trkpt lat="59.0748013649" lon="30.0242396817"><ele>75.60</ele><time>2026-04-25T12:52:37Z</time></trkpt><trkpt lat="59.0748010296" lon="30.0243143644"><ele>75.60</ele><time>2026-04-25T12:52:51Z</time></trkpt><trkpt lat="59.0748196375" lon="30.0244069006"><ele>75.60</ele><time>2026-04-25T12:53:04Z</time></trkpt><trkpt lat="59.0748099145" lon="30.0244324654"><ele>75.60</ele><time>2026-04-25T12:53:32Z</time></trkpt><trkpt lat="59.0748056397" lon="30.0244534202"><ele>75.60</ele><time>2026-04-25T12:54:03Z</time></trkpt><trkpt lat="59.0748057235" lon="30.0244642328"><ele>75.60</ele><time>2026-04-25T12:54:36Z</time></trkpt><trkpt lat="59.0748030413" lon="30.0244714413"><ele>75.60</ele><time>2026-04-25T12:55:11Z</time></trkpt><trkpt lat="59.0747947432" lon="30.0244839303"><ele>75.60</ele><time>2026-04-25T12:55:38Z</time></trkpt><trkpt lat="59.0747913066" lon="30.0244927313"><ele>76.56</ele><time>2026-04-25T12:56:09Z</time></trkpt><trkpt lat="59.0747884568" lon="30.0244892947"><ele>76.56</ele><time>2026-04-25T12:56:44Z</time></trkpt><trkpt lat="59.0747897141" lon="30.0244896300"><ele>76.56</ele><time>2026-04-25T12:57:13Z</time></trkpt><trkpt lat="59.0747827571" lon="30.0245158654"><ele>76.56</ele><time>2026-04-25T12:57:35Z</time></trkpt><trkpt lat="59.0747722797" lon="30.0246147718"><ele>77.04</ele><time>2026-04-25T12:57:48Z</time></trkpt><trkpt lat="59.0747248381" lon="30.0246684998"><ele>77.04</ele><time>2026-04-25T12:58:00Z</time></trkpt><trkpt lat="59.0747203957" lon="30.0247582700"><ele>77.04</ele><time>2026-04-25T12:58:11Z</time></trkpt><trkpt lat="59.0747395903" lon="30.0248487107"><ele>77.04</ele><time>2026-04-25T12:58:32Z</time></trkpt><trkpt lat="59.0747856908" lon="30.0248286780"><ele>77.04</ele><time>2026-04-25T12:58:43Z</time></trkpt><trkpt lat="59.0748402569" lon="30.0248772930"><ele>77.04</ele><time>2026-04-25T12:58:55Z</time></trkpt><trkpt lat="59.0748812445" lon="30.0248994213"><ele>76.56</ele><time>2026-04-25T12:59:09Z</time></trkpt><trkpt lat="59.0749271773" lon="30.0249263272"><ele>76.56</ele><time>2026-04-25T12:59:21Z</time></trkpt><trkpt lat="59.0749880299" lon="30.0250146724"><ele>76.56</ele><time>2026-04-25T12:59:33Z</time></trkpt><trkpt lat="59.0750099067" lon="30.0250430871"><ele>76.56</ele><time>2026-04-25T12:59:36Z</time></trkpt><trkpt lat="59.0750286821" lon="30.0250710826"><ele>76.56</ele><time>2026-04-25T12:59:38Z</time></trkpt><trkpt lat="59.0750762913" lon="30.0250962283"><ele>76.56</ele><time>2026-04-25T12:59:51Z</time></trkpt><trkpt lat="59.0751224756" lon="30.0251404010"><ele>76.56</ele><time>2026-04-25T13:00:00Z</time></trkpt><trkpt lat="59.0751641337" lon="30.0252354518"><ele>76.56</ele><time>2026-04-25T13:00:12Z</time></trkpt><trkpt lat="59.0751845017" lon="30.0253655389"><ele>76.56</ele><time>2026-04-25T13:00:27Z</time></trkpt><trkpt lat="59.0751658101" lon="30.0254645292"><ele>76.56</ele><time>2026-04-25T13:00:56Z</time></trkpt><trkpt lat="59.0751508903" lon="30.0254776049"><ele>76.56</ele><time>2026-04-25T13:01:21Z</time></trkpt><trkpt lat="59.0751513094" lon="30.0254729949"><ele>76.56</ele><time>2026-04-25T13:01:39Z</time></trkpt><trkpt lat="59.0751910396" lon="30.0254740007"><ele>76.56</ele><time>2026-04-25T13:02:00Z</time></trkpt><trkpt lat="59.0751803946" lon="30.0254964642"><ele>76.56</ele><time>2026-04-25T13:02:20Z</time></trkpt><trkpt lat="59.0751827415" lon="30.0255062710"><ele>76.56</ele><time>2026-04-25T13:02:43Z</time></trkpt><trkpt lat="59.0751759522" lon="30.0255387928"><ele>76.56</ele><time>2026-04-25T13:02:59Z</time></trkpt><trkpt lat="59.0751753654" lon="30.0255427323"><ele>76.56</ele><time>2026-04-25T13:03:06Z</time></trkpt><trkpt lat="59.0751695819" lon="30.0255964603"><ele>75.60</ele><time>2026-04-25T13:03:24Z</time></trkpt><trkpt lat="59.0751646366" lon="30.0256177504"><ele>75.60</ele><time>2026-04-25T13:03:57Z</time></trkpt><trkpt lat="59.0751652233" lon="30.0256578159"><ele>75.60</ele><time>2026-04-25T13:04:31Z</time></trkpt><trkpt lat="59.0751580987" lon="30.0256591570"><ele>75.60</ele><time>2026-04-25T13:05:03Z</time></trkpt><trkpt lat="59.0751534048" lon="30.0256450754"><ele>75.60</ele><time>2026-04-25T13:05:35Z</time></trkpt><trkpt lat="59.0751552489" lon="30.0256007351"><ele>75.60</ele><time>2026-04-25T13:05:59Z</time></trkpt><trkpt lat="59.0751407482" lon="30.0256153196"><ele>75.60</ele><time>2026-04-25T13:06:30Z</time></trkpt><trkpt lat="59.0751332045" lon="30.0255970471"><ele>75.60</ele><time>2026-04-25T13:06:53Z</time></trkpt><trkpt lat="59.0751392394" lon="30.0255643576"><ele>75.60</ele><time>2026-04-25T13:07:09Z</time></trkpt><trkpt lat="59.0751373116" lon="30.0255423132"><ele>77.04</ele><time>2026-04-25T13:07:33Z</time></trkpt><trkpt lat="59.0751411673" lon="30.0255271420"><ele>77.04</ele><time>2026-04-25T13:08:02Z</time></trkpt><trkpt lat="59.0751464479" lon="30.0255133957"><ele>77.04</ele><time>2026-04-25T13:08:31Z</time></trkpt><trkpt lat="59.0751477052" lon="30.0255304947"><ele>77.04</ele><time>2026-04-25T13:08:46Z</time></trkpt><trkpt lat="59.0751632955" lon="30.0255489349"><ele>77.04</ele><time>2026-04-25T13:09:02Z</time></trkpt><trkpt lat="59.0751692466" lon="30.0255539641"><ele>77.04</ele><time>2026-04-25T13:09:18Z</time></trkpt><trkpt lat="59.0751725994" lon="30.0256281439"><ele>77.04</ele><time>2026-04-25T13:09:29Z</time></trkpt><trkpt lat="59.0751195420" lon="30.0256894156"><ele>77.04</ele><time>2026-04-25T13:09:47Z</time></trkpt><trkpt lat="59.0750756208" lon="30.0257122144"><ele>77.04</ele><time>2026-04-25T13:09:56Z</time></trkpt><trkpt lat="59.0750160255" lon="30.0257140584"><ele>77.04</ele><time>2026-04-25T13:10:08Z</time></trkpt><trkpt lat="59.0749817435" lon="30.0256860629"><ele>77.04</ele><time>2026-04-25T13:10:11Z</time></trkpt><trkpt lat="59.0749493893" lon="30.0256968755"><ele>77.04</ele><time>2026-04-25T13:10:13Z</time></trkpt><trkpt lat="59.0748581104" lon="30.0256899185"><ele>77.04</ele><time>2026-04-25T13:10:24Z</time></trkpt><trkpt lat="59.0747836791" lon="30.0256123859"><ele>77.04</ele><time>2026-04-25T13:10:34Z</time></trkpt><trkpt lat="59.0747352317" lon="30.0256296527"><ele>77.04</ele><time>2026-04-25T13:10:41Z</time></trkpt><trkpt lat="59.0746293683" lon="30.0255787745"><ele>77.04</ele><time>2026-04-25T13:10:55Z</time></trkpt><trkpt lat="59.0745978523" lon="30.0255731586"><ele>77.04</ele><time>2026-04-25T13:11:01Z</time></trkpt><trkpt lat="59.0745143685" lon="30.0256546307"><ele>77.52</ele><time>2026-04-25T13:11:12Z</time></trkpt><trkpt lat="59.0744679328" lon="30.0257352646"><ele>77.52</ele><time>2026-04-25T13:11:26Z</time></trkpt><trkpt lat="59.0743992012" lon="30.0257821195"><ele>77.52</ele><time>2026-04-25T13:11:36Z</time></trkpt><trkpt lat="59.0743528493" lon="30.0257942732"><ele>78.00</ele><time>2026-04-25T13:11:46Z</time></trkpt><trkpt lat="59.0743588004" lon="30.0257889088"><ele>78.00</ele><time>2026-04-25T13:11:58Z</time></trkpt><trkpt lat="59.0743529331" lon="30.0257790182"><ele>78.00</ele><time>2026-04-25T13:12:21Z</time></trkpt><trkpt lat="59.0743392706" lon="30.0257765874"><ele>78.00</ele><time>2026-04-25T13:12:23Z</time></trkpt><trkpt lat="59.0742618218" lon="30.0257594045"><ele>77.52</ele><time>2026-04-25T13:12:34Z</time></trkpt><trkpt lat="59.0742223430" lon="30.0257245358"><ele>77.52</ele><time>2026-04-25T13:12:40Z</time></trkpt><trkpt lat="59.0741823614" lon="30.0255087018"><ele>77.52</ele><time>2026-04-25T13:12:52Z</time></trkpt><trkpt lat="59.0742279589" lon="30.0253319275"><ele>77.52</ele><time>2026-04-25T13:13:03Z</time></trkpt><trkpt lat="59.0742606483" lon="30.0252071209"><ele>77.52</ele><time>2026-04-25T13:13:14Z</time></trkpt><trkpt lat="59.0742629953" lon="30.0251923688"><ele>77.52</ele><time>2026-04-25T13:13:15Z</time></trkpt><trkpt lat="59.0742520988" lon="30.0250682328"><ele>77.52</ele><time>2026-04-25T13:13:27Z</time></trkpt><trkpt lat="59.0742341615" lon="30.0248822384"><ele>77.52</ele><time>2026-04-25T13:13:38Z</time></trkpt><trkpt lat="59.0742438007" lon="30.0247527380"><ele>77.52</ele><time>2026-04-25T13:13:47Z</time></trkpt><trkpt lat="59.0742280427" lon="30.0246498082"><ele>77.52</ele><time>2026-04-25T13:13:55Z</time></trkpt><trkpt lat="59.0741991252" lon="30.0245729461"><ele>77.52</ele><time>2026-04-25T13:14:05Z</time></trkpt><trkpt lat="59.0741733089" lon="30.0244471338"><ele>77.52</ele><time>2026-04-25T13:14:16Z</time></trkpt><trkpt lat="59.0741655976" lon="30.0243963394"><ele>77.52</ele><time>2026-04-25T13:14:29Z</time></trkpt><trkpt lat="59.0741424635" lon="30.0243039709"><ele>77.52</ele><time>2026-04-25T13:14:39Z</time></trkpt><trkpt lat="59.0741049126" lon="30.0241194014"><ele>77.52</ele><time>2026-04-25T13:14:53Z</time></trkpt><trkpt lat="59.0740813594" lon="30.0240921602"><ele>77.52</ele><time>2026-04-25T13:14:56Z</time></trkpt><trkpt lat="59.0740376897" lon="30.0239839498"><ele>77.52</ele><time>2026-04-25T13:15:09Z</time></trkpt><trkpt lat="59.0740235243" lon="30.0238985382"><ele>77.52</ele><time>2026-04-25T13:15:19Z</time></trkpt><trkpt lat="59.0740220994" lon="30.0237738993"><ele>77.52</ele><time>2026-04-25T13:15:29Z</time></trkpt><trkpt lat="59.0739900805" lon="30.0236426387"><ele>77.52</ele><time>2026-04-25T13:15:38Z</time></trkpt><trkpt lat="59.0739764180" lon="30.0235785171"><ele>77.52</ele><time>2026-04-25T13:15:42Z</time></trkpt><trkpt lat="59.0739454050" lon="30.0234295707"><ele>78.00</ele><time>2026-04-25T13:15:51Z</time></trkpt><trkpt lat="59.0739523619" lon="30.0233265571"><ele>78.48</ele><time>2026-04-25T13:16:03Z</time></trkpt><trkpt lat="59.0739787649" lon="30.0231665466"><ele>78.48</ele><time>2026-04-25T13:16:13Z</time></trkpt><trkpt lat="59.0739977919" lon="30.0230269041"><ele>78.48</ele><time>2026-04-25T13:16:21Z</time></trkpt><trkpt lat="59.0739986300" lon="30.0229286682"><ele>78.00</ele><time>2026-04-25T13:16:27Z</time></trkpt><trkpt lat="59.0740023181" lon="30.0228385627"><ele>78.00</ele><time>2026-04-25T13:16:39Z</time></trkpt><trkpt lat="59.0739994682" lon="30.0228244811"><ele>78.00</ele><time>2026-04-25T13:16:58Z</time></trkpt><trkpt lat="59.0739993844" lon="30.0228244811"><ele>78.00</ele><time>2026-04-25T13:17:00Z</time></trkpt><trkpt lat="59.0739511885" lon="30.0228970684"><ele>78.48</ele><time>2026-04-25T13:17:13Z</time></trkpt><trkpt lat="59.0738931019" lon="30.0229536463"><ele>78.00</ele><time>2026-04-25T13:17:20Z</time></trkpt><trkpt lat="59.0738760866" lon="30.0229851622"><ele>78.00</ele><time>2026-04-25T13:17:22Z</time></trkpt><trkpt lat="59.0738203470" lon="30.0230685621"><ele>78.00</ele><time>2026-04-25T13:17:34Z</time></trkpt><trkpt lat="59.0737817902" lon="30.0230992399"><ele>78.48</ele><time>2026-04-25T13:17:38Z</time></trkpt><trkpt lat="59.0737609193" lon="30.0231403112"><ele>78.00</ele><time>2026-04-25T13:17:41Z</time></trkpt><trkpt lat="59.0736554749" lon="30.0232384633"><ele>78.00</ele><time>2026-04-25T13:17:54Z</time></trkpt><trkpt lat="59.0735988133" lon="30.0232911017"><ele>78.00</ele><time>2026-04-25T13:18:06Z</time></trkpt><trkpt lat="59.0735996515" lon="30.0232843962"><ele>78.00</ele><time>2026-04-25T13:18:26Z</time></trkpt><trkpt lat="59.0736102965" lon="30.0232985616"><ele>78.00</ele><time>2026-04-25T13:18:50Z</time></trkpt><trkpt lat="59.0736052673" lon="30.0233019982"><ele>78.00</ele><time>2026-04-25T13:19:02Z</time></trkpt><trkpt lat="59.0736052673" lon="30.0233040098"><ele>78.00</ele><time>2026-04-25T13:19:12Z</time></trkpt><trkpt lat="59.0736034233" lon="30.0233025011"><ele>78.00</ele><time>2026-04-25T13:19:14Z</time></trkpt><trkpt lat="59.0735368710" lon="30.0233921036"><ele>78.00</ele><time>2026-04-25T13:19:24Z</time></trkpt><trkpt lat="59.0734690614" lon="30.0234957039"><ele>78.00</ele><time>2026-04-25T13:19:32Z</time></trkpt><trkpt lat="59.0734597575" lon="30.0235054269"><ele>78.00</ele><time>2026-04-25T13:19:33Z</time></trkpt><trkpt lat="59.0734159201" lon="30.0235412177"><ele>78.00</ele><time>2026-04-25T13:19:38Z</time></trkpt><trkpt lat="59.0733756870" lon="30.0235962868"><ele>78.00</ele><time>2026-04-25T13:19:43Z</time></trkpt><trkpt lat="59.0733295865" lon="30.0236183312"><ele>78.00</ele><time>2026-04-25T13:19:50Z</time></trkpt><trkpt lat="59.0732679795" lon="30.0236785132"><ele>78.00</ele><time>2026-04-25T13:20:00Z</time></trkpt><trkpt lat="59.0731734317" lon="30.0236736517"><ele>78.00</ele><time>2026-04-25T13:20:13Z</time></trkpt><trkpt lat="59.0731901955" lon="30.0236946903"><ele>78.00</ele><time>2026-04-25T13:20:30Z</time></trkpt><trkpt lat="59.0731898602" lon="30.0236973725"><ele>78.00</ele><time>2026-04-25T13:21:03Z</time></trkpt><trkpt lat="59.0731893573" lon="30.0237007253"><ele>78.00</ele><time>2026-04-25T13:21:09Z</time></trkpt><trkpt lat="59.0732017625" lon="30.0237666909"><ele>78.00</ele><time>2026-04-25T13:21:13Z</time></trkpt><trkpt lat="59.0732176881" lon="30.0238172337"><ele>77.52</ele><time>2026-04-25T13:21:28Z</time></trkpt><trkpt lat="59.0732338652" lon="30.0238248613"><ele>77.52</ele><time>2026-04-25T13:21:45Z</time></trkpt><trkpt lat="59.0732440911" lon="30.0238526892"><ele>77.52</ele><time>2026-04-25T13:22:06Z</time></trkpt><trkpt lat="59.0732496232" lon="30.0238627475"><ele>77.52</ele><time>2026-04-25T13:22:33Z</time></trkpt><trkpt lat="59.0732444264" lon="30.0238816068"><ele>77.52</ele><time>2026-04-25T13:23:03Z</time></trkpt><trkpt lat="59.0732478630" lon="30.0238873903"><ele>77.52</ele><time>2026-04-25T13:23:29Z</time></trkpt><trkpt lat="59.0732539818" lon="30.0238904078"><ele>77.52</ele><time>2026-04-25T13:23:49Z</time></trkpt><trkpt lat="59.0732554905" lon="30.0238940958"><ele>77.52</ele><time>2026-04-25T13:24:14Z</time></trkpt><trkpt lat="59.0732509643" lon="30.0239098538"><ele>77.04</ele><time>2026-04-25T13:24:46Z</time></trkpt><trkpt lat="59.0732457675" lon="30.0239250250"><ele>77.04</ele><time>2026-04-25T13:25:14Z</time></trkpt><trkpt lat="59.0732472762" lon="30.0239233486"><ele>77.04</ele><time>2026-04-25T13:25:35Z</time></trkpt><trkpt lat="59.0732499585" lon="30.0239211693"><ele>77.04</ele><time>2026-04-25T13:25:55Z</time></trkpt><trkpt lat="59.0732577536" lon="30.0239395257"><ele>77.04</ele><time>2026-04-25T13:26:09Z</time></trkpt><trkpt lat="59.0732725058" lon="30.0239993725"><ele>77.04</ele><time>2026-04-25T13:26:17Z</time></trkpt><trkpt lat="59.0733082127" lon="30.0240601413"><ele>77.04</ele><time>2026-04-25T13:26:21Z</time></trkpt><trkpt lat="59.0733127389" lon="30.0240924954"><ele>77.04</ele><time>2026-04-25T13:26:23Z</time></trkpt><trkpt lat="59.0733566601" lon="30.0241989456"><ele>77.04</ele><time>2026-04-25T13:26:37Z</time></trkpt><trkpt lat="59.0733466018" lon="30.0241899770"><ele>77.04</ele><time>2026-04-25T13:26:58Z</time></trkpt><trkpt lat="59.0733434167" lon="30.0241940003"><ele>77.04</ele><time>2026-04-25T13:27:22Z</time></trkpt><trkpt lat="59.0733446740" lon="30.0241789129"><ele>77.04</ele><time>2026-04-25T13:27:47Z</time></trkpt><trkpt lat="59.0733407345" lon="30.0241780747"><ele>77.04</ele><time>2026-04-25T13:28:07Z</time></trkpt><trkpt lat="59.0733672213" lon="30.0242593791"><ele>77.04</ele><time>2026-04-25T13:28:18Z</time></trkpt><trkpt lat="59.0733744297" lon="30.0242738798"><ele>77.04</ele><time>2026-04-25T13:28:34Z</time></trkpt><trkpt lat="59.0734041017" lon="30.0243715290"><ele>77.04</ele><time>2026-04-25T13:28:45Z</time></trkpt><trkpt lat="59.0734410658" lon="30.0245130155"><ele>77.04</ele><time>2026-04-25T13:28:56Z</time></trkpt><trkpt lat="59.0734418202" lon="30.0245570205"><ele>77.04</ele><time>2026-04-25T13:28:58Z</time></trkpt><trkpt lat="59.0734166745" lon="30.0247123372"><ele>77.04</ele><time>2026-04-25T13:29:08Z</time></trkpt><trkpt lat="59.0734315943" lon="30.0249487907"><ele>77.52</ele><time>2026-04-25T13:29:21Z</time></trkpt><trkpt lat="59.0734217037" lon="30.0251155067"><ele>77.52</ele><time>2026-04-25T13:29:31Z</time></trkpt><trkpt lat="59.0734250564" lon="30.0253037643"><ele>77.52</ele><time>2026-04-25T13:29:44Z</time></trkpt><trkpt lat="59.0734319296" lon="30.0254163332"><ele>77.52</ele><time>2026-04-25T13:29:50Z</time></trkpt><trkpt lat="59.0734393056" lon="30.0256943610"><ele>77.52</ele><time>2026-04-25T13:30:03Z</time></trkpt><trkpt lat="59.0734080411" lon="30.0258459058"><ele>77.52</ele><time>2026-04-25T13:30:15Z</time></trkpt><trkpt lat="59.0734078735" lon="30.0258970354"><ele>77.52</ele><time>2026-04-25T13:30:18Z</time></trkpt><trkpt lat="59.0733906906" lon="30.0260917470"><ele>77.52</ele><time>2026-04-25T13:30:30Z</time></trkpt><trkpt lat="59.0733960550" lon="30.0261854567"><ele>78.48</ele><time>2026-04-25T13:30:41Z</time></trkpt><trkpt lat="59.0733618569" lon="30.0262406934"><ele>78.00</ele><time>2026-04-25T13:30:54Z</time></trkpt><trkpt lat="59.0733414050" lon="30.0262523443"><ele>78.00</ele><time>2026-04-25T13:31:06Z</time></trkpt><trkpt lat="59.0733299218" lon="30.0262519252"><ele>78.00</ele><time>2026-04-25T13:31:25Z</time></trkpt><trkpt lat="59.0733141638" lon="30.0262704492"><ele>78.00</ele><time>2026-04-25T13:31:38Z</time></trkpt><trkpt lat="59.0732917842" lon="30.0262737181"><ele>78.00</ele><time>2026-04-25T13:31:55Z</time></trkpt><trkpt lat="59.0732787084" lon="30.0262869615"><ele>78.00</ele><time>2026-04-25T13:32:25Z</time></trkpt><trkpt lat="59.0732756071" lon="30.0263267756"><ele>77.52</ele><time>2026-04-25T13:32:48Z</time></trkpt><trkpt lat="59.0732771158" lon="30.0263414439"><ele>78.00</ele><time>2026-04-25T13:33:02Z</time></trkpt><trkpt lat="59.0732882638" lon="30.0263655838"><ele>78.00</ele><time>2026-04-25T13:33:23Z</time></trkpt><trkpt lat="59.0732983220" lon="30.0264261011"><ele>78.00</ele><time>2026-04-25T13:33:40Z</time></trkpt><trkpt lat="59.0733412374" lon="30.0266239140"><ele>78.00</ele><time>2026-04-25T13:33:51Z</time></trkpt><trkpt lat="59.0733611025" lon="30.0267899595"><ele>78.00</ele><time>2026-04-25T13:34:03Z</time></trkpt><trkpt lat="59.0733484458" lon="30.0269488804"><ele>78.00</ele><time>2026-04-25T13:34:13Z</time></trkpt><trkpt lat="59.0733380523" lon="30.0271255709"><ele>78.00</ele><time>2026-04-25T13:34:21Z</time></trkpt><trkpt lat="59.0732530598" lon="30.0272970647"><ele>78.48</ele><time>2026-04-25T13:34:34Z</time></trkpt><trkpt lat="59.0731952246" lon="30.0273970608"><ele>78.48</ele><time>2026-04-25T13:34:45Z</time></trkpt><trkpt lat="59.0731125791" lon="30.0275400560"><ele>78.48</ele><time>2026-04-25T13:34:55Z</time></trkpt><trkpt lat="59.0731414966" lon="30.0278404634"><ele>78.48</ele><time>2026-04-25T13:35:09Z</time></trkpt><trkpt lat="59.0731735993" lon="30.0279761665"><ele>78.48</ele><time>2026-04-25T13:35:21Z</time></trkpt><trkpt lat="59.0732046124" lon="30.0281791762"><ele>78.97</ele><time>2026-04-25T13:35:33Z</time></trkpt><trkpt lat="59.0732084680" lon="30.0283715408"><ele>78.97</ele><time>2026-04-25T13:35:49Z</time></trkpt></trkseg></trk></gpx>